[[{"header":{"parameterUnit":"m.s-1","parameterCategory":1,"la1":30.6,"la2":28.766,"lo1":-90.7593,"lo2":-88.6598,"dy":0.0162,"dx":0.0183,"nx":116,"ny":114,"refTime":"2023-04-13T12:00:00:Z","depth":0,"parameterNumber":2,"parameterNumberName":"U-component_of_WINDS"},"data":[0.0,0.0,0.0,0.0,0.0,0.0,0.0,0.0,0.0,0.0,0.0,0.0,0.0,0.0,0.0,0.0,0.0,0.0,0.0,0.0,0.0,0.0,0.0,0.0,0.0,0.0,0.0,0.0,0.0,0.0,0.0,0.0,0.0,0.0,0.0,0.0,0.0,0.0,0.0,0.0,0.0,0.0,0.0,0.0,0.0,0.0,0.0,0.0,0.0,0.0,0.0,0.0,0.0,0.0,0.0,0.0,0.0,0.0,0.0,0.0,0.0,0.0,0.0,0.0,0.0,0.0,0.0,0.0,0.0,0.0,0.0,0.0,0.0,0.0,0.0,0.0,0.0,0.0,0.0,0.0,0.0,0.0,0.0,0.0,0.0,0.0,0.0,0.0,0.0,0.0,0.0,0.0,0.0,0.0,0.0,0.0,0.0,0.0,0.0,0.0,0.0,0.0,0.0,0.0,0.0,0.0,0.0,0.0,0.0,0.0,0.0,0.0,0.0,0.0,0.0,0.0,0.0,0.0,0.0,0.0,0.0,0.0,0.0,0.0,0.0,0.0,0.0,0.0,0.0,0.0,0.0,0.0,0.0,0.0,0.0,0.0,0.0,0.0,0.0,0.0,0.0,0.0,0.0,0.0,0.0,0.0,0.0,0.0,0.0,0.0,0.0,0.0,0.0,0.0,0.0,0.0,0.0,0.0,0.0,0.0,0.0,0.0,0.0,0.0,0.0,0.0,0.0,0.0,0.0,0.0,0.0,0.0,0.0,0.0,0.0,0.0,0.0,0.0,0.0,0.0,0.0,0.0,0.0,0.0,0.0,0.0,0.0,0.0,0.0,0.0,0.0,0.0,0.0,0.0,0.0,0.0,0.0,0.0,0.0,0.0,0.0,0.0,0.0,0.0,0.0,0.0,0.0,0.0,0.0,0.0,0.0,0.0,0.0,0.0,0.0,0.0,0.0,0.0,0.0,0.0,0.0,0.0,0.0,0.0,0.0,0.0,0.0,0.0,0.0,0.0,0.0,0.0,0.0,0.0,0.0,0.0,0.0,0.0,0.0,0.0,0.0,0.0,0.0,0.0,0.0,0.0,0.0,0.0,0.0,0.0,0.0,0.0,0.0,0.0,0.0,0.0,0.0,0.0,0.0,0.0,0.0,0.0,0.0,0.0,0.0,0.0,0.0,0.0,0.0,0.0,0.0,0.0,0.0,0.0,0.0,0.0,0.0,0.0,0.0,0.0,0.0,0.0,0.0,0.0,0.0,0.0,0.0,0.0,0.0,0.0,0.0,0.0,0.0,0.0,0.0,0.0,0.0,0.0,0.0,0.0,0.0,0.0,0.0,0.0,0.0,0.0,0.0,0.0,0.0,0.0,0.0,0.0,0.0,0.0,0.0,0.0,0.0,0.0,0.0,0.0,0.0,0.0,0.0,0.0,0.0,0.0,0.0,0.0,0.0,0.0,0.0,0.0,0.0,0.0,0.0,0.0,0.0,0.0,0.0,0.0,0.0,0.0,0.0,0.0,0.0,0.0,0.0,0.0,0.0,0.0,0.0,0.0,0.0,0.0,0.0,0.0,0.0,0.0,0.0,0.0,0.0,0.0,0.0,0.0,0.0,0.0,0.0,0.0,0.0,0.0,0.0,0.0,0.0,0.0,0.0,0.0,0.0,0.0,0.0,0.0,0.0,0.0,0.0,0.0,0.0,0.0,0.0,0.0,0.0,0.0,0.0,0.0,0.0,0.0,0.0,0.0,0.0,0.0,0.0,0.0,0.0,0.0,0.0,0.0,0.0,0.0,0.0,0.0,0.0,0.0,0.0,0.0,0.0,0.0,0.0,0.0,0.0,0.0,0.0,0.0,0.0,0.0,0.0,0.0,0.0,0.0,0.0,0.0,0.0,0.0,0.0,0.0,0.0,0.0,0.0,0.0,0.0,0.0,0.0,0.0,0.0,0.0,0.0,0.0,0.0,0.0,0.0,0.0,0.0,0.0,0.0,0.0,0.0,0.0,0.0,0.0,0.0,0.0,0.0,0.0,0.0,0.0,0.0,0.0,0.0,0.0,0.0,0.0,0.0,0.0,0.0,0.0,0.0,0.0,0.0,0.0,0.0,0.0,0.0,0.0,0.0,0.0,0.0,0.0,0.0,0.0,0.0,0.0,0.0,0.0,0.0,0.0,0.0,0.0,0.0,0.0,0.0,0.0,0.0,0.0,0.0,0.0,0.0,0.0,0.0,0.0,0.0,0.0,0.0,0.0,0.0,0.0,0.0,0.0,0.0,0.0,0.0,0.0,0.0,0.0,0.0,0.0,0.0,0.0,0.0,0.0,0.0,0.0,0.0,0.0,0.0,0.0,0.0,0.0,0.0,0.0,0.0,0.0,0.0,0.0,0.0,0.0,0.0,0.0,0.0,0.0,0.0,0.0,0.0,0.0,0.0,0.0,0.0,0.0,0.0,0.0,0.0,0.0,0.0,0.0,0.0,0.0,0.0,0.0,0.0,0.0,0.0,0.0,0.0,0.0,0.0,0.0,0.0,0.0,0.0,0.0,0.0,0.0,0.0,0.0,0.0,0.0,0.0,0.0,0.0,0.0,0.0,0.0,0.0,0.0,0.0,0.0,0.0,0.0,0.0,0.0,0.0,0.0,0.0,0.0,0.0,0.0,0.0,0.0,0.0,0.0,0.0,0.0,0.0,0.0,0.0,0.0,0.0,0.0,0.0,0.0,0.0,0.0,0.0,0.0,0.0,0.0,0.0,0.0,0.0,0.0,0.0,0.0,0.0,0.0,0.0,0.0,0.0,0.0,0.0,0.0,0.0,0.0,0.0,0.0,0.0,0.0,0.0,0.0,0.0,0.0,0.0,0.0,0.0,0.0,0.0,0.0,0.0,0.0,0.0,0.0,0.0,0.0,0.0,0.0,0.0,0.0,0.0,0.0,0.0,0.0,0.0,0.0,0.0,0.0,0.0,0.0,0.0,0.0,0.0,0.0,0.0,0.0,0.0,0.0,0.0,0.0,0.0,0.0,0.0,0.0,0.0,0.0,0.0,0.0,0.0,0.0,0.0,0.0,0.0,0.0,0.0,0.0,0.0,0.0,0.0,0.0,0.0,0.0,0.0,0.0,0.0,0.0,0.0,0.0,0.0,0.0,0.0,0.0,0.0,0.0,0.0,0.0,0.0,0.0,0.0,0.0,0.0,0.0,0.0,0.0,0.0,0.0,0.0,0.0,0.0,0.0,0.0,0.0,0.0,0.0,0.0,0.0,0.0,0.0,0.0,0.0,0.0,0.0,0.0,0.0,0.0,0.0,0.0,0.0,0.0,0.0,0.0,0.0,0.0,0.0,0.0,0.0,0.0,0.0,0.0,0.0,0.0,0.0,0.0,0.0,0.0,0.0,0.0,0.0,0.0,0.0,0.0,0.0,0.0,0.0,0.0,0.0,0.0,0.0,0.0,0.0,0.0,0.0,0.0,0.0,0.0,0.0,0.0,0.0,0.0,0.0,0.0,0.0,0.0,0.0,0.0,0.0,0.0,0.0,0.0,0.0,0.0,0.0,0.0,0.0,0.0,0.0,0.0,0.0,0.0,0.0,0.0,0.0,0.0,0.0,0.0,0.0,0.0,0.0,0.0,0.0,0.0,0.0,0.0,0.0,0.0,0.0,0.0,0.0,0.0,0.0,0.0,0.0,0.0,0.0,0.0,0.0,0.0,0.0,0.0,0.0,0.0,0.0,0.0,0.0,0.0,0.0,0.0,0.0,0.0,0.0,0.0,0.0,0.0,0.0,0.0,0.0,0.0,0.0,0.0,0.0,0.0,0.0,0.0,0.0,0.0,0.0,0.0,0.0,0.0,0.0,0.0,0.0,0.0,0.0,0.0,0.0,0.0,0.0,0.0,0.0,0.0,0.0,0.0,0.0,0.0,0.0,0.0,0.0,0.0,0.0,0.0,0.0,0.0,0.0,0.0,0.0,0.0,0.0,0.0,0.0,0.0,0.0,0.0,0.0,0.0,0.0,0.0,0.0,0.0,0.0,0.0,0.0,0.0,0.0,0.0,0.0,0.0,0.0,0.0,0.0,0.0,0.0,0.0,0.0,0.0,0.0,0.0,0.0,0.0,0.0,0.0,0.0,0.0,0.0,0.0,0.0,0.0,0.0,0.0,0.0,0.0,0.0,0.0,0.0,0.0,0.0,0.0,0.0,0.0,0.0,0.0,0.0,0.0,0.0,0.0,0.0,0.0,0.0,0.0,0.0,0.0,0.0,0.0,0.0,0.0,0.0,0.0,0.0,0.0,0.0,0.0,0.0,0.0,0.0,0.0,0.0,0.0,0.0,0.0,0.0,0.0,0.0,0.0,0.0,0.0,0.0,0.0,0.0,0.0,0.0,0.0,0.0,0.0,0.0,0.0,0.0,0.0,0.0,0.0,0.0,0.0,0.0,0.0,0.0,0.0,0.0,0.0,0.0,0.0,0.0,0.0,0.0,0.0,0.0,0.0,0.0,0.0,0.0,0.0,0.0,0.0,0.0,0.0,0.0,0.0,0.0,0.0,0.0,0.0,0.0,0.0,0.0,0.0,0.0,0.0,0.0,0.0,0.0,0.0,0.0,0.0,0.0,0.0,0.0,0.0,0.0,0.0,0.0,0.0,0.0,0.0,0.0,0.0,0.0,0.0,0.0,0.0,0.0,0.0,0.0,0.0,0.0,0.0,0.0,0.0,0.0,0.0,0.0,0.0,0.0,0.0,0.0,0.0,0.0,0.0,0.0,0.0,0.0,0.0,0.0,0.0,0.0,0.0,0.0,0.0,0.0,0.0,0.0,0.0,0.0,0.0,0.0,0.0,0.0,0.0,0.0,0.0,0.0,0.0,0.0,0.0,0.0,0.0,0.0,0.0,0.0,0.0,0.0,0.0,0.0,0.0,0.0,0.0,0.0,0.0,0.0,0.0,0.0,0.0,0.0,0.0,0.0,0.0,0.0,0.0,0.0,0.0,0.0,0.0,0.0,0.0,0.0,0.0,0.0,0.0,0.0,0.0,0.0,0.0,0.0,0.0,0.0,0.0,0.0,0.0,0.0,0.0,0.0,0.0,0.0,0.0,0.0,0.0,0.0,0.0,0.0,0.0,0.0,0.0,0.0,0.0,0.0,0.0,0.0,0.0,0.0,0.0,0.0,0.0,0.0,0.0,0.0,0.0,0.0,0.0,0.0,0.0,0.0,0.0,0.0,0.0,0.0,0.0,0.0,0.0,0.0,0.0,0.0,0.0,0.0,0.0,0.0,0.0,0.0,0.0,0.0,0.0,0.0,0.0,0.0,0.0,0.0,0.0,0.0,0.0,0.0,0.0,0.0,0.0,0.0,0.0,0.0,0.0,0.0,0.0,0.0,0.0,0.0,0.0,0.0,0.0,0.0,0.0,0.0,0.0,0.0,0.0,0.0,0.0,0.0,0.0,0.0,0.0,0.0,0.0,0.0,0.0,0.0,0.0,0.0,0.0,0.0,0.0,0.0,0.0,0.0,0.0,0.0,0.0,0.0,0.0,0.0,0.0,0.0,0.0,0.0,0.0,0.0,0.0,0.0,0.0,0.0,0.0,0.0,0.0,0.0,0.0,0.0,0.0,0.0,0.0,0.0,0.0,0.0,0.0,0.0,0.0,0.0,0.0,0.0,0.0,0.0,0.0,0.0,0.0,0.0,0.0,0.0,0.0,0.0,0.0,0.0,0.0,0.0,0.0,0.0,0.0,0.0,0.0,0.0,0.0,0.0,0.0,0.0,0.0,0.0,0.0,0.0,0.0,0.0,0.0,0.0,0.0,0.0,0.0,0.0,0.0,0.0,0.0,0.0,0.0,0.0,0.0,0.0,0.0,0.0,0.0,0.0,0.0,0.0,0.0,0.0,0.0,0.0,0.0,0.0,0.0,0.0,0.0,0.0,0.0,0.0,0.0,0.0,0.0,0.0,0.0,0.0,0.0,0.0,0.0,0.0,0.0,0.0,0.0,0.0,0.0,0.0,0.0,0.0,0.0,0.0,0.0,0.0,0.0,0.0,0.0,0.0,0.0,0.0,0.0,0.0,0.0,0.0,0.0,0.0,0.0,0.0,5.1151,0.0,0.0,0.0,0.0,0.0,0.0,0.0,0.0,0.0,0.0,0.0,0.0,0.0,0.0,0.0,0.0,0.0,0.0,0.0,0.0,0.0,0.0,0.0,0.0,0.0,0.0,0.0,0.0,0.0,0.0,0.0,0.0,0.0,0.0,0.0,0.0,0.0,0.0,0.0,0.0,0.0,0.0,0.0,0.0,0.0,0.0,0.0,0.0,0.0,0.0,0.0,0.0,0.0,0.0,0.0,0.0,0.0,0.0,0.0,0.0,0.0,0.0,0.0,0.0,0.0,0.0,0.0,0.0,0.0,0.0,0.0,0.0,0.0,0.0,0.0,0.0,0.0,0.0,0.0,0.0,0.0,0.0,0.0,0.0,0.0,0.0,0.0,0.0,0.0,0.0,0.0,0.0,0.0,0.0,0.0,0.0,0.0,0.0,0.0,0.0,0.0,0.0,0.0,0.0,0.0,0.0,0.0,0.0,0.0,0.0,0.0,0.0,0.0,0.0,0.0,0.0,5.194,0.0,0.0,0.0,0.0,0.0,0.0,0.0,0.0,0.0,0.0,0.0,0.0,0.0,0.0,0.0,0.0,0.0,0.0,0.0,0.0,0.0,0.0,0.0,0.0,0.0,0.0,0.0,0.0,0.0,0.0,0.0,0.0,0.0,0.0,0.0,0.0,0.0,0.0,0.0,0.0,0.0,0.0,0.0,0.0,0.0,0.0,0.0,0.0,0.0,0.0,0.0,0.0,0.0,0.0,0.0,0.0,0.0,0.0,0.0,0.0,0.0,0.0,0.0,0.0,0.0,0.0,0.0,0.0,0.0,0.0,0.0,0.0,0.0,0.0,0.0,0.0,0.0,0.0,0.0,0.0,0.0,0.0,0.0,0.0,0.0,0.0,0.0,0.0,0.0,0.0,0.0,0.0,0.0,0.0,0.0,0.0,0.0,0.0,0.0,0.0,0.0,0.0,0.0,0.0,0.0,0.0,0.0,0.0,5.3225,5.3298,5.3408,5.3408,5.3482,5.3628,5.3628,5.3482,5.3225,0.0,0.0,0.0,0.0,0.0,0.0,0.0,0.0,0.0,0.0,0.0,0.0,0.0,0.0,0.0,0.0,0.0,0.0,0.0,0.0,0.0,0.0,0.0,0.0,0.0,0.0,0.0,0.0,0.0,0.0,0.0,0.0,0.0,0.0,0.0,0.0,0.0,0.0,0.0,0.0,0.0,0.0,0.0,0.0,0.0,0.0,0.0,0.0,0.0,0.0,0.0,0.0,0.0,0.0,0.0,0.0,0.0,0.0,0.0,0.0,0.0,0.0,0.0,0.0,0.0,0.0,0.0,0.0,0.0,0.0,0.0,0.0,0.0,0.0,0.0,0.0,0.0,0.0,0.0,0.0,0.0,0.0,0.0,0.0,0.0,0.0,0.0,4.7426,4.8218,0.0,0.0,0.0,0.0,0.0,0.0,0.0,0.0,0.0,0.0,0.0,0.0,0.0,0.0,5.3041,5.3151,5.3225,5.3225,5.3225,5.3592,5.4252,5.4252,5.462,5.528,5.528,0.0,5.3225,5.3225,0.0,0.0,0.0,0.0,0.0,0.0,0.0,0.0,0.0,0.0,0.0,0.0,0.0,0.0,0.0,0.0,0.0,0.0,0.0,0.0,0.0,0.0,0.0,0.0,0.0,0.0,0.0,0.0,0.0,0.0,0.0,0.0,0.0,0.0,0.0,0.0,0.0,0.0,0.0,0.0,0.0,0.0,0.0,0.0,0.0,0.0,0.0,0.0,0.0,0.0,0.0,0.0,0.0,0.0,0.0,0.0,0.0,0.0,0.0,0.0,0.0,0.0,0.0,0.0,0.0,0.0,0.0,0.0,0.0,0.0,0.0,0.0,0.0,0.0,0.0,0.0,0.0,0.0,0.0,0.0,0.0,0.0,0.0,0.0,0.0,4.8117,4.859,4.9328,4.9758,4.9865,0.0,0.0,0.0,0.0,0.0,0.0,0.0,0.0,0.0,5.2725,5.306,5.3445,5.3885,5.3885,5.4106,5.4546,5.4546,5.473,5.506,5.506,5.5244,5.5574,5.5574,5.5207,5.4546,5.4546,5.4546,5.4546,0.0,0.0,0.0,0.0,5.506,5.5097,0.0,0.0,0.0,0.0,0.0,0.0,0.0,0.0,0.0,0.0,0.0,0.0,0.0,0.0,0.0,4.1332,0.0,0.0,0.0,0.0,0.0,0.0,0.0,0.0,0.0,0.0,0.0,0.0,0.0,0.0,0.0,0.0,0.0,0.0,0.0,0.0,0.0,0.0,4.8306,0.0,0.0,0.0,0.0,0.0,0.0,0.0,0.0,0.0,0.0,0.0,0.0,0.0,0.0,0.0,0.0,0.0,0.0,0.0,0.0,0.0,0.0,0.0,0.0,0.0,0.0,0.0,0.0,0.0,0.0,0.0,0.0,0.0,0.0,0.0,0.0,0.0,0.0,4.9826,4.9898,5.0605,5.1149,5.1293,0.0,0.0,0.0,0.0,0.0,0.0,5.3518,5.3518,5.3592,5.3812,5.3812,5.4106,5.4693,5.4693,5.4987,5.5574,5.5794,5.6014,5.6198,5.6418,5.6638,5.6822,5.6822,5.6822,5.6748,5.5941,5.5574,5.5574,5.5574,5.5574,5.5611,5.5831,5.6014,5.6235,0.0,0.0,0.0,0.0,0.0,0.0,0.0,0.0,0.0,0.0,0.0,0.0,0.0,0.0,4.0524,4.2103,4.2286,4.2616,0.0,0.0,0.0,0.0,0.0,0.0,0.0,0.0,0.0,0.0,0.0,0.0,0.0,0.0,0.0,0.0,0.0,0.0,0.0,0.0,0.0,4.8306,0.0,0.0,0.0,0.0,0.0,0.0,0.0,0.0,0.0,0.0,0.0,0.0,0.0,0.0,0.0,0.0,0.0,0.0,0.0,0.0,0.0,0.0,0.0,0.0,0.0,0.0,0.0,0.0,0.0,0.0,0.0,0.0,0.0,0.0,0.0,0.0,0.0,0.0,0.0,5.2926,5.3072,0.0,0.0,0.0,0.0,5.3146,5.3182,5.3555,5.4289,5.4326,5.4693,5.5464,5.5464,5.55,5.5537,5.5537,5.5537,5.5611,5.6381,5.7152,5.7923,5.8694,5.9465,6.0162,6.0162,6.0162,5.9905,5.6859,5.5574,5.5574,5.5574,5.5574,5.5684,5.6455,5.7226,5.7997,0.0,0.0,0.0,0.0,0.0,0.0,0.0,0.0,0.0,0.0,0.0,0.0,0.0,4.1148,4.1882,4.2983,4.3057,4.3167,4.3461,0.0,0.0,0.0,0.0,0.0,0.0,0.0,0.0,0.0,0.0,0.0,0.0,0.0,0.0,0.0,0.0,0.0,0.0,0.0,4.9921,4.9921,4.9921,4.9921,0.0,0.0,0.0,0.0,0.0,0.0,0.0,0.0,0.0,0.0,0.0,0.0,0.0,0.0,0.0,0.0,0.0,0.0,0.0,0.0,0.0,0.0,0.0,0.0,0.0,0.0,0.0,0.0,0.0,0.0,0.0,0.0,0.0,0.0,0.0,0.0,0.0,5.3109,5.3225,0.0,5.3225,5.3665,5.3959,5.3959,5.4436,5.4876,5.5133,5.517,5.528,5.5574,5.6088,5.6602,5.7152,5.7666,5.818,5.8694,5.8988,5.9281,5.9538,5.9832,6.0126,6.0419,6.0419,6.0419,6.0309,5.9171,5.8694,5.8694,5.8694,5.8694,5.8731,5.9024,5.9318,5.9612,0.0,0.0,0.0,0.0,0.0,0.0,0.0,0.0,0.0,0.0,0.0,4.0194,4.1038,4.1809,4.2616,4.3424,4.3497,4.3608,4.3901,0.0,0.0,0.0,0.0,0.0,0.0,0.0,0.0,0.0,0.0,0.0,0.0,0.0,0.0,0.0,0.0,0.0,0.0,0.0,5.1316,5.0802,5.0802,5.0802,5.0802,0.0,0.0,0.0,0.0,0.0,0.0,0.0,0.0,0.0,0.0,0.0,0.0,0.0,0.0,0.0,0.0,0.0,0.0,0.0,0.0,0.0,0.0,0.0,0.0,0.0,0.0,0.0,0.0,0.0,0.0,0.0,0.0,0.0,0.0,0.0,5.2644,5.3146,5.3445,5.3592,5.3592,5.4326,5.4803,5.4803,5.528,5.5831,5.6381,5.6381,5.6638,5.7189,5.774,5.829,5.8804,5.9612,6.0272,6.0823,6.1374,6.1667,6.1667,6.1924,6.2071,6.2071,6.2071,6.2071,6.2071,6.2071,6.2071,6.1961,6.0823,6.0419,6.0419,6.0419,6.0566,6.0896,0.0,0.0,0.0,0.0,0.0,0.0,0.0,0.0,0.0,0.0,3.9423,4.023,4.1038,4.1846,4.2653,4.3424,4.3497,4.3828,4.4672,4.4745,0.0,0.0,0.0,0.0,0.0,0.0,0.0,0.0,0.0,0.0,0.0,0.0,0.0,0.0,0.0,0.0,0.0,5.3225,5.2307,5.0875,5.0875,5.0875,5.0875,0.0,0.0,0.0,0.0,0.0,0.0,0.0,0.0,0.0,0.0,0.0,0.0,0.0,0.0,0.0,0.0,0.0,0.0,0.0,0.0,0.0,0.0,0.0,0.0,0.0,0.0,0.0,0.0,0.0,0.0,0.0,0.0,0.0,5.3225,5.3225,5.3261,5.3261,5.3959,5.4436,5.4436,5.517,5.5647,5.5647,5.5721,5.6418,5.7997,5.807,5.8804,6.0382,6.0456,6.0493,6.0529,6.13,6.1704,6.1741,6.3356,6.4127,6.4163,6.4934,6.5301,6.5301,6.5338,6.5338,6.5301,6.5338,6.5338,6.5007,6.1814,6.0566,6.0566,6.0566,6.1043,6.1961,0.0,0.0,0.0,0.0,0.0,0.0,0.0,0.0,0.0,0.0,3.99,4.0855,4.1075,4.2323,4.324,4.3461,4.3497,4.3828,4.4672,0.0,0.0,0.0,0.0,0.0,0.0,0.0,0.0,0.0,0.0,0.0,0.0,0.0,0.0,0.0,0.0,0.0,5.3225,5.3225,5.2968,5.2564,5.2564,5.2564,5.2564,0.0,0.0,0.0,0.0,0.0,0.0,0.0,0.0,0.0,0.0,0.0,0.0,0.0,0.0,0.0,0.0,0.0,0.0,0.0,0.0,0.0,0.0,0.0,0.0,0.0,0.0,0.0,0.0,0.0,0.0,0.0,0.0,5.3885,5.3298,5.3702,5.4069,5.4069,5.4766,5.5244,5.5244,5.6528,5.7336,5.7336,5.8437,5.9281,5.9722,5.9758,6.0199,6.1227,6.1851,6.2438,6.3062,6.387,6.4273,6.431,6.4751,6.4971,6.4971,6.5191,6.5301,6.5338,6.5925,6.5852,6.5375,6.5925,6.5852,6.5228,6.431,6.3943,6.3943,6.3943,6.409,6.4347,0.0,0.0,0.0,0.0,0.0,0.0,0.0,0.0,0.0,0.0,4.0304,4.1258,4.1589,4.2727,4.3497,4.3497,4.3791,4.4342,4.5149,0.0,0.0,0.0,0.0,0.0,0.0,0.0,0.0,0.0,0.0,0.0,0.0,0.0,0.0,0.0,0.0,5.3225,5.3225,5.3225,5.3225,5.3225,5.3225,5.3225,5.3225,5.3225,5.2931,5.2491,5.2491,5.2197,5.183,5.183,0.0,0.0,0.0,0.0,0.0,0.0,0.0,0.0,0.0,0.0,0.0,0.0,0.0,0.0,0.0,0.0,0.0,0.0,0.0,0.0,0.0,0.0,0.0,0.0,5.4913,5.473,5.4289,5.462,5.5023,5.539,5.6124,5.6748,5.7079,5.8253,5.9024,5.9024,6.0199,6.1043,6.141,6.1741,6.2328,6.3135,6.3613,6.4273,6.5081,6.5888,6.6476,6.6806,6.7173,6.732,6.732,6.732,6.732,0.0,6.7797,6.7724,6.7357,6.7834,6.7724,0.0,0.0,0.0,0.0,0.0,6.5301,6.5375,0.0,0.0,0.0,0.0,0.0,0.0,0.0,0.0,0.0,0.0,0.0,4.1405,4.2213,4.302,4.3497,4.3497,4.4232,4.5076,0.0,0.0,0.0,0.0,0.0,0.0,0.0,0.0,0.0,0.0,0.0,0.0,0.0,0.0,0.0,0.0,5.3225,5.3225,5.3225,5.3225,5.3225,5.3225,5.3225,5.3225,5.3225,5.3225,5.3225,5.3225,5.3225,5.3225,5.3225,5.3225,0.0,0.0,0.0,0.0,0.0,0.0,0.0,0.0,0.0,0.0,0.0,0.0,0.0,0.0,0.0,0.0,0.0,0.0,0.0,0.0,0.0,0.0,0.0,0.0,5.5794,5.5904,5.5978,5.6088,5.6345,5.6859,5.774,5.8584,5.9391,6.0199,6.0713,6.0823,6.1557,6.2328,6.3062,0.0,0.0,0.0,0.0,6.5999,6.688,6.7614,6.8311,6.9045,6.9743,7.011,7.011,7.011,7.011,7.011,7.0183,7.0183,7.011,7.0183,7.0183,6.9816,6.6953,6.5852,6.5852,6.5852,6.5852,6.5962,0.0,0.0,0.0,0.0,0.0,0.0,0.0,0.0,0.0,3.979,4.0598,4.1405,4.2213,4.302,4.3497,4.3497,4.4232,4.5333,0.0,0.0,0.0,0.0,0.0,0.0,0.0,0.0,0.0,0.0,0.0,0.0,0.0,0.0,5.3225,5.3225,5.3225,5.3225,5.3225,5.3225,5.3225,5.3225,5.3225,5.3225,5.3225,5.3225,5.3225,5.3225,5.3225,5.3225,5.3225,5.3225,5.3225,5.3225,5.3225,0.0,0.0,0.0,0.0,0.0,0.0,0.0,0.0,0.0,0.0,0.0,0.0,0.0,0.0,0.0,0.0,0.0,0.0,0.0,0.0,5.6455,5.7116,5.7776,5.8437,5.9061,5.9061,5.7886,5.9061,6.0236,6.1043,6.1851,6.2622,6.3319,6.4127,6.4677,6.4824,6.5007,0.0,6.7173,6.7247,6.7907,6.9376,6.9559,6.9706,6.9853,0.0,0.0,7.011,7.011,7.011,7.0146,7.0807,7.0697,7.0146,7.0807,7.0697,7.0036,6.9412,6.9155,6.9155,6.9155,6.9155,6.9192,0.0,0.0,0.0,0.0,0.0,0.0,0.0,0.0,0.0,0.0,4.0855,4.1552,4.2763,4.324,4.3497,4.3497,4.4599,0.0,0.0,0.0,0.0,0.0,0.0,0.0,0.0,0.0,0.0,0.0,0.0,0.0,0.0,5.3225,5.3225,5.3225,5.3628,5.3812,5.3812,5.3812,5.3812,5.3775,5.3371,5.3225,5.3225,5.3225,5.3225,5.3225,5.3225,5.3225,5.3225,5.3225,5.3225,5.3225,5.3225,5.3225,5.3225,0.0,0.0,0.0,0.0,0.0,0.0,0.0,0.0,0.0,0.0,0.0,0.0,0.0,0.0,5.5244,0.0,0.0,5.6602,5.7813,5.8364,5.8877,5.9685,6.086,6.13,6.0493,6.1117,6.2108,6.3319,6.3833,6.4237,6.4677,6.5815,6.6512,6.6512,6.7247,6.8054,6.8862,6.8898,6.9486,7.0697,7.0697,7.0917,7.1284,7.1284,7.1284,7.1284,7.1284,7.1284,7.1321,7.1725,7.1688,7.1321,7.1725,7.1651,7.1284,7.1284,7.0807,7.011,7.011,7.011,7.011,0.0,0.0,0.0,0.0,0.0,0.0,0.0,0.0,0.0,0.0,4.1111,4.1699,4.3314,4.3497,4.3608,0.0,0.0,0.0,0.0,0.0,0.0,0.0,0.0,0.0,0.0,0.0,0.0,0.0,0.0,5.3225,5.3225,5.3225,5.3298,5.3482,5.4106,5.4473,5.462,5.462,5.4546,5.4326,5.3702,5.3335,5.3225,5.3225,5.3225,5.3225,5.3225,5.3225,5.3225,5.3225,5.3225,5.3225,5.3225,5.3225,5.3225,5.3225,5.3225,0.0,0.0,0.0,0.0,0.0,0.0,0.0,0.0,0.0,5.484,5.5647,5.5831,5.6124,5.7079,5.7262,5.774,5.9208,5.9722,6.0162,6.0786,6.2254,6.3356,6.3503,6.3392,6.3906,6.5411,6.5668,6.5852,6.5999,6.7357,6.8164,6.8164,6.9376,7.0183,7.033,7.033,7.0734,7.1541,7.1541,7.1872,7.2496,7.2496,7.2496,7.2496,7.2496,7.2496,7.2496,7.2496,7.2496,7.2496,7.2496,7.2496,7.2496,7.2496,7.1725,7.055,7.055,7.055,7.055,0.0,0.0,0.0,0.0,0.0,0.0,0.0,0.0,0.0,0.0,0.0,0.0,0.0,0.0,0.0,0.0,0.0,0.0,0.0,0.0,0.0,0.0,0.0,0.0,0.0,5.2307,5.3115,5.3225,5.3225,5.3225,5.3225,5.3225,5.3592,5.4289,5.4363,5.4803,5.5464,5.5464,5.506,5.4399,5.4289,5.3849,5.3225,5.3225,5.3225,5.3225,5.3225,5.3225,5.3225,5.3225,5.3225,5.3225,5.3225,5.3225,5.3225,5.3225,0.0,5.3225,5.3225,5.3739,5.4436,5.5133,5.5317,5.5354,0.0,0.0,5.5684,5.6492,5.6675,5.7152,5.8657,5.8951,5.9245,6.0126,6.1484,6.2438,6.2548,6.398,6.5301,6.5999,6.5448,6.5375,6.6292,6.699,6.7724,6.8458,6.9339,6.9816,6.9816,7.0,7.044,7.1138,7.1174,7.1578,7.2349,7.2386,7.2422,7.2496,7.2496,7.2496,7.2496,7.2496,7.2496,7.2496,7.2496,7.2496,7.2496,7.2496,7.2496,7.2496,7.2496,7.2386,7.2239,7.2239,7.2239,7.2239,0.0,0.0,0.0,0.0,0.0,0.0,0.0,0.0,0.0,0.0,0.0,0.0,0.0,0.0,0.0,0.0,0.0,0.0,0.0,0.0,0.0,4.904,5.0178,5.1022,5.1499,5.2637,5.3225,5.3225,5.3225,5.3225,5.3225,5.3225,5.3408,5.3739,5.4179,5.4583,5.4913,5.4913,5.4693,5.4363,5.3885,5.3518,5.3225,5.3225,5.3225,5.3225,5.3225,5.3225,0.0,0.0,5.3225,5.3225,5.3225,5.3225,5.3298,5.3775,5.3922,0.0,5.4473,5.484,0.0,0.0,5.5574,5.5721,5.6198,5.6308,5.6675,5.7923,5.8217,5.8547,5.9685,5.9905,6.0346,0.0,6.2365,6.3135,6.4127,6.5264,6.6292,6.71,6.732,6.754,6.7871,6.8605,6.9229,6.9559,7.033,7.0807,7.0807,7.1248,7.1651,7.1982,7.2018,7.2165,7.2496,7.2496,7.2753,7.3193,7.3193,7.345,7.3891,7.3891,7.3891,7.3891,7.3891,7.3891,7.3891,7.3891,7.3891,7.3891,7.3891,7.3891,7.378,7.2863,7.2496,7.2496,0.0,0.0,0.0,0.0,0.0,0.0,0.0,0.0,0.0,0.0,0.0,0.0,0.0,0.0,0.0,0.0,0.0,0.0,0.0,4.8306,4.8673,4.9554,5.0362,0.0,5.1977,5.2784,5.3225,5.3225,5.3225,5.3225,5.3225,5.3225,5.3335,5.3555,5.4142,5.4509,5.473,5.473,5.4583,5.4363,5.3775,5.3408,5.3225,5.3225,5.3335,5.3518,5.3298,5.3225,0.0,0.0,5.3555,5.3592,5.3812,5.3849,5.3995,5.4546,5.473,5.4913,5.5721,0.0,0.0,5.6198,5.6235,5.6455,5.7299,5.7483,5.7886,5.9245,5.9538,5.9795,6.0566,6.0933,6.152,6.2952,6.3539,6.4347,6.5778,6.6659,6.7467,6.8274,6.9082,6.9559,6.9559,7.011,7.044,7.044,7.1174,7.1651,7.1651,7.2202,7.2496,7.2496,7.2716,7.2826,7.2826,7.3046,7.345,7.4037,7.4037,7.4331,7.4918,7.4918,7.4918,7.4918,7.4918,7.4918,7.4918,7.4918,7.4918,7.4918,7.4918,7.4918,7.4771,7.3597,7.3156,7.3156,0.0,0.0,0.0,0.0,0.0,0.0,0.0,0.0,0.0,0.0,0.0,0.0,0.0,0.0,0.0,0.0,0.0,0.0,0.0,4.8306,4.8673,4.9554,5.0362,5.1169,5.1977,5.2784,5.3225,5.3225,5.3225,5.3225,5.3225,5.3225,5.3628,5.4363,5.4399,5.484,5.5537,5.5537,5.5097,5.4399,5.4363,5.3922,5.3225,5.3225,5.3702,5.4252,5.3482,0.0,0.0,0.0,5.4363,5.4509,5.528,5.5537,0.0,5.5537,5.5537,0.0,0.0,0.0,5.6969,5.774,5.7923,5.8143,5.8951,5.9134,5.9391,6.0199,6.0382,6.0603,6.141,6.2218,6.3025,6.3906,6.5375,6.6659,6.7504,6.8311,6.9119,6.9926,7.0734,7.1248,0.0,7.1248,7.1284,7.1284,7.2018,7.2459,7.2459,7.2496,7.2496,7.2496,7.3266,7.367,7.367,7.4441,7.4845,7.4882,7.4882,7.4882,7.4918,7.4918,7.4918,7.4918,7.4918,7.4918,7.4918,7.4918,7.4918,7.4918,7.4918,7.4918,7.4918,7.4845,7.4845,7.4845,0.0,0.0,0.0,0.0,0.0,0.0,0.0,0.0,0.0,0.0,0.0,0.0,0.0,0.0,0.0,0.0,0.0,0.0,0.0,4.8306,4.893,5.0325,5.0655,5.1426,5.2784,5.3078,5.3225,5.3225,5.3225,5.3225,5.3225,5.3225,5.3335,5.3592,5.3592,5.3739,5.3995,5.3995,5.3849,5.3592,5.3592,5.3445,5.3261,5.3812,5.4179,5.4436,0.0,0.0,0.0,0.0,0.0,0.0,5.55,0.0,0.0,5.6235,0.0,5.7262,0.0,0.0,5.7776,5.8621,5.8804,5.9024,5.9832,6.0015,6.0236,6.1043,6.119,6.163,6.2989,6.3466,6.4127,6.5485,6.6586,6.7577,6.8385,6.9192,7.0,7.0807,7.1138,0.0,0.0,0.0,0.0,7.2092,7.2349,7.2496,7.2496,7.301,7.3303,7.3303,7.4074,7.4515,7.4515,7.4771,7.5175,7.5689,7.624,7.6497,7.6497,7.6497,7.6827,7.7341,7.7341,7.7671,7.8148,7.8148,7.8148,7.8148,7.8148,7.8148,7.8148,7.8148,7.8148,7.7818,0.0,0.0,0.0,0.0,0.0,0.0,0.0,0.0,0.0,0.0,0.0,0.0,0.0,0.0,0.0,0.0,0.0,0.0,0.0,0.0,4.904,5.0729,5.0802,5.1573,5.3188,5.3225,5.3225,5.3225,5.3225,5.3225,5.3225,5.3225,5.3225,5.3225,5.3225,5.3225,5.3225,5.3225,5.3225,5.3225,5.3225,5.3371,5.3702,5.4216,5.4766,0.0,0.0,0.0,0.0,0.0,0.0,0.0,0.0,0.0,0.0,0.0,5.7593,5.807,5.8364,5.8437,5.8621,5.9428,5.9648,5.9832,6.0639,6.0823,6.108,6.1851,6.2291,6.2805,6.3906,6.4567,6.5375,6.6696,6.7577,6.8495,6.9596,7.022,7.0844,7.1651,7.1725,7.1945,0.0,0.0,0.0,7.2532,7.2789,7.2936,7.2936,7.3707,7.4147,7.4147,7.4918,7.5322,7.5322,7.5946,7.6644,7.7414,7.7965,7.8185,7.8185,7.8185,7.8516,7.9029,7.9029,7.9323,7.98,7.98,7.98,7.98,7.98,7.98,7.98,7.98,7.98,7.9507,0.0,0.0,0.0,0.0,0.0,0.0,0.0,0.0,0.0,0.0,0.0,0.0,0.0,0.0,0.0,0.0,0.0,0.0,0.0,0.0,0.0,5.0729,5.0802,5.1573,5.3188,5.3225,5.3225,5.3225,5.3225,5.3225,5.3225,5.3225,5.3225,5.3225,5.3225,5.3225,5.3225,5.3225,5.3225,5.3225,5.3225,5.3665,5.4363,5.4436,0.0,0.0,0.0,0.0,0.0,0.0,0.0,0.0,0.0,0.0,0.0,0.0,0.0,5.8253,5.9061,5.9281,5.9465,6.0309,6.0529,6.075,6.1594,6.1777,6.1998,6.2768,6.3576,6.4163,0.0,0.0,6.6769,6.7614,6.8421,6.9522,7.1101,7.1358,7.1651,0.0,0.0,0.0,0.0,0.0,0.0,7.2679,0.0,7.3744,7.3744,7.4515,7.4955,7.4955,7.5799,7.624,7.624,7.7855,7.9029,7.98,7.98,7.98,7.98,7.98,7.98,7.9837,7.9837,7.9874,7.991,7.991,7.991,7.991,7.991,7.991,7.991,7.991,7.991,7.991,0.0,0.0,0.0,0.0,0.0,0.0,0.0,0.0,0.0,0.0,0.0,0.0,0.0,0.0,0.0,0.0,0.0,0.0,0.0,0.0,0.0,0.0,0.0,0.0,0.0,0.0,0.0,0.0,0.0,5.3225,5.3225,5.3225,5.3225,5.3225,5.3225,5.3225,5.3225,5.3225,5.3225,5.3225,0.0,5.3335,5.3665,0.0,0.0,0.0,0.0,0.0,0.0,0.0,0.0,0.0,0.0,0.0,5.8107,0.0,0.0,5.9098,5.9905,6.0089,6.0456,6.1851,6.2218,6.2585,6.4016,6.4347,6.442,6.464,6.4861,6.5191,0.0,0.0,0.0,6.8385,6.9265,0.0,7.1174,7.1835,0.0,0.0,0.0,7.2753,7.334,7.356,0.0,0.0,7.4478,7.4588,7.4588,7.5359,7.5799,7.5799,7.7194,7.7965,7.7965,7.8956,7.958,7.98,7.98,7.98,7.98,7.98,8.0131,8.0681,8.0681,8.1012,8.1599,8.1599,8.1599,8.1599,8.1599,8.1599,8.1599,8.1599,8.1599,8.1599,0.0,0.0,0.0,0.0,0.0,0.0,0.0,0.0,0.0,0.0,0.0,0.0,0.0,0.0,0.0,0.0,0.0,0.0,0.0,0.0,0.0,0.0,0.0,0.0,0.0,0.0,0.0,0.0,0.0,0.0,0.0,5.3225,5.3225,5.3225,5.3225,5.3225,5.3225,5.3225,0.0,0.0,0.0,0.0,0.0,0.0,0.0,0.0,0.0,0.0,0.0,0.0,0.0,5.7997,5.7997,5.8253,5.8621,5.9098,0.0,5.9979,6.1153,6.1447,6.1851,6.3503,6.3906,6.4163,6.5081,6.5301,6.5301,6.5301,6.5595,0.0,0.0,0.0,0.0,0.0,0.0,0.0,7.1725,7.2239,7.2642,0.0,7.3046,0.0,7.4147,7.4551,7.4955,0.0,7.5432,7.5432,7.5432,7.657,7.7194,7.7194,7.8442,7.9286,7.9653,8.0094,8.0498,8.0828,8.0828,8.0828,8.0828,8.0828,8.1085,8.1525,0.0,8.1966,8.2737,8.2737,8.292,8.3251,8.3251,8.3251,8.3251,8.3251,8.3251,8.3251,0.0,0.0,0.0,0.0,0.0,0.0,0.0,0.0,0.0,0.0,0.0,0.0,0.0,0.0,0.0,0.0,0.0,0.0,0.0,0.0,0.0,0.0,0.0,0.0,0.0,0.0,0.0,0.0,0.0,0.0,0.0,0.0,0.0,0.0,0.0,0.0,0.0,0.0,0.0,0.0,0.0,0.0,0.0,0.0,0.0,0.0,0.0,0.0,0.0,0.0,5.7997,5.8033,5.8143,5.8657,5.9245,5.9465,6.0015,6.0896,6.2548,6.2989,6.3392,6.5044,6.5485,6.5485,6.5595,6.5632,6.5632,6.5632,0.0,6.6696,6.6806,6.7981,6.9192,7.011,0.0,7.1578,7.2386,7.2606,7.2936,7.3597,7.378,7.4184,7.4992,7.5799,7.6313,7.6423,7.6533,7.6533,7.6423,7.7892,7.8809,7.8919,7.958,8.0351,8.1158,8.1158,8.1562,8.237,8.237,8.2406,8.2517,8.2517,8.2517,8.2517,0.0,0.0,8.3581,8.3581,8.3985,8.4609,8.4609,8.4609,8.4609,8.4609,8.4609,8.4609,0.0,0.0,0.0,0.0,0.0,0.0,0.0,0.0,0.0,0.0,4.291,4.3497,0.0,0.0,0.0,0.0,0.0,0.0,0.0,0.0,0.0,0.0,0.0,0.0,0.0,0.0,0.0,0.0,0.0,0.0,0.0,0.0,0.0,0.0,0.0,0.0,0.0,0.0,0.0,0.0,0.0,0.0,0.0,0.0,0.0,0.0,0.0,0.0,0.0,0.0,5.7997,5.8107,5.8804,5.9098,5.9465,6.0786,6.1263,6.1741,6.3429,6.387,6.4273,6.5888,6.6292,6.6476,6.7136,6.7283,0.0,0.0,6.7393,6.7687,6.8348,6.8715,0.0,7.0844,0.0,0.0,0.0,0.0,7.3523,0.0,0.0,0.0,0.0,0.0,0.0,0.0,0.0,7.8846,7.8185,7.9066,7.991,8.0571,8.0718,8.1195,8.1966,8.2003,8.2406,8.3214,8.3214,8.3544,8.4168,8.4168,8.4168,8.4168,8.4168,0.0,8.4389,8.4389,8.4462,8.4609,8.4609,8.4609,8.4609,8.4609,8.4609,8.4609,0.0,0.0,0.0,0.0,0.0,0.0,0.0,4.0598,4.1405,4.2176,4.2983,4.3497,4.3497,4.3497,4.3497,0.0,0.0,0.0,0.0,0.0,0.0,0.0,0.0,0.0,0.0,0.0,0.0,0.0,0.0,0.0,0.0,0.0,0.0,0.0,0.0,0.0,0.0,0.0,0.0,0.0,0.0,0.0,0.0,0.0,0.0,0.0,0.0,0.0,0.0,0.0,5.829,5.8694,5.9098,5.9501,6.0052,6.1263,6.2218,6.3172,6.4383,6.5044,6.5632,6.6806,6.71,6.721,6.7614,0.0,0.0,0.0,6.8017,6.8458,6.8825,0.0,0.0,0.0,0.0,0.0,0.0,0.0,0.0,0.0,0.0,0.0,0.0,0.0,0.0,0.0,0.0,8.0057,7.925,7.9984,8.0791,8.1599,8.2039,8.2443,8.281,8.3251,8.3654,8.4022,8.4022,8.4242,8.4609,8.4609,8.4609,8.4609,8.4609,0.0,8.5233,8.5233,8.5453,8.5857,8.5857,8.5857,8.5857,8.5857,8.5857,8.5857,0.0,0.0,0.0,0.0,0.0,0.0,0.0,4.0855,4.1662,4.2433,4.3094,4.3497,4.3497,4.3497,4.3497,0.0,0.0,0.0,0.0,0.0,0.0,0.0,0.0,0.0,0.0,0.0,0.0,0.0,0.0,0.0,0.0,0.0,0.0,0.0,0.0,0.0,0.0,0.0,0.0,0.0,0.0,0.0,0.0,0.0,0.0,0.0,0.0,0.0,0.0,0.0,5.8547,5.9245,5.9428,6.0015,6.0823,6.163,6.2768,6.4053,6.5044,6.5778,6.6476,6.7467,6.7687,6.7687,6.7687,6.7687,0.0,0.0,6.8458,6.9009,6.9376,0.0,0.0,0.0,0.0,0.0,0.0,0.0,0.0,0.0,0.0,0.0,0.0,0.0,0.0,0.0,0.0,0.0,8.0351,8.1085,8.1819,8.2443,8.3251,8.3654,8.3654,8.4278,8.4682,8.4866,8.4866,8.4939,8.5123,8.5123,8.5123,8.5123,8.5123,0.0,0.0,8.604,8.6444,8.6995,8.6995,8.7132,8.7231,8.7064,8.7132,8.7231,0.0,0.0,0.0,0.0,0.0,0.0,0.0,4.1662,4.247,4.3277,4.3424,4.3497,4.3497,4.3497,4.3497,0.0,0.0,0.0,0.0,0.0,0.0,0.0,0.0,0.0,0.0,0.0,0.0,0.0,0.0,0.0,0.0,0.0,0.0,0.0,0.0,0.0,0.0,0.0,0.0,0.0,0.0,0.0,0.0,0.0,0.0,0.0,0.0,0.0,0.0,0.0,0.0,5.9355,6.0052,6.086,6.163,6.2475,0.0,0.0,6.4897,6.5375,6.5778,6.732,6.7687,6.7687,6.7687,0.0,0.0,6.8641,6.8862,6.9376,7.0807,0.0,0.0,0.0,0.0,7.2496,0.0,0.0,0.0,0.0,0.0,0.0,0.0,0.0,0.0,0.0,0.0,0.0,8.2003,8.2737,8.3214,8.3287,8.4058,8.4499,8.4499,8.4572,8.4976,8.5673,8.5673,8.6077,8.6775,8.6775,8.6775,8.6775,8.6775,0.0,0.0,8.6885,8.6921,8.6995,8.6995,8.7394,8.796,8.7231,8.746,8.7898,0.0,0.0,0.0,0.0,0.0,0.0,4.1001,4.1772,4.258,4.3387,4.3497,4.3497,4.3497,4.3497,4.3497,4.3497,0.0,0.0,0.0,0.0,0.0,0.0,0.0,0.0,0.0,0.0,0.0,0.0,0.0,0.0,0.0,0.0,0.0,0.0,0.0,0.0,0.0,0.0,0.0,0.0,0.0,0.0,0.0,0.0,0.0,0.0,0.0,0.0,0.0,0.0,0.0,0.0,6.0309,6.13,0.0,0.0,6.3172,6.3833,6.5007,6.5668,6.6292,6.7393,6.7687,6.7687,6.7687,0.0,6.7907,6.8752,6.9302,6.9963,7.1101,7.1725,0.0,0.0,0.0,0.0,7.3156,0.0,0.0,0.0,0.0,0.0,0.0,0.0,0.0,0.0,0.0,0.0,8.3654,8.3948,8.4132,8.4132,8.4903,8.5306,8.5306,8.582,8.6224,8.6518,8.6518,8.6701,8.6995,8.6995,8.6995,8.6995,8.746,0.0,0.0,8.7683,8.7683,8.7618,8.7163,8.746,8.7985,8.7298,8.746,8.7985,0.0,0.0,0.0,0.0,0.0,4.0524,4.1332,4.2139,4.2873,4.3424,4.3497,4.3497,4.3497,4.3497,4.3497,4.3497,4.4966,0.0,0.0,0.0,0.0,0.0,0.0,0.0,0.0,0.0,5.205,5.2858,5.3078,0.0,0.0,0.0,0.0,0.0,0.0,0.0,0.0,0.0,0.0,0.0,0.0,0.0,0.0,0.0,0.0,0.0,0.0,0.0,0.0,0.0,0.0,0.0,0.0,0.0,0.0,0.0,6.3246,6.3943,6.5007,6.5705,6.6402,6.743,6.7687,6.7687,0.0,0.0,6.8274,6.9082,6.9889,7.0697,7.1505,7.2129,7.2496,7.2496,7.2496,7.2789,7.3597,7.4404,0.0,0.0,0.0,0.0,0.0,0.0,0.0,0.0,0.0,0.0,0.0,8.5196,8.5196,8.4976,8.5747,8.6151,8.6151,8.6738,8.6995,8.6995,8.7231,8.7328,8.7328,8.7554,8.7646,8.7646,0.0,0.0,0.0,8.8426,8.8426,8.8309,8.7618,8.7861,8.8617,8.7646,8.7773,8.8309,0.0,0.0,0.0,0.0,0.0,0.0,4.2176,4.2947,4.3497,4.3497,4.3497,4.3497,4.3497,4.3497,4.3497,4.3497,4.4966,0.0,0.0,0.0,0.0,0.0,0.0,0.0,0.0,0.0,5.1206,5.2013,5.2821,5.3225,5.3225,0.0,0.0,0.0,0.0,0.0,0.0,0.0,0.0,0.0,0.0,0.0,5.3298,0.0,0.0,0.0,0.0,0.0,0.0,0.0,0.0,0.0,0.0,0.0,0.0,0.0,6.2805,6.3209,6.4861,6.5301,6.5705,6.7283,6.7687,6.7687,0.0,0.0,6.9119,6.9926,7.0734,7.1541,7.2349,7.2496,7.2496,7.2496,7.2496,7.2789,7.3597,7.4404,0.0,0.0,0.0,0.0,0.0,0.0,0.0,0.0,0.0,0.0,0.0,8.6554,8.6628,8.582,8.6591,8.6995,8.6995,8.6995,8.6995,8.6995,8.7709,8.8107,8.8107,8.8746,8.9069,0.0,0.0,0.0,0.0,8.9122,8.9122,8.9016,8.8367,8.891,8.9901,8.8617,8.8503,8.9016,0.0,0.0,0.0,0.0,0.0,0.0,0.0,4.2983,4.3497,4.3497,4.3497,4.3497,4.3497,4.3497,4.3718,4.4268,4.5296,0.0,0.0,0.0,0.0,0.0,0.0,0.0,0.0,0.0,5.0618,5.1977,5.227,5.2674,5.3225,5.3225,5.3225,0.0,0.0,0.0,0.0,0.0,0.0,0.0,0.0,5.3225,5.334,0.0,0.0,0.0,0.0,0.0,0.0,0.0,0.0,0.0,0.0,0.0,0.0,0.0,0.0,0.0,6.5668,6.6109,6.6366,6.743,6.7687,6.7957,6.8901,0.0,0.0,0.0,7.1976,7.2309,7.3538,7.305,7.263,7.305,7.2761,7.2973,7.4331,0.0,0.0,0.0,0.0,0.0,0.0,0.0,0.0,0.0,0.0,0.0,0.0,8.7624,8.7378,8.6628,8.6885,8.7231,8.7709,8.7773,8.7985,8.8409,8.8691,8.8801,8.8801,8.9016,0.0,0.0,0.0,0.0,0.0,8.9809,8.9809,8.9716,8.9069,8.9289,8.999,8.9122,8.891,8.9069,0.0,0.0,0.0,0.0,0.0,0.0,0.0,4.3167,4.3497,4.3497,4.3497,4.3497,4.3497,4.3497,4.3828,4.4635,4.5443,0.0,0.0,0.0,0.0,0.0,0.0,0.0,0.0,4.9407,5.0215,5.1536,5.183,5.2417,5.3225,5.3225,5.3225,5.3225,5.3225,0.0,0.0,0.0,0.0,0.0,5.3225,5.3225,5.3304,0.0,0.0,0.0,0.0,0.0,0.0,0.0,0.0,0.0,0.0,0.0,0.0,0.0,6.5217,6.5366,0.0,6.6814,6.7049,6.8074,6.837,0.0,0.0,0.0,0.0,0.0,0.0,0.0,7.4174,7.3688,7.3327,7.3651,7.3442,7.3729,7.5362,0.0,0.0,0.0,0.0,0.0,0.0,0.0,0.0,0.0,0.0,0.0,0.0,8.8446,8.8309,8.7799,8.7799,8.8009,8.8446,8.8446,8.8729,8.9122,8.9377,8.9476,8.9525,8.9801,0.0,0.0,0.0,0.0,0.0,9.0488,9.0488,9.0447,8.9763,8.9901,9.0447,8.9716,8.9476,8.9476,0.0,0.0,0.0,0.0,0.0,0.0,0.0,4.3497,4.3497,4.3497,4.3497,4.3497,4.3497,4.3497,4.3828,4.4709,0.0,0.0,0.0,0.0,0.0,0.0,0.0,0.0,4.8306,4.9077,4.9884,5.0729,5.1499,5.2344,5.3115,5.3188,5.3225,5.3225,5.3225,5.3225,0.0,0.0,0.0,0.0,5.3225,5.3225,0.0,0.0,0.0,0.0,0.0,0.0,0.0,0.0,0.0,0.0,0.0,0.0,0.0,0.0,0.0,0.0,0.0,6.7448,6.7726,6.9035,0.0,0.0,0.0,0.0,0.0,0.0,0.0,0.0,7.4422,7.4336,7.4293,7.4336,7.4374,7.4935,7.6482,0.0,0.0,0.0,0.0,0.0,0.0,0.0,0.0,0.0,0.0,0.0,0.0,8.9136,8.9136,8.9136,8.9225,8.9187,8.9136,8.9136,8.9225,8.9276,8.9855,9.016,9.0203,9.0876,0.0,0.0,0.0,0.0,0.0,9.121,9.121,9.1136,9.0447,9.0606,9.11,9.0447,9.016,9.0116,0.0,0.0,0.0,0.0,0.0,0.0,0.0,0.0,0.0,0.0,4.3497,4.3497,4.3497,4.3497,4.4048,0.0,0.0,0.0,0.0,0.0,0.0,0.0,0.0,0.0,4.8306,4.8489,4.9003,4.9884,5.0692,5.1499,5.2307,5.2931,5.3225,5.3225,5.3225,5.3225,0.0,0.0,0.0,0.0,5.3225,5.3225,0.0,0.0,0.0,0.0,5.5879,5.6968,0.0,0.0,0.0,0.0,0.0,0.0,0.0,0.0,6.7014,6.7202,6.8943,0.0,6.8988,6.9544,7.006,7.0897,0.0,0.0,0.0,0.0,0.0,0.0,0.0,7.4904,7.4422,7.4866,7.5081,7.5538,7.6557,0.0,0.0,0.0,0.0,0.0,0.0,0.0,0.0,0.0,0.0,0.0,0.0,8.9855,8.9855,8.9855,9.0406,9.0447,8.9855,8.9855,9.0116,9.0723,9.0876,9.0914,9.0952,9.11,0.0,0.0,0.0,0.0,9.121,9.121,9.121,9.121,9.0989,9.1026,9.121,9.0989,9.0606,9.0274,0.0,0.0,0.0,0.0,0.0,0.0,0.0,0.0,0.0,0.0,0.0,4.3497,4.3497,4.3828,0.0,0.0,0.0,0.0,0.0,0.0,0.0,0.0,0.0,4.8306,4.8306,4.8306,4.871,4.9591,5.0398,5.1206,5.2013,5.2821,5.3225,5.3225,5.3225,5.3225,0.0,0.0,0.0,5.3225,5.3225,0.0,0.0,0.0,0.0,0.0,5.5566,5.6781,0.0,5.8223,6.0229,6.2459,0.0,0.0,0.0,0.0,6.7583,6.7926,6.9637,6.9883,6.9853,7.0687,7.1219,7.2016,0.0,0.0,0.0,0.0,0.0,0.0,0.0,0.0,0.0,7.5446,7.5962,7.6884,0.0,0.0,0.0,0.0,0.0,0.0,0.0,0.0,0.0,0.0,0.0,0.0,0.0,9.0606,9.0606,9.0606,9.0989,9.0989,9.0606,9.0606,9.0839,9.121,9.121,9.121,9.121,9.121,9.121,0.0,0.0,0.0,9.121,9.121,9.121,9.121,9.121,9.1441,9.1787,9.1787,9.1759,9.1872,0.0,0.0,0.0,0.0,0.0,0.0,0.0,0.0,0.0,0.0,0.0,0.0,0.0,0.0,0.0,0.0,0.0,0.0,0.0,0.0,0.0,0.0,0.0,4.8306,4.8306,4.8306,4.8673,4.937,5.0325,5.1169,5.183,5.2784,5.3225,5.3225,5.3225,5.3225,0.0,0.0,0.0,5.3225,5.3225,0.0,0.0,0.0,0.0,0.0,0.0,0.0,0.0,5.8577,6.0828,6.3156,6.2297,0.0,0.0,0.0,0.0,0.0,6.9872,7.0195,7.056,7.1909,7.2524,7.3122,0.0,0.0,0.0,0.0,0.0,0.0,0.0,0.0,0.0,0.0,0.0,0.0,0.0,0.0,0.0,0.0,0.0,0.0,0.0,0.0,0.0,0.0,0.0,0.0,0.0,9.121,9.121,9.121,9.121,9.121,9.121,9.121,9.121,9.121,9.121,9.121,9.121,9.121,9.121,0.0,0.0,0.0,9.121,9.121,9.1287,9.1402,9.1402,9.1902,9.2672,9.2672,9.3095,9.371,0.0,0.0,0.0,0.0,0.0,0.0,0.0,0.0,0.0,0.0,0.0,0.0,0.0,0.0,0.0,0.0,0.0,0.0,0.0,0.0,0.0,4.8306,4.8306,4.8306,4.8306,4.8306,4.8379,4.8489,5.0031,5.0875,5.1022,5.2527,5.3225,5.3225,5.3225,5.3225,5.3225,0.0,0.0,5.3225,5.3225,0.0,0.0,0.0,0.0,0.0,0.0,0.0,0.0,5.9062,6.1081,6.3207,6.2642,0.0,0.0,0.0,0.0,0.0,7.0315,7.0777,7.1065,7.2243,7.2946,7.3774,0.0,0.0,0.0,0.0,0.0,0.0,0.0,0.0,0.0,0.0,0.0,0.0,0.0,0.0,0.0,0.0,0.0,0.0,0.0,0.0,0.0,0.0,0.0,0.0,0.0,9.121,9.121,9.121,9.121,9.121,9.121,9.121,9.121,9.121,9.121,9.121,9.121,9.121,9.121,0.0,0.0,9.121,9.121,9.121,9.1633,9.2287,9.2287,9.2787,9.3518,9.3518,9.3595,9.3787,0.0,0.0,0.0,0.0,0.0,0.0,0.0,0.0,0.0,0.0,0.0,0.0,0.0,0.0,0.0,0.0,0.0,0.0,0.0,0.0,4.8306,4.8306,4.8306,4.8306,4.8306,4.8306,4.8306,4.8306,4.9994,5.0802,5.0839,5.2454,5.3225,5.3225,5.3225,5.3225,5.3225,5.3225,5.3225,5.3225,0.0,0.0,0.0,0.0,0.0,0.0,0.0,0.0,0.0,0.0,6.1363,6.3257,6.3065,0.0,0.0,0.0,0.0,0.0,7.0437,7.1245,7.1832,7.2817,7.3292,7.3937,0.0,0.0,0.0,0.0,0.0,0.0,0.0,0.0,0.0,0.0,0.0,0.0,0.0,0.0,0.0,0.0,0.0,0.0,0.0,0.0,0.0,0.0,0.0,0.0,0.0,0.0,9.121,9.121,9.121,9.121,9.121,9.121,9.121,9.121,9.121,9.121,9.121,9.121,9.121,9.1248,0.0,9.1902,9.1941,9.2364,9.2787,9.3133,9.3133,9.3672,9.4441,9.4941,9.5095,9.5172,0.0,0.0,0.0,0.0,0.0,0.0,0.0,0.0,0.0,0.0,0.0,0.0,0.0,0.0,0.0,0.0,0.0,0.0,0.0,0.0,4.8306,4.8306,4.8306,4.8306,4.8306,4.8306,4.8416,4.86,5.0068,5.0986,5.1389,5.2637,5.3225,5.3225,5.3225,5.3225,5.3225,5.3225,5.3225,5.3225,0.0,0.0,0.0,0.0,0.0,0.0,0.0,0.0,0.0,0.0,0.0,0.0,0.0,0.0,0.0,6.7898,6.8398,6.8783,7.0437,7.1552,7.2399,7.3283,0.0,0.0,0.0,0.0,0.0,0.0,0.0,0.0,0.0,0.0,0.0,0.0,0.0,0.0,0.0,0.0,0.0,0.0,0.0,0.0,0.0,0.0,0.0,0.0,0.0,0.0,0.0,0.0,9.121,9.121,9.121,9.121,9.121,9.121,9.121,9.121,9.121,9.121,9.121,9.1402,9.1518,9.1556,9.2402,9.2787,9.2826,9.3441,9.3826,9.398,9.398,9.4518,9.5403,9.6057,9.6288,9.6288,0.0,0.0,0.0,0.0,0.0,0.0,0.0,0.0,0.0,0.0,0.0,0.0,0.0,0.0,0.0,0.0,0.0,0.0,0.0,0.0,4.8306,4.8306,4.8306,4.8306,4.8306,4.8306,4.871,4.9481,5.0362,5.1573,5.3041,5.3151,5.3225,5.3225,5.3225,5.3225,5.3225,5.3225,5.3225,5.3225,5.3225,0.0,0.0,0.0,0.0,0.0,0.0,0.0,0.0,0.0,0.0,0.0,0.0,0.0,6.6244,6.7898,6.8398,6.8783,7.0437,7.1552,0.0,0.0,0.0,0.0,0.0,0.0,0.0,0.0,0.0,0.0,0.0,0.0,0.0,0.0,0.0,0.0,0.0,0.0,0.0,0.0,0.0,0.0,0.0,0.0,0.0,0.0,0.0,0.0,0.0,0.0,0.0,9.121,9.121,9.121,9.121,9.121,9.121,9.121,9.121,9.121,9.1248,9.2056,9.2402,9.2441,9.3249,9.3595,9.3633,9.3672,9.4172,9.4903,9.4903,9.5441,9.6211,9.6288,9.6288,9.6288,0.0,0.0,0.0,0.0,0.0,0.0,0.0,0.0,0.0,0.0,0.0,0.0,0.0,0.0,0.0,0.0,0.0,0.0,0.0,4.8306,4.8306,4.8306,4.8306,4.8563,4.9077,4.9114,4.926,4.9591,5.0912,5.2123,5.3225,5.3225,5.3225,5.3225,5.3225,5.3225,5.3225,5.3225,5.3225,5.3225,5.3225,5.3359,0.0,0.0,0.0,0.0,0.0,0.0,0.0,0.0,6.1897,6.332,6.332,6.4512,6.6244,6.7898,6.8398,6.8783,7.0437,7.1937,0.0,0.0,0.0,0.0,0.0,0.0,0.0,0.0,0.0,0.0,0.0,0.0,0.0,0.0,0.0,0.0,0.0,0.0,0.0,0.0,0.0,0.0,0.0,0.0,0.0,0.0,0.0,0.0,0.0,0.0,0.0,9.121,9.121,9.121,9.121,9.1748,9.2018,9.2018,9.2018,9.2018,9.2056,9.2864,9.3249,9.3287,9.4134,9.4518,9.4557,9.5095,9.5518,9.5826,9.5826,9.6019,9.6288,9.6288,9.6288,9.6288,0.0,0.0,0.0,0.0,0.0,0.0,0.0,0.0,0.0,0.0,0.0,0.0,0.0,0.0,0.0,0.0,0.0,0.0,4.8306,4.8306,4.8306,4.8306,4.8563,4.8967,4.9591,5.0068,5.0362,5.0362,5.172,5.2674,5.3225,5.3225,5.3225,5.3225,5.3225,5.3225,5.3225,5.3225,5.3272,5.34,5.34,5.3643,0.0,0.0,0.0,0.0,0.0,0.0,0.0,0.0,6.1897,6.332,6.332,6.4512,6.6244,6.7898,6.8398,6.8783,7.0437,7.2168,0.0,0.0,0.0,0.0,0.0,0.0,0.0,0.0,0.0,0.0,0.0,0.0,0.0,0.0,0.0,0.0,0.0,0.0,0.0,0.0,0.0,0.0,0.0,0.0,0.0,0.0,0.0,0.0,0.0,0.0,0.0,0.0,9.121,9.1325,9.1595,9.221,9.2633,9.2864,9.3172,9.3133,9.2903,9.371,9.4095,9.4172,9.5018,9.5403,9.5441,9.6057,9.6288,9.6288,9.6288,9.6288,9.6288,9.6288,9.6288,9.6288,0.0,0.0,0.0,0.0,0.0,0.0,0.0,0.0,0.0,0.0,0.0,0.0,0.0,0.0,0.0,0.0,0.0,0.0,4.8306,4.8306,4.8306,4.8306,4.9114,4.9591,4.9591,5.1169,5.2013,5.2013,5.2821,5.3225,5.3225,5.3225,5.3225,5.3225,5.3225,5.3225,5.3225,5.3225,5.3404,5.3795,5.3795,5.4083,5.4547,0.0,0.0,0.0,0.0,0.0,0.0,0.0,6.1897,6.332,6.332,6.4512,6.6244,6.7898,6.8398,6.8783,7.0475,7.2168,0.0,0.0,0.0,0.0,0.0,0.0,0.0,0.0,0.0,0.0,0.0,0.0,0.0,0.0,0.0,0.0,0.0,0.0,0.0,0.0,0.0,0.0,0.0,0.0,0.0,0.0,0.0,0.0,0.0,0.0,0.0,0.0,9.121,9.1633,9.2479,9.2518,9.2903,9.371,9.4595,9.4557,9.3749,9.4595,9.5018,9.5057,9.5942,9.6288,9.6288,9.6288,9.6288,9.6288,9.6288,9.6288,9.6288,9.6288,9.6288,9.6288,0.0,0.0,0.0,0.0,0.0,0.0,0.0,0.0,0.0,0.0,0.0,0.0,0.0,0.0,0.0,0.0,0.0,0.0,4.8709,4.8458,4.8563,4.9187,4.9444,5.0105,5.1242,5.2307,5.2858,5.2858,5.3078,5.3225,5.3225,5.3225,5.3225,5.3225,5.3225,5.3359,5.3604,5.3318,5.3404,5.3795,5.3795,5.4083,5.4547,0.0,0.0,0.0,0.0,0.0,0.0,0.0,0.0,0.0,6.332,6.4897,6.6974,6.809,6.8821,6.9667,7.136,0.0,0.0,0.0,0.0,0.0,0.0,0.0,0.0,0.0,0.0,0.0,0.0,0.0,0.0,0.0,0.0,0.0,0.0,0.0,0.0,0.0,0.0,0.0,0.0,0.0,0.0,0.0,0.0,0.0,0.0,0.0,0.0,0.0,9.1787,9.2249,9.2479,9.3672,9.4364,9.4595,9.548,9.5441,9.4634,9.5518,9.5903,9.5942,9.6172,9.6288,9.6288,9.6288,9.6288,9.6288,9.6288,9.6288,9.6288,9.6288,9.6288,9.6288,0.0,0.0,0.0,0.0,0.0,0.0,0.0,0.0,0.0,0.0,0.0,0.0,0.0,0.0,0.0,0.0,0.0,0.0,0.0,4.8974,4.9266,5.0267,5.0444,5.1132,5.2454,5.2968,5.3225,5.3225,5.3225,5.3225,5.3225,5.3225,5.3225,5.3225,5.3225,5.3318,5.3526,5.3277,5.3404,5.3795,5.4013,5.4355,5.4798,0.0,0.0,0.0,0.0,0.0,0.0,0.0,0.0,0.0,6.3705,6.532,6.7282,6.8129,6.9013,7.0052,7.1745,0.0,0.0,0.0,0.0,0.0,0.0,0.0,0.0,0.0,0.0,0.0,0.0,0.0,0.0,0.0,0.0,0.0,0.0,0.0,0.0,0.0,0.0,0.0,0.0,0.0,0.0,0.0,0.0,0.0,0.0,0.0,0.0,0.0,9.221,9.2826,9.348,9.448,9.5172,9.5518,9.6057,9.6019,9.5518,9.6057,9.6288,9.6288,9.6288,9.6288,9.6288,9.6288,9.6288,9.6288,9.6288,9.6288,9.6288,9.6288,9.6288,9.6288,0.0,0.0,0.0,0.0,0.0,0.0,0.0,0.0,0.0,0.0,0.0,0.0,0.0,0.0,0.0,0.0,0.0,0.0,0.0,0.0,5.0304,5.1448,5.1931,5.25,5.3272,5.3188,5.3225,5.3225,5.3225,5.3225,5.3225,5.3225,5.3225,5.3225,5.3225,5.3188,5.3272,5.3272,5.3484,5.3905,5.4355,5.4798,5.5351,5.6552,0.0,0.0,0.0,0.0,0.0,0.0,0.0,0.0,6.432,6.5782,6.7359,6.8167,6.909,7.0167,0.0,0.0,0.0,0.0,0.0,0.0,0.0,0.0,0.0,0.0,0.0,0.0,0.0,0.0,0.0,0.0,0.0,0.0,0.0,0.0,0.0,0.0,0.0,0.0,0.0,0.0,0.0,0.0,0.0,0.0,0.0,0.0,0.0,9.2479,9.2633,9.3441,9.498,9.5057,9.5518,0.0,9.6288,9.6288,9.6288,9.6288,9.6288,9.6288,9.6288,9.6288,9.6288,9.6288,9.6288,9.6288,9.6288,9.6288,9.6288,9.6288,9.6288,9.6288,0.0,0.0,0.0,0.0,0.0,0.0,0.0,0.0,0.0,0.0,0.0,0.0,0.0,0.0,0.0,0.0,0.0,0.0,0.0,0.0,5.1414,5.2304,5.3014,5.3497,5.3644,5.3359,5.3225,5.3225,5.3225,5.3225,5.3225,5.3225,5.3225,5.3225,5.3225,5.34,5.3644,5.3644,5.3905,5.4387,5.479,5.5434,5.6191,5.6783,5.7819,0.0,0.0,0.0,0.0,0.0,0.0,0.0,6.432,6.6205,6.8167,6.8359,6.9475,7.1014,0.0,0.0,0.0,0.0,0.0,0.0,0.0,0.0,0.0,0.0,0.0,0.0,0.0,0.0,0.0,0.0,0.0,0.0,0.0,0.0,0.0,0.0,0.0,0.0,0.0,0.0,0.0,0.0,0.0,0.0,0.0,0.0,0.0,9.2479,9.3787,9.4634,9.498,9.5672,9.6095,0.0,9.6288,9.6288,9.6288,9.6288,9.6288,9.6288,9.6288,9.6288,9.6288,9.6288,9.6288,9.6288,9.6288,9.6288,9.6288,9.6288,9.6288,9.6288,0.0,0.0,0.0,0.0,0.0,0.0,0.0,0.0,0.0,0.0,0.0,0.0,0.0,0.0,0.0,0.0,0.0,0.0,0.0,0.0,5.2514,5.3161,5.3788,5.4013,5.3795,5.344,5.3314,5.3484,5.3314,5.3225,5.3188,5.34,5.34,5.3225,5.34,5.3604,5.3795,5.3795,5.4308,5.5114,5.5541,5.624,5.7069,5.7858,5.8742,5.955,5.9973,0.0,0.0,0.0,0.0,0.0,0.0,0.0,6.8398,6.8398,6.959,7.1283,0.0,0.0,0.0,0.0,0.0,0.0,0.0,0.0,0.0,0.0,0.0,0.0,0.0,0.0,0.0,0.0,0.0,0.0,0.0,0.0,0.0,0.0,0.0,0.0,0.0,0.0,0.0,0.0,0.0,0.0,0.0,9.2018,9.2672,9.3056,9.4326,9.5211,9.5634,9.6057,9.6288,9.6288,9.6288,9.6288,9.6288,9.6288,9.6288,9.6288,9.6288,9.6288,9.6288,9.6288,9.6288,9.6288,9.6288,9.6288,9.6288,9.6288,9.6288,9.6288,0.0,0.0,0.0,0.0,0.0,0.0,0.0,0.0,0.0,0.0,0.0,0.0,0.0,0.0,0.0,0.0,0.0,0.0,0.0,0.0,0.0,5.4011,5.4322,5.4322,5.3905,5.3444,5.34,5.3795,5.3484,0.0,0.0,0.0,5.3604,5.344,5.3683,5.3832,5.3943,5.4163,5.4852,5.5882,5.6491,5.7199,5.8028,5.911,5.9588,5.9858,6.0704,6.1473,6.2243,6.3205,0.0,0.0,0.0,0.0,6.8436,6.859,6.9821,7.1475,0.0,0.0,0.0,0.0,0.0,0.0,0.0,0.0,0.0,0.0,0.0,0.0,0.0,0.0,0.0,0.0,0.0,0.0,0.0,0.0,0.0,0.0,0.0,0.0,0.0,0.0,0.0,0.0,0.0,0.0,9.1441,9.2249,9.3095,9.3903,9.4749,9.5557,9.6288,9.6288,9.6288,9.6288,9.6288,9.6288,9.6288,9.6288,9.6288,9.6288,9.6288,9.6288,9.6288,9.6288,9.6288,9.6288,9.6288,9.6288,9.6288,9.6288,9.6288,9.6288,0.0,0.0,0.0,0.0,0.0,0.0,0.0,0.0,0.0,0.0,0.0,0.0,0.0,0.0,0.0,0.0,0.0,0.0,0.0,0.0,0.0,5.4933,5.464,5.4452,5.4387,5.3641,5.34,5.3795,0.0,0.0,0.0,0.0,0.0,5.4288,5.3941,5.4013,5.4495,5.5586,5.614,5.6415,5.7555,5.8519,5.9273,5.945,5.9973,6.0742,6.1589,6.1973,6.232,6.3897,6.4512,0.0,0.0,0.0,6.8552,6.9321,7.0706,0.0,0.0,0.0,0.0,0.0,0.0,0.0,0.0,0.0,0.0,0.0,0.0,0.0,0.0,0.0,0.0,0.0,0.0,0.0,0.0,0.0,0.0,0.0,0.0,0.0,0.0,0.0,0.0,0.0,0.0,0.0,9.2287,9.3095,9.3941,9.4788,9.5672,9.6172,9.6288,9.6288,9.6288,9.6288,9.6288,9.6288,9.6288,9.6288,9.6288,9.6288,9.6288,9.6288,9.6288,9.6288,9.6288,9.6288,9.6288,9.6288,9.6288,9.6288,9.6288,9.6288,0.0,0.0,0.0,0.0,0.0,0.0,0.0,0.0,0.0,0.0,0.0,0.0,0.0,0.0,0.0,0.0,0.0,0.0,0.0,0.0,0.0,5.5107,5.4905,5.4819,5.4819,5.3977,5.387,5.451,0.0,0.0,0.0,5.405,5.4015,0.0,0.0,0.0,5.5607,5.6158,5.7072,5.8169,5.8773,5.9473,6.0242,6.0242,6.0781,6.1589,6.1935,6.2704,6.3589,6.4359,6.4936,6.5551,6.6744,0.0,0.0,0.0,0.0,0.0,0.0,0.0,0.0,0.0,0.0,0.0,0.0,0.0,0.0,0.0,0.0,0.0,0.0,0.0,0.0,0.0,0.0,0.0,0.0,0.0,0.0,0.0,0.0,0.0,0.0,0.0,0.0,0.0,0.0,9.1595,9.2441,9.3249,9.4095,9.498,9.5865,9.6288,9.6288,9.6288,9.6288,9.6288,9.6288,9.6288,9.6288,9.6288,9.6288,9.6288,9.6288,9.6288,9.6288,9.6288,9.6288,9.6288,9.6288,9.6288,9.6288,9.6288,9.6288,9.6365,0.0,0.0,0.0,0.0,0.0,0.0,0.0,0.0,0.0,0.0,0.0,0.0,0.0,0.0,0.0,0.0,0.0,0.0,0.0,0.0,0.0,5.5134,5.5107,5.5107,5.5107,5.435,5.4317,0.0,0.0,0.0,5.4933,5.5076,5.4881,0.0,5.5122,0.0,0.0,0.0,0.0,5.9511,5.9742,6.0358,6.1127,6.1127,6.1666,6.2435,6.2666,6.3551,6.4628,6.4859,6.5513,6.6359,6.7167,6.8013,0.0,0.0,0.0,0.0,0.0,0.0,0.0,0.0,0.0,0.0,0.0,0.0,0.0,0.0,0.0,0.0,0.0,0.0,0.0,0.0,0.0,0.0,0.0,0.0,0.0,0.0,0.0,0.0,0.0,0.0,0.0,0.0,0.0,9.1672,9.2749,9.3364,9.421,9.5288,9.5942,9.6288,9.6288,9.6288,9.6288,9.6288,9.6288,9.6288,9.6288,9.6288,9.6288,9.6288,9.6288,9.6288,9.6288,9.6288,9.6288,9.6288,9.6288,9.6288,9.6288,9.6288,9.6442,9.6711,0.0,0.0,0.0,0.0,0.0,0.0,0.0,0.0,0.0,0.0,0.0,0.0,0.0,0.0,5.4741,5.5549,0.0,0.0,0.0,0.0,0.0,5.5134,5.5107,0.0,5.5107,5.4671,0.0,0.0,0.0,0.0,5.4585,5.6129,5.6649,5.6262,5.6289,5.7035,5.8258,0.0,0.0,0.0,6.0396,6.1243,6.2012,6.2012,6.2512,6.3358,6.4166,0.0,6.4743,6.5551,6.6359,6.7167,0.0,0.0,0.0,0.0,0.0,0.0,0.0,0.0,0.0,0.0,0.0,0.0,0.0,0.0,0.0,0.0,0.0,0.0,0.0,0.0,0.0,0.0,0.0,0.0,0.0,0.0,0.0,0.0,0.0,0.0,0.0,0.0,0.0,0.0,9.121,9.1902,9.3557,9.3672,9.448,9.6172,9.6288,9.6288,9.6288,9.6288,9.6288,9.6288,9.6288,9.6288,9.6288,9.6288,9.6288,9.6288,9.6288,9.6288,9.6288,9.6288,9.6288,9.6288,9.6288,9.6288,9.6288,9.6288,9.6788,9.7442,0.0,0.0,0.0,0.0,0.0,0.0,0.0,0.0,0.0,0.0,0.0,0.0,0.0,5.528,5.5395,5.5665,5.5703,0.0,0.0,0.0,0.0,5.547,5.5508,5.5508,5.5508,5.5107,0.0,0.0,0.0,5.5427,5.6104,5.6729,5.7505,5.8347,5.7848,5.815,5.9088,5.9396,0.0,0.0,6.1281,6.182,6.2166,6.2666,0.0,0.0,0.0,0.0,0.0,0.0,0.0,0.0,0.0,0.0,0.0,0.0,0.0,0.0,0.0,0.0,0.0,0.0,0.0,0.0,0.0,0.0,0.0,0.0,0.0,0.0,0.0,0.0,0.0,0.0,0.0,0.0,0.0,0.0,0.0,0.0,0.0,0.0,0.0,0.0,0.0,0.0,0.0,9.1941,9.3595,9.371,9.448,9.6249,9.6288,9.6288,9.6288,9.6288,9.6288,9.6288,9.6288,9.6288,9.6288,9.6288,9.6288,9.6288,9.6288,9.6288,9.6288,9.6288,9.6288,9.6288,9.6288,9.6288,9.6365,9.6865,9.725,9.7673,0.0,0.0,0.0,0.0,0.0,0.0,0.0,0.0,0.0,0.0,0.0,0.0,0.0,0.0,5.5703,5.5703,5.5703,5.5703,5.5703,5.5703,5.5703,5.5703,5.5703,5.5703,5.5703,5.5423,0.0,0.0,0.0,0.0,0.0,5.7588,5.8434,5.9473,5.9242,5.9435,0.0,0.0,0.0,6.132,0.0,6.2666,6.3012,0.0,0.0,0.0,0.0,0.0,0.0,0.0,0.0,0.0,0.0,0.0,0.0,0.0,0.0,0.0,0.0,0.0,0.0,0.0,0.0,0.0,0.0,0.0,0.0,0.0,0.0,0.0,0.0,0.0,0.0,0.0,0.0,0.0,0.0,0.0,0.0,0.0,0.0,0.0,0.0,0.0,0.0,0.0,0.0,0.0,9.3595,9.371,9.448,9.6249,9.6288,9.6288,9.6288,9.6288,9.6288,9.6288,9.6288,9.6288,9.6288,9.6288,9.6288,9.6288,9.6288,9.6288,9.6288,9.6288,9.6288,9.6288,9.6288,9.648,9.6788,9.7288,9.7865,9.8519,0.0,0.0,0.0,0.0,0.0,0.0,0.0,0.0,0.0,0.0,0.0,0.0,0.0,0.0,0.0,5.5703,5.5703,5.5703,5.5703,5.5703,5.5703,5.5703,5.5703,5.5703,5.5742,5.5742,0.0,0.0,0.0,0.0,0.0,0.0,5.9511,5.9588,6.0435,6.0819,6.0896,0.0,6.2089,6.2204,0.0,6.3858,6.4589,0.0,0.0,0.0,6.5936,6.6436,0.0,0.0,0.0,0.0,0.0,0.0,0.0,0.0,0.0,0.0,0.0,0.0,0.0,0.0,0.0,0.0,0.0,0.0,0.0,0.0,0.0,0.0,0.0,0.0,0.0,0.0,0.0,0.0,0.0,0.0,0.0,0.0,0.0,0.0,0.0,0.0,0.0,0.0,9.121,9.1941,9.3595,9.3749,9.4557,9.6249,9.6288,9.6288,9.6288,9.6288,9.6288,9.6288,9.6288,9.6288,9.6288,9.6288,9.6288,9.6288,9.6288,9.6288,9.6288,9.6288,9.6288,9.6288,9.6288,9.6788,9.7519,9.7519,9.8634,10.0096,0.0,0.0,0.0,0.0,0.0,0.0,5.5241,0.0,0.0,0.0,0.0,0.0,0.0,0.0,5.5703,5.5703,5.5703,5.5703,5.5703,5.5703,5.5703,5.5703,5.5703,5.6011,5.6626,5.6626,5.6934,0.0,0.0,5.8242,5.8819,5.9281,0.0,0.0,6.1358,6.1743,6.1743,6.1973,0.0,0.0,6.3897,6.4397,0.0,0.0,0.0,0.0,0.0,6.7321,0.0,0.0,6.8783,6.9821,0.0,0.0,0.0,0.0,0.0,0.0,7.5745,0.0,0.0,0.0,0.0,0.0,0.0,0.0,0.0,0.0,0.0,0.0,0.0,0.0,0.0,0.0,0.0,0.0,0.0,0.0,0.0,0.0,0.0,0.0,0.0,0.0,0.0,0.0,9.121,9.1941,9.3595,9.4903,9.5788,9.6288,9.6288,9.6288,9.6288,9.6288,9.6288,9.6288,9.6288,9.6288,9.6288,9.6288,9.6288,9.6288,9.6288,9.6288,9.6288,9.6288,9.6288,9.6288,9.6288,9.6788,9.7596,9.8211,9.9135,10.0173,0.0,0.0,0.0,0.0,0.0,5.5164,5.5626,5.5703,5.5703,0.0,0.0,0.0,0.0,0.0,5.6242,5.6242,5.6549,5.678,5.678,5.678,5.678,5.678,5.678,5.7011,5.7511,5.755,5.778,5.8319,5.8627,5.905,5.9511,6.0242,6.0858,0.0,0.0,0.0,0.0,0.0,0.0,0.0,6.4782,0.0,0.0,6.609,6.6667,0.0,0.0,0.0,6.8936,6.8936,6.9513,0.0,0.0,0.0,0.0,0.0,0.0,0.0,0.0,0.0,0.0,0.0,0.0,0.0,7.6015,7.7053,0.0,0.0,0.0,0.0,0.0,0.0,0.0,0.0,0.0,0.0,0.0,0.0,0.0,0.0,0.0,0.0,0.0,9.121,9.121,9.121,9.121,9.1941,9.3595,9.5365,9.6288,9.6288,9.6288,9.6288,9.6288,9.6288,9.6288,9.6288,9.6288,9.6288,9.6288,9.6288,9.6288,9.6288,9.6288,9.6288,9.6288,9.6288,9.6288,9.6326,9.6673,9.7326,9.8134,9.9019,9.9865,10.0712,0.0,0.0,5.4857,5.5588,5.5703,5.5703,5.5703,5.5703,5.5703,0.0,0.0,0.0,0.0,0.0,0.0,5.7126,5.7857,5.8319,5.8319,5.8319,5.8319,5.8319,5.8319,5.8357,5.8434,5.8434,5.8473,5.8588,5.9281,5.9704,5.9819,6.1358,6.2127,6.2281,0.0,0.0,0.0,0.0,0.0,6.4936,6.5705,6.6013,0.0,0.0,6.7282,0.0,6.8359,6.9244,6.9975,7.009,7.0591,0.0,0.0,0.0,0.0,0.0,7.5322,0.0,0.0,0.0,0.0,0.0,0.0,0.0,7.6015,7.6746,7.763,0.0,0.0,0.0,0.0,0.0,0.0,0.0,0.0,0.0,0.0,0.0,0.0,0.0,0.0,0.0,9.121,9.121,9.121,9.121,9.1287,9.2018,9.3633,9.5249,9.6211,9.6288,9.6288,9.6288,9.6288,9.6288,9.6288,9.6288,9.6288,9.6288,9.6288,9.6288,9.6288,9.6288,9.6288,9.6288,9.6288,9.6288,9.6288,9.6365,9.7211,9.8019,9.8904,9.9788,10.0596,10.1289,0.0,0.0,5.5511,5.5665,5.5703,5.5703,5.5703,5.5703,5.5703,0.0,0.0,0.0,0.0,0.0,0.0,5.805,5.8204,5.8319,5.8319,5.8319,5.8319,5.8319,5.8319,5.8588,5.9242,5.9281,5.9627,6.0319,6.0473,6.0896,6.1589,6.1935,6.2435,6.3089,0.0,0.0,0.0,0.0,0.0,6.6628,6.6782,0.0,6.6974,6.7821,6.859,6.9283,7.0129,7.0975,7.1822,0.0,7.286,7.3014,0.0,0.0,0.0,0.0,0.0,0.0,0.0,0.0,0.0,0.0,0.0,0.0,7.6015,7.7169,7.8284,0.0,0.0,0.0,0.0,0.0,0.0,0.0,0.0,0.0,0.0,0.0,0.0,0.0,0.0,0.0,9.121,9.121,9.121,9.121,9.1864,9.2672,9.3633,9.4672,9.5557,9.6288,9.6288,9.6288,9.6288,9.6288,9.6288,9.6288,9.6288,9.6288,9.6288,9.6288,9.6288,9.6288,9.6288,9.6288,9.6288,9.6288,9.6288,9.6365,9.7211,9.8019,9.8904,9.9788,10.0596,10.1289,5.5703,0.0,5.5703,5.5703,5.5703,5.5703,5.5703,5.6049,5.6357,0.0,0.0,0.0,0.0,0.0,0.0,0.0,5.9319,5.955,5.955,5.955,5.955,5.955,5.955,5.9742,6.0127,6.0165,6.0589,6.1435,6.1435,6.1858,6.2704,6.3128,6.3551,6.4012,0.0,0.0,0.0,0.0,6.7359,6.7744,6.7744,0.0,6.7898,6.9167,6.9937,7.0475,7.1745,7.2476,7.2937,7.336,7.3514,0.0,0.0,7.4399,7.4784,0.0,7.5668,7.6015,0.0,0.0,0.0,7.6015,0.0,0.0,0.0,7.6976,7.8015,7.84,7.9554,8.0823,8.2054,0.0,0.0,0.0,0.0,0.0,0.0,0.0,0.0,0.0,0.0,0.0,9.121,9.121,9.121,9.121,9.2018,9.2864,9.3672,9.4518,9.5403,9.6288,9.6288,9.6288,9.6288,9.6288,9.6288,9.6288,9.6288,9.6288,9.6288,9.6288,9.6288,9.6288,9.6288,9.6288,9.6288,9.6288,9.6288,9.6442,9.7673,9.8404,9.8942,10.0212,10.0981,10.1289,0.0,0.0,0.0,5.5703,5.5818,5.5934,5.5934,5.6703,0.0,0.0,0.0,0.0,0.0,0.0,0.0,0.0,0.0,6.1127,0.0,0.0,6.1281,6.1281,6.1281,6.1281,6.1281,6.1281,6.1627,6.232,6.232,6.2743,6.3589,6.4282,6.4782,0.0,0.0,0.0,0.0,0.0,0.0,6.8667,0.0,6.9052,6.9052,7.0552,7.1245,7.1629,7.3168,7.386,7.3976,7.3976,0.0,7.4091,7.4745,7.4938,0.0,0.0,0.0,0.0,0.0,0.0,0.0,0.0,0.0,7.6015,0.0,0.0,0.0,7.8323,7.9208,0.0,0.0,0.0,0.0,0.0,0.0,0.0,0.0,8.8363,0.0,9.0825,0.0,0.0,9.121,9.121,9.121,9.121,9.1864,9.2595,9.3441,9.4287,9.5134,9.6019,9.6211,9.6288,9.6288,9.6288,9.6288,9.6288,9.6288,9.6288,9.6288,9.6288,9.6288,9.6288,9.6288,9.6288,9.6288,9.6288,9.6403,9.6673,9.8211,9.8788,9.8981,10.0712,10.1289,10.1289,5.5703,5.5703,0.0,0.0,5.6319,5.6857,5.6857,5.7588,0.0,0.0,0.0,0.0,0.0,0.0,0.0,0.0,0.0,0.0,6.2974,0.0,0.0,6.3012,6.3012,6.3012,6.3012,6.3012,6.3051,6.3166,6.3166,6.3628,6.4436,6.4551,6.5397,0.0,6.6898,0.0,0.0,0.0,6.9475,0.0,7.1168,7.1321,0.0,7.1668,7.2514,7.3322,7.4245,7.5053,7.5707,0.0,7.5707,7.5745,0.0,7.5861,0.0,0.0,0.0,0.0,0.0,0.0,0.0,0.0,7.6015,0.0,0.0,0.0,7.7515,7.8323,0.0,0.0,0.0,0.0,0.0,0.0,0.0,0.0,8.517,8.6632,8.8286,8.9863,9.0748,0.0,0.0,9.121,9.121,9.121,9.1287,9.171,9.2595,9.3403,9.4249,9.5095,9.5903,9.6288,9.6288,9.6288,9.6288,9.6288,9.6288,9.6288,9.6288,9.6288,9.6288,9.6288,9.6288,9.6288,9.6288,9.6288,9.6711,9.7442,9.8404,9.8788,9.8981,10.0712,10.1289,10.1289,5.5895,0.0,0.0,0.0,5.7165,5.7742,5.7742,5.8473,5.9473,0.0,0.0,0.0,0.0,0.0,0.0,0.0,0.0,6.2935,0.0,0.0,0.0,6.332,6.332,6.332,6.332,6.332,6.3551,6.4051,6.4051,6.4743,6.6051,6.6051,6.6705,0.0,6.7859,0.0,6.9167,0.0,0.0,0.0,0.0,0.0,0.0,7.3514,7.4207,7.4976,7.5322,7.5707,7.6015,0.0,7.6015,0.0,0.0,0.0,0.0,0.0,0.0,0.0,0.0,0.0,0.0,0.0,0.0,0.0,7.6015,0.0,7.7515,0.0,0.0,0.0,0.0,0.0,0.0,0.0,8.3555,0.0,0.0,0.0,8.8017,0.0,0.0,0.0,0.0,0.0,0.0,0.0,9.121,9.1595,9.2441,9.3249,9.4095,9.498,9.5865,9.6288,9.6288,9.6288,9.6288,9.6288,9.6288,9.6288,9.6288,9.6288,9.6288,9.6288,9.6288,9.6288,9.6288,9.6288,9.6788,9.7596,9.8442,9.9096,9.9712,10.0904,10.1289,10.1289,5.6665,0.0,0.0,0.0,0.0,5.8781,5.9281,5.9858,0.0,0.0,0.0,0.0,6.3243,6.332,0.0,0.0,0.0,6.3782,0.0,0.0,6.4012,0.0,0.0,0.0,0.0,6.4012,6.4436,6.5282,6.5282,6.6013,6.7475,6.7475,6.7936,6.8783,0.0,6.936,7.0398,0.0,0.0,7.2591,7.2783,7.3745,7.5053,7.5053,7.5438,7.6015,7.6015,7.6015,7.6015,7.6015,7.6015,0.0,7.6015,0.0,0.0,0.0,0.0,0.0,7.6015,0.0,0.0,0.0,0.0,0.0,0.0,0.0,0.0,0.0,0.0,0.0,0.0,0.0,0.0,0.0,0.0,8.4209,0.0,8.5632,0.0,0.0,0.0,0.0,0.0,0.0,0.0,0.0,0.0,9.1479,9.2095,9.2903,9.3749,9.4595,9.548,9.6057,9.6288,9.6288,9.6288,9.6288,9.6288,9.6288,9.6288,9.6288,9.6288,9.6288,9.6288,9.6288,9.6288,9.6288,9.6903,9.7904,9.8557,9.9481,10.0481,10.1096,10.1289,10.1289,5.8242,5.8242,0.0,0.0,0.0,0.0,0.0,0.0,0.0,0.0,0.0,0.0,0.0,0.0,0.0,0.0,0.0,6.4936,6.5743,0.0,6.582,0.0,0.0,6.582,0.0,6.582,6.6205,6.7013,6.7013,6.7475,6.8359,6.8359,6.8821,6.9667,0.0,7.0552,7.2129,7.2129,7.2629,7.3553,7.4322,7.5168,7.5976,0.0,7.5976,7.6015,7.6015,0.0,0.0,7.6015,7.6015,0.0,0.0,0.0,0.0,0.0,0.0,0.0,0.0,0.0,0.0,7.6015,0.0,0.0,0.0,0.0,7.7784,0.0,0.0,0.0,0.0,0.0,0.0,0.0,0.0,0.0,0.0,0.0,0.0,0.0,0.0,0.0,0.0,9.071,9.121,0.0,9.121,0.0,9.1248,9.2056,9.2903,9.371,9.4595,9.5441,9.6288,9.6288,9.6288,9.6288,9.6288,9.6288,9.6288,9.6288,9.6288,9.6288,9.6288,9.6288,9.6288,9.6288,9.7288,9.875,9.8788,9.9827,10.1289,10.1289,10.1289,10.1289,0.0,0.0,0.0,0.0,0.0,0.0,0.0,6.2897,0.0,0.0,0.0,0.0,0.0,0.0,6.6859,0.0,0.0,6.7244,6.7552,6.7552,0.0,0.0,0.0,6.7552,0.0,0.0,6.7705,6.7975,6.7975,6.8398,6.9244,6.9244,6.9706,7.0514,0.0,7.1668,0.0,0.0,0.0,0.0,0.0,7.5745,7.6015,0.0,0.0,7.6015,7.6015,7.6015,0.0,7.6669,7.6861,7.6938,7.7476,7.763,7.763,7.763,7.763,0.0,0.0,0.0,7.763,7.763,0.0,0.0,0.0,0.0,0.0,0.0,0.0,0.0,0.0,0.0,0.0,0.0,0.0,0.0,0.0,0.0,0.0,0.0,0.0,0.0,0.0,0.0,0.0,0.0,9.121,0.0,9.121,9.2018,9.2864,9.3672,9.4557,9.5403,9.6288,9.6288,9.6288,9.6288,9.6288,9.6288,9.6288,9.6288,9.6288,9.6288,9.6288,9.6288,9.6326,9.6865,9.7788,9.8865,9.9442,10.0289,10.1289,10.1289,10.1289,10.1289,6.1704,0.0,0.0,0.0,0.0,0.0,0.0,0.0,0.0,0.0,6.6153,0.0,6.8257,0.0,6.917,0.0,6.9475,6.936,6.9283,6.9013,0.0,6.8859,6.859,0.0,0.0,0.0,6.8552,6.8859,6.8859,6.9321,7.0129,7.0129,7.0552,7.1398,0.0,0.0,0.0,0.0,7.4399,0.0,0.0,7.6207,0.0,0.0,7.6476,7.6515,0.0,7.6899,7.6976,7.7553,7.7707,7.7823,7.8323,7.8477,7.8477,7.8477,7.8477,7.8477,7.8477,7.8477,0.0,7.8477,7.8477,0.0,7.89,0.0,0.0,0.0,0.0,0.0,0.0,0.0,0.0,0.0,0.0,0.0,0.0,8.4439,0.0,0.0,0.0,0.0,0.0,0.0,9.0556,9.1171,9.0902,9.0864,0.0,0.0,9.2402,9.3249,9.4095,9.4941,9.5826,9.6134,9.6288,9.6288,9.6288,9.6288,9.6288,9.6288,9.6288,9.6288,9.6288,9.6288,9.6365,9.7173,9.8019,9.8904,9.975,10.0596,10.1289,10.1289,10.1289,10.1289,0.0,0.0,0.0,0.0,6.2897,0.0,0.0,0.0,6.5538,0.0,6.7744,6.85,7.0144,7.0368,7.0649,7.13,7.131,0.0,7.1052,7.0321,0.0,0.0,6.909,6.8667,6.8667,0.0,0.0,0.0,6.9898,7.0283,7.1014,7.1014,7.1475,7.2283,7.2322,0.0,7.4707,7.4745,7.5284,7.6053,7.6053,7.6592,7.7361,7.74,7.74,7.7515,7.8246,7.8477,7.8515,7.8554,7.8554,7.8554,7.8631,7.8631,7.8631,7.8631,7.8631,7.8631,7.8631,7.8631,7.8631,7.8631,0.0,0.0,0.0,0.0,8.0208,0.0,0.0,0.0,0.0,0.0,0.0,0.0,0.0,0.0,0.0,0.0,0.0,0.0,0.0,0.0,8.8556,8.8709,8.9402,9.1018,9.0402,9.0325,0.0,0.0,9.1595,9.2479,9.3287,9.4095,9.498,9.5865,9.6288,9.6288,9.6288,9.6288,9.6288,9.6288,9.6288,9.6288,9.6288,9.6326,9.6442,9.725,9.8096,9.8942,9.9827,10.0596,10.1289,10.1289,10.1289,10.1289,6.3666,6.4051,6.4705,0.0,6.4974,6.4743,0.0,0.0,0.0,0.0,7.0021,7.0989,7.2225,7.2753,7.309,7.3273,7.3186,0.0,0.0,0.0,0.0,7.2514,7.2322,7.2206,7.2206,7.2206,0.0,7.2514,7.2514,7.2629,7.2822,7.2822,7.2937,7.3206,0.0,0.0,7.4745,7.5399,7.6169,7.6976,7.6976,7.7438,0.0,0.0,7.9169,7.9092,7.8669,7.8477,7.8592,7.9246,7.9477,7.9592,8.0246,8.0439,8.0439,8.0439,8.0439,8.0439,8.0439,8.0439,8.0439,8.0439,8.0862,8.1362,0.0,0.0,0.0,0.0,0.0,0.0,0.0,0.0,0.0,0.0,0.0,0.0,0.0,0.0,0.0,8.6017,0.0,0.0,8.7632,8.8863,8.9787,9.021,9.0633,9.0979,9.121,0.0,0.0,9.2479,9.3287,9.4095,9.498,9.5865,9.6288,9.6288,9.6288,9.6288,9.6288,9.6288,9.6288,9.6288,9.6288,9.6634,9.725,9.8096,9.8981,9.9827,10.0712,10.1096,10.1289,10.1289,10.1289,10.1289,6.5412,0.0,0.0,6.7757,0.0,0.0,6.7654,0.0,0.0,7.0581,7.1675,0.0,7.4184,7.4616,7.4952,7.5257,7.5136,0.0,0.0,0.0,0.0,7.4014,7.3707,7.3514,7.3514,7.3514,0.0,7.3514,0.0,0.0,7.3514,7.3514,7.3707,7.4053,0.0,7.4899,0.0,7.6207,7.6861,7.7323,7.7669,0.0,0.0,7.9631,8.0246,8.0823,8.0323,7.9939,7.9708,8.0208,8.0592,8.0977,8.1477,8.19,8.217,8.217,8.217,8.217,8.217,8.217,8.217,8.217,8.2516,8.2862,8.2862,8.3247,8.3593,0.0,0.0,0.0,0.0,0.0,0.0,0.0,0.0,0.0,0.0,0.0,0.0,0.0,8.6094,0.0,8.6786,8.7709,8.8556,8.9325,8.9825,9.0248,9.0633,0.0,0.0,9.1902,9.3095,9.3941,9.4441,9.5672,9.6288,9.6288,9.6288,9.6288,9.6288,9.6288,9.6288,9.6288,9.6288,9.6749,9.7557,9.8442,9.9288,10.0173,10.1019,10.1289,10.1289,10.1289,10.1289,10.1289,0.0,0.0,0.0,0.0,0.0,0.0,0.0,6.999,0.0,7.2135,0.0,7.4258,7.5898,7.6055,7.6289,7.6836,0.0,7.6514,7.6313,7.5399,7.4861,7.4861,7.4207,7.3822,7.3822,7.3822,0.0,0.0,0.0,0.0,7.3822,7.3822,7.4207,0.0,0.0,0.0,0.0,7.6976,7.7438,7.7669,7.84,7.9246,8.0131,8.0131,8.1093,8.2477,8.2477,8.2016,8.1439,8.1439,8.19,8.2477,8.2477,8.2978,8.3593,8.3593,8.3593,8.3593,8.3593,8.3593,8.3593,8.3593,8.367,8.3747,8.3747,8.3862,8.3939,8.3939,8.3939,8.417,0.0,0.0,0.0,0.0,0.0,0.0,0.0,0.0,0.0,0.0,0.0,0.0,0.0,8.6209,8.6901,8.8402,8.8632,8.9056,8.9863,0.0,0.0,9.121,9.271,9.3595,9.371,0.0,9.6172,9.6288,9.6288,9.6288,9.6288,9.6288,9.6288,9.6326,9.6403,9.6903,9.775,9.8596,9.9481,10.0289,10.1019,10.1289,10.1289,10.1289,10.1289,10.1289,0.0,0.0,0.0,0.0,0.0,7.1529,7.3061,7.2302,7.2367,7.4615,7.5218,7.582,7.6875,7.6953,7.6953,7.6914,7.6721,0.0,0.0,0.0,0.0,7.5784,7.563,7.5553,7.5553,7.5553,7.5553,0.0,0.0,0.0,7.5553,7.5553,7.563,0.0,0.0,0.0,7.7092,7.7246,0.0,7.9361,7.9515,8.0477,8.1862,8.1862,8.2477,8.3362,8.3362,8.3285,8.317,8.317,8.3247,8.3362,8.3362,8.3478,8.3593,8.3593,8.3593,8.3593,8.3593,8.3593,8.3593,8.3593,8.4132,8.467,8.467,8.5209,8.567,8.567,8.567,8.5709,8.5863,0.0,0.0,0.0,0.0,0.0,0.0,0.0,0.0,0.0,0.0,8.6094,0.0,0.0,8.7286,8.7594,8.8286,8.9056,0.0,0.0,0.0,0.0,9.2172,0.0,0.0,0.0,9.5595,9.6288,9.6288,9.6288,9.6288,9.6288,9.6288,9.6326,9.7019,9.7788,9.8634,9.9519,10.0404,10.1096,10.1212,10.1289,10.1289,10.1289,10.1289,10.1289,0.0,0.0,0.0,0.0,0.0,0.0,0.0,7.4461,0.0,7.5609,7.6248,7.6719,7.7148,7.7617,7.7851,7.7734,7.7942,7.8001,7.7929,7.7766,7.7391,7.6852,7.6852,0.0,7.6015,7.6015,7.6015,7.6015,0.0,0.0,7.6015,7.6015,0.0,7.6015,0.0,7.713,0.0,0.0,0.0,8.0516,8.0939,8.1862,8.2978,8.2978,8.3516,8.4286,8.4286,8.4555,8.4747,8.3901,8.3901,8.4286,8.4286,8.4555,8.4901,8.4901,8.4901,8.4901,8.4901,8.4901,8.4901,8.4901,8.5209,8.5517,8.5517,8.617,8.6786,8.6786,8.7132,8.7325,8.6863,8.6786,0.0,0.0,0.0,0.0,0.0,0.0,0.0,0.0,0.0,0.0,0.0,0.0,0.0,0.0,0.0,0.0,0.0,0.0,0.0,0.0,0.0,0.0,0.0,0.0,0.0,9.6288,9.6288,9.6288,9.6288,9.6288,9.6288,9.6326,9.7134,9.798,9.8904,10.0212,10.0981,10.1289,10.1289,10.1289,10.1289,10.1289,10.1289,10.1289,0.0,7.2969,0.0,0.0,7.4756,0.0,7.6295,7.6433,7.6427,7.6441,7.7031,7.7539,7.7695,7.8359,7.875,7.875,7.914,7.9398,7.9399,7.9249,7.8825,7.7988,7.7929,7.7506,7.6592,7.6592,7.6553,0.0,0.0,0.0,0.0,7.6438,0.0,0.0,0.0,0.0,0.0,0.0,8.0554,8.1439,8.2247,8.3093,8.3862,8.3862,8.4401,8.517,8.517,8.5555,8.594,8.4786,8.4747,8.517,8.517,8.5593,8.6094,8.6094,8.6094,8.6094,8.6094,8.6094,8.6132,8.6324,8.6363,8.644,8.6594,8.7171,8.7671,8.7671,8.8209,8.8479,8.7786,8.7671,0.0,0.0,0.0,0.0,0.0,0.0,0.0,0.0,0.0,0.0,8.6632,0.0,0.0,0.0,0.0,0.0,8.9556,0.0,0.0,0.0,0.0,9.271,9.3672,0.0,9.5249,9.6288,9.6288,9.6288,9.6288,9.6288,9.6288,9.6365,9.7365,9.8365,9.9442,10.0789,10.1289,10.1289,10.1289,10.1289,10.1289,10.1289,10.1289,10.1289,0.0,0.0,0.0,0.0,0.0,0.0,0.0,7.8272,7.8276,7.8242,7.832,7.8672,7.9375,7.9531,7.9609,7.9609,7.9453,7.9413,7.9405,7.9255,7.9159,7.9042,7.9042,7.8883,7.8545,7.8545,7.8468,0.0,0.0,0.0,0.0,0.0,0.0,0.0,0.0,0.0,0.0,8.0592,8.1439,8.2247,8.3131,8.4016,8.4786,8.4786,8.5286,8.5978,8.5978,8.6055,8.6209,8.6824,8.6555,8.5978,8.5978,8.6055,8.6094,8.6094,8.6094,8.6094,8.6094,8.6094,8.6286,8.7094,8.7286,8.7478,8.8286,8.8517,8.8556,8.8556,8.8632,8.8671,8.8594,8.8556,8.8556,0.0,0.0,0.0,0.0,0.0,8.844,8.844,0.0,0.0,0.0,8.5632,0.0,0.0,8.7863,0.0,0.0,0.0,0.0,9.1171,0.0,9.2095,9.3672,9.3787,9.4672,9.6288,9.6288,9.6288,9.6288,9.6288,9.6288,9.6403,9.798,9.9596,10.1096,10.1212,10.1289,10.1289,10.1289,10.1289,10.1289,10.1289,10.1289,10.1289,0.0,0.0,0.0,0.0,0.0,0.0,0.0,7.8906,7.9414,7.9922,7.9531,7.9336,7.9648,8.0156,8.0469,8.0469,8.0898,8.1133,8.1133,8.1074,8.0777,8.0113,8.0115,7.9764,7.9057,7.8888,7.8746,0.0,0.0,0.0,0.0,0.0,0.0,0.0,0.0,8.0516,8.1362,8.2208,8.3093,8.3901,8.4247,8.4901,8.5632,8.5632,8.6132,8.6863,8.6863,8.7209,8.7709,8.8055,8.7594,8.6978,8.7478,8.7671,8.7671,8.7671,8.7671,8.7671,8.7671,8.7671,8.7748,8.8094,8.8171,8.8248,8.8632,8.9056,8.944,8.944,8.9825,9.0056,8.9517,8.944,8.9248,0.0,0.0,0.0,0.0,0.0,0.0,8.8709,0.0,8.7363,0.0,0.0,0.0,0.0,0.0,0.0,0.0,0.0,0.0,9.1171,0.0,9.2018,9.3672,9.371,9.4557,9.6288,9.6288,9.6288,9.6288,9.6288,9.6865,9.7827,9.8519,9.975,10.1289,10.1289,10.1289,10.1289,10.1289,10.1289,10.1289,10.1289,10.1289,10.1289,7.6172,0.0,7.6875,0.0,7.8281,7.8945,7.9219,7.9922,8.0781,8.164,8.1445,8.1133,8.0859,8.1406,8.1875,8.2109,8.2695,8.3047,8.3047,8.3047,8.2734,8.1953,8.1914,0.0,8.0807,8.0353,8.0054,7.9939,7.9554,0.0,0.0,0.0,0.0,0.0,8.1554,8.2131,8.2747,8.3593,8.4324,8.4939,8.517,8.5747,8.6478,8.6478,8.7017,8.7786,8.7786,8.8171,8.8748,8.8979,8.8632,8.8209,8.8594,8.8709,8.8709,8.8709,8.8709,8.8709,8.8709,8.8709,8.8748,8.8979,8.9056,8.9133,8.9363,8.9863,9.0287,9.0287,9.0787,9.1018,9.0402,9.0287,9.0094,8.9517,0.0,0.0,0.0,0.0,0.0,0.0,8.8055,8.7748,8.8632,8.6401,0.0,0.0,0.0,0.0,0.0,0.0,0.0,0.0,0.0,0.0,0.0,9.371,9.4557,9.6288,9.6288,9.6288,9.6288,9.6288,9.7211,9.8788,9.8788,9.975,10.1289,10.1289,10.1289,10.1289,10.1289,10.1289,10.1289,10.1289,10.1289,10.1289,7.7187,7.789,7.8476,7.8476,7.914,7.9961,8.0859,8.1719,8.2578,8.3437,8.4297,8.4492,8.3633,8.3554,8.3906,8.4765,8.4844,8.4883,8.4883,8.4883,8.4844,0.0,0.0,8.4765,8.4531,8.3698,8.3041,8.2624,0.0,0.0,7.9823,0.0,8.1939,8.3555,8.3555,8.3555,8.3632,8.4516,8.4901,8.4978,8.5786,8.6594,8.7363,8.7363,8.794,8.8671,8.8671,8.8671,8.8825,8.9633,8.9902,8.9748,8.894,8.8709,8.8709,8.8709,8.8709,8.8709,8.8709,8.8709,8.8902,8.971,8.9902,9.0133,9.0979,9.1171,9.1171,9.1171,9.121,9.121,9.121,9.1171,9.1171,9.1171,0.0,0.0,0.0,0.0,0.0,8.9979,8.8402,8.7748,8.8632,8.6401,0.0,0.0,0.0,0.0,0.0,0.0,0.0,9.1171,9.121,0.0,9.3672,9.371,9.4557,9.6288,9.6288,9.6288,9.6288,9.6288,9.7211,9.8788,9.8788,9.975,10.1289,10.1289,10.1289,10.1289,10.1289,10.1289,10.1289,10.1289,10.1289,10.1289,7.8906,7.914,7.9336,7.9336,8.0508,8.1562,8.1836,8.3125,8.4179,8.4453,8.4726,8.5039,8.5351,8.4844,8.4609,0.0,8.4883,8.4883,0.0,8.4883,8.4883,8.4883,8.4883,8.4883,8.4804,8.4401,8.4138,8.4003,0.0,0.0,0.0,8.267,8.3093,8.3632,8.4209,8.4478,8.4555,8.5363,8.6055,8.6632,8.6863,8.7517,8.8286,8.8286,8.8786,8.9517,8.9517,8.9902,9.0441,9.071,9.0787,9.0748,9.0479,9.0402,9.0402,9.0402,9.0402,9.0402,9.0402,9.0402,9.0479,9.071,9.0787,9.0864,9.1133,9.121,9.121,9.121,9.121,9.121,9.121,9.121,9.121,9.121,9.121,0.0,0.0,0.0,9.1095,9.0825,8.9787,8.944,9.0325,8.8094,0.0,0.0,0.0,0.0,0.0,0.0,0.0,0.0,9.121,0.0,9.3672,9.371,9.4557,9.6288,9.6288,9.6288,9.6288,9.6288,9.7211,9.8788,9.8788,9.975,10.1289,10.1289,10.1289,10.1289,10.1289,10.1289,10.1289,10.1289,10.1289,10.1289,7.9687,8.0234,8.0664,8.0664,8.2109,8.3281,8.3281,8.4492,8.539,8.539,8.5664,8.6094,8.664,8.6211,0.0,8.5898,8.5898,8.5898,8.5898,8.5898,8.5898,8.5898,8.5898,8.5898,8.5898,0.0,0.0,8.5097,8.4309,8.3978,8.417,8.4132,8.4247,8.4555,8.5093,8.5517,8.5863,8.6363,8.7094,8.7902,8.7902,8.8402,8.9133,8.9133,8.9671,9.0402,9.0402,9.0748,9.121,9.121,9.121,9.121,9.1287,9.1325,9.1287,9.121,9.1248,9.1325,9.1325,9.1325,9.1325,9.1325,9.1248,9.121,9.121,9.121,9.121,9.121,9.121,9.121,9.121,9.121,9.121,9.121,9.121,9.121,9.121,0.0,9.1095,0.0,0.0,0.0,0.0,8.9094,8.8786,0.0,0.0,0.0,0.0,0.0,0.0,9.1171,9.121,0.0,9.3672,9.371,9.4557,9.6288,9.6288,9.6288,9.6288,9.6288,9.7211,9.8788,9.8788,9.975,10.1289,10.1289,10.1289,10.1289,10.1289,10.1289,10.1289,10.1289,10.1289,10.1289,7.9961,8.1328,0.0,0.0,8.3867,0.0,8.5,8.5742,8.6328,8.6367,8.707,8.7617,8.7656,8.7656,8.7656,8.7656,0.0,0.0,0.0,8.75,8.75,8.75,8.75,8.75,8.75,8.6719,8.6172,8.5976,8.4728,8.4566,8.5395,8.517,8.5517,8.6286,8.6286,8.6748,8.7478,8.7478,8.7979,8.8786,8.8786,8.9286,8.9979,8.9979,9.0479,9.121,9.121,9.121,9.121,9.121,9.121,9.1248,9.1441,9.1476,9.1506,9.1322,9.1364,9.1553,9.151,9.1544,9.151,9.1553,9.1402,9.1248,9.1248,9.1248,9.121,9.121,9.121,9.121,9.121,9.121,9.121,9.121,9.121,9.121,9.121,0.0,9.0902,0.0,0.0,0.0,0.0,8.9556,8.9979,0.0,0.0,0.0,0.0,0.0,9.0364,9.1171,9.121,9.2018,9.3672,9.371,9.4557,9.6288,9.6288,9.6288,9.6288,9.6288,9.7211,9.8788,9.8788,9.975,10.1289,10.1289,10.1289,10.1289,10.1289,10.1289,10.1289,10.1289,10.1289,10.1289,0.0,0.0,8.4297,8.4297,8.5195,8.5898,8.5898,8.664,8.7422,8.8047,8.8281,8.8672,8.9336,8.9414,8.9414,8.9414,8.8242,8.75,8.75,8.75,8.75,8.75,8.75,8.75,8.75,8.7304,8.707,8.6836,8.6488,8.6622,8.7094,8.7055,8.7401,8.8094,8.8094,8.8209,8.8402,8.8402,8.8863,8.9633,8.9633,9.0133,9.0902,9.0902,9.1018,9.121,9.121,9.121,9.121,9.121,9.1287,9.1441,9.1479,9.162,9.1805,9.1721,9.1748,9.1804,9.1796,9.1816,9.182,9.1804,9.1748,9.171,9.171,9.1556,9.1441,9.1441,9.1325,9.121,9.121,9.121,9.121,9.121,9.121,9.121,9.121,9.121,9.1133,0.0,9.0902,9.0825,9.0633,9.0787,9.0633,0.0,0.0,0.0,0.0,9.0633,9.0979,9.121,9.121,9.2018,9.3672,9.371,9.4557,9.6288,9.6288,9.6288,9.6288,9.6288,9.7211,9.8788,9.8788,9.975,10.1289,10.1289,10.1289,10.1289,10.1289,10.1289,10.1289,10.1289,10.1289,10.1289,8.4179,8.4883,8.5508,8.5508,8.6211,8.6914,8.7304,8.7734,8.8359,8.9179,8.9297,8.9453,8.9961,9.0,9.0,9.0,8.9179,8.8633,8.8633,8.8633,8.8633,8.8633,8.8633,8.8633,8.8633,8.8633,8.8554,8.8437,8.832,8.839,8.8613,8.8548,8.8671,8.8979,8.8902,8.9056,8.9402,8.9286,8.9748,9.0517,9.0594,9.0864,9.121,9.1287,9.1287,9.121,9.1287,9.1325,9.1364,9.1479,9.1595,9.1672,9.1787,9.1925,9.207,9.2185,9.2118,9.204,9.2042,9.2031,9.2015,9.1912,9.1914,9.1914,9.1914,9.1771,9.1687,9.1698,9.1479,9.1325,9.1325,9.1248,9.121,9.121,9.121,9.121,9.121,9.121,0.0,9.121,9.121,9.121,9.121,9.121,9.1018,9.0517,9.0941,0.0,9.0517,9.0941,9.121,9.121,9.1595,9.2402,9.3672,9.448,9.5365,9.6288,9.6288,9.6288,9.6326,9.6673,9.7557,9.8827,9.9211,10.0096,10.1289,10.1289,10.1289,10.1289,10.1289,10.1289,10.1289,10.1289,10.1289,10.1289,8.5117,8.5781,8.6445,8.6562,8.7187,8.7969,8.8789,8.8906,8.9219,9.0078,9.0195,9.0234,9.039,9.039,9.039,9.039,9.039,9.0273,9.0039,9.0,9.0,9.0,9.0,9.0,9.0,9.0,9.0,9.0,8.9844,8.9804,8.9882,8.9741,8.9716,8.9786,8.9523,8.9844,9.0552,9.0248,9.0594,9.1325,9.1441,9.1395,9.1336,9.1472,9.1402,9.1325,9.1441,9.1544,9.1605,9.1798,9.1925,9.1976,9.2168,9.2245,9.2332,9.2521,9.2416,9.2286,9.2286,9.2269,9.2221,9.2054,9.2012,9.2012,9.2012,9.1973,9.1953,9.1937,9.174,9.1573,9.1553,9.1402,9.1287,9.1248,9.1248,9.1248,9.121,0.0,9.121,9.121,9.121,9.121,9.121,9.121,9.121,9.121,9.121,9.121,9.121,9.121,9.121,9.121,9.2056,9.2941,9.3903,9.548,9.6288,9.6288,9.6288,9.6288,9.6326,9.7134,9.798,9.8865,9.9712,10.0596,10.1289,10.1289,10.1289,10.1289,10.1289,10.1289,10.1289,10.1289,10.1289,10.1289,8.6015,8.6719,8.75,8.8203,8.8437,8.8789,8.9687,8.9804,9.0117,9.0976,9.1094,9.1367,9.2109,9.2187,9.2187,9.2187,9.2187,9.1562,9.0117,9.0,9.0,9.0,9.0,9.0,9.0,9.0,9.0,9.0,8.9961,9.0234,9.0781,9.0767,9.1008,9.149,9.1451,9.1502,9.163,9.1364,9.1441,9.1748,9.1556,9.162,9.1778,9.1585,9.1595,9.1748,9.1556,9.1649,9.184,9.1879,9.1992,9.2168,9.2207,9.2361,9.2574,9.2598,9.256,9.2546,9.2546,9.2531,9.2539,9.2494,9.2492,9.2492,9.2492,9.2336,9.2137,9.2156,9.199,9.1843,9.1842,9.1787,9.171,9.1479,9.1441,9.1402,9.121,0.0,9.121,9.121,9.121,9.121,9.121,9.121,9.121,9.121,9.121,9.121,9.121,9.121,9.121,9.121,9.2056,9.3249,9.4788,9.5788,9.6288,9.6288,9.6288,9.6288,9.6326,9.7134,9.798,9.8865,9.9712,10.0596,10.1289,10.1289,10.1289,10.1289,10.1289,10.1289,10.1289,10.1289,10.1289,10.1289,8.6914,8.7578,8.8242,8.8633,8.9101,8.9687,9.0586,9.0703,9.1015,9.1875,9.1992,9.2148,9.2578,9.2617,9.2617,9.2617,9.2617,9.2265,9.1445,9.1406,9.1406,9.1406,9.1406,9.1406,9.1406,9.1406,9.1406,9.1406,9.1406,9.1562,9.1875,9.1875,9.202,9.2272,9.2116,9.205,9.2065,9.1828,9.1784,9.1899,9.1864,9.187,9.1875,9.1871,9.1873,9.1899,9.1864,9.194,9.2057,9.2249,9.2339,9.2432,9.2432,9.251,9.2586,9.2606,9.2617,9.2617,9.2617,9.2617,9.2617,9.2617,9.2617,9.2617,9.2617,9.25,9.2422,9.2422,9.2243,9.2042,9.2036,9.1972,9.1876,9.176,9.1732,0.0,0.0,9.1364,9.1325,9.121,9.121,9.121,9.121,9.121,9.121,9.121,9.121,9.121,9.121,9.121,9.1441,9.1902,9.271,9.398,9.5672,9.6095,9.6288,9.6288,9.6288,9.6288,9.6326,9.7634,9.8404,9.8865,10.0212,10.0981,10.1289,10.1289,10.1289,10.1289,10.1289,10.1289,10.1289,10.1289,10.1289,10.1289,8.8047,8.8594,8.9062,8.9258,8.9844,9.0586,9.1484,9.1601,9.1836,9.25,9.2617,9.2617,9.2617,9.2617,9.2617,9.2617,9.2617,9.2617,9.2617,9.2617,9.2617,9.2617,9.2617,9.2617,9.2617,9.2617,9.2617,9.2617,9.2617,9.2617,9.2617,9.2617,9.2617,9.2578,9.2383,9.2304,9.2265,9.2042,9.2034,9.2081,9.2184,9.2134,9.2054,9.2173,9.2117,9.2053,9.2151,9.2241,9.23,9.2535,9.2617,9.2617,9.2617,9.2617,9.2617,9.2617,9.2617,9.2617,9.2617,9.2617,9.2617,9.2617,9.2617,9.2617,9.2617,9.2617,9.2617,9.2617,9.2422,9.2304,9.2304,9.2163,9.2016,9.1977,0.0,0.0,0.0,9.1539,9.1441,9.1287,9.1248,9.121,9.121,9.121,9.121,9.121,9.121,9.121,9.121,9.121,9.171,9.2749,9.3557,9.4749,9.6288,9.6288,9.6288,9.6288,9.6288,9.6288,9.6365,9.8057,9.8788,9.8904,10.0596,10.1289,10.1289,10.1289,10.1289,10.1289,10.1289,10.1289,10.1289,10.1289,10.1289,10.1289,8.9648,8.9844,9.0156,9.0976,9.1172,9.1484,9.2383,9.25,9.2539,9.2578,9.2617,9.2617,9.2617,9.2617,9.2617,9.2617,9.2617,9.2617,9.2617,9.2617,9.2617,9.2617,9.2617,9.2617,9.2617,9.2617,9.2617,9.2617,9.2617,9.2617,9.2617,9.2617,9.2617,9.2617,9.2578,9.2578,9.2539,9.2304,9.2301,9.2517,9.2289,9.2321,9.2537,9.2304,9.2343,9.2507,9.2274,9.2343,9.2572,9.2578,9.2617,9.2617,9.2617,9.2617,9.2617,9.2617,9.2617,9.2617,9.2617,9.2617,9.2617,9.2617,9.2617,9.2617,9.2617,9.2617,9.2617,9.2617,9.2578,9.2578,9.2578,9.2577,9.2459,9.2224,0.0,0.0,9.1893,9.1677,9.1479,9.1479,9.1325,9.121,9.121,9.121,9.121,9.121,9.121,9.121,9.121,9.121,9.1941,9.3557,9.4441,9.5365,9.6288,9.6288,9.6288,9.6288,9.6288,9.6288,9.6365,9.8057,9.8788,9.8904,10.0596,10.1289,10.1289,10.1289,10.1289,10.1289,10.1289,10.1289,10.1289,10.1289,10.1289,10.1289,8.9922,9.0429,9.0898,9.125,9.1758,9.2226,9.2539,9.2617,9.2617,9.2617,9.2617,9.2617,9.2617,9.2617,9.2617,9.2617,9.2617,9.2617,9.2617,9.2617,9.2617,9.2617,9.2617,9.2617,9.2617,9.2617,9.2617,9.2617,9.2617,9.2617,9.2617,9.2617,9.2617,9.2617,9.2617,9.2617,9.2578,9.25,9.25,9.2577,9.251,9.2507,9.2578,9.25,9.25,9.2576,9.2461,9.2514,9.2617,9.2617,9.2617,9.2617,9.2617,9.2617,9.2617,9.2617,9.2617,9.2617,9.2617,9.2617,9.2617,9.2617,9.2617,9.2617,9.2617,9.2617,9.2617,9.2617,9.2617,9.2617,9.2617,9.2617,9.2578,9.2461,0.0,9.234,9.2105,9.1983,9.1821,9.1539,9.1441,9.1325,9.121,9.121,9.121,9.121,9.121,9.121,9.121,9.2172,9.3287,9.448,9.5365,9.598,9.6288,9.6288,9.6288,9.6288,9.6288,9.6557,9.7096,9.825,9.9096,9.9673,10.0789,10.1289,10.1289,10.1289,10.1289,10.1289,10.1289,10.1289,10.1289,10.1289,10.1289,10.1289,9.0742,9.1289,9.1719,9.1719,9.2187,9.2617,9.2617,9.2617,9.2617,9.2617,9.2617,9.2617,9.2617,9.2617,9.2617,9.2617,9.2617,9.2617,9.2617,9.2617,9.2617,9.2617,9.2617,9.2617,9.2617,9.2617,9.2617,9.2617,9.2617,9.2617,9.2617,9.2617,9.2617,9.2617,9.2617,9.2617,9.2617,9.2617,9.2617,9.2617,9.2617,9.2617,9.2617,9.2617,9.2617,9.2617,9.2617,9.2617,9.2617,9.2617,9.2617,9.2617,9.2617,9.2617,9.2617,9.2617,9.2617,9.2617,9.2617,9.2617,9.2617,9.2617,9.2617,9.2617,9.2617,9.2617,9.2617,9.2617,9.2617,9.2617,9.2617,9.2617,9.2617,9.2617,9.2617,9.2539,9.2344,9.2265,9.2066,9.1734,9.1578,9.1441,9.1325,9.1248,9.121,9.121,9.121,9.1325,9.1595,9.321,9.4364,9.498,9.5865,9.6288,9.6288,9.6288,9.6288,9.6288,9.6288,9.6711,9.7519,9.8404,9.9288,10.0096,10.0981,10.1289,10.1289,10.1289,10.1289,10.1289,10.1289,10.1289,10.1289,10.1289,10.1289,10.1289,9.2422,9.2617,9.2617,9.2617,9.2617,9.2617,9.2617,9.2617,9.2617,9.2617,9.2617,9.2617,9.2617,9.2617,9.2617,9.2617,9.2617,9.2617,9.2617,9.2617,9.2617,9.2617,9.2617,9.2617,9.2617,9.2617,9.2617,9.2617,9.2617,9.2617,9.2617,9.2617,9.2617,9.2617,9.2617,9.2617,9.2617,9.2617,9.2617,9.2617,9.2617,9.2617,9.2617,9.2617,9.2617,9.2617,9.2617,9.2617,9.2617,9.2617,9.2617,9.2617,9.2617,9.2617,9.2617,9.2617,9.2617,9.2617,9.2617,9.2617,9.2617,9.2617,9.2617,9.2617,9.2617,9.2617,9.2617,9.2617,9.2617,9.2617,9.2617,9.2617,9.2617,9.2617,9.2617,9.2617,9.2617,9.2383,9.2187,9.2187,9.1781,9.1479,9.1479,9.1325,9.121,9.121,9.121,9.1595,9.2479,9.4095,9.498,9.5018,9.5865,9.6288,9.6288,9.6288,9.6288,9.6288,9.6288,9.6711,9.7557,9.8404,9.9288,10.0173,10.0981,10.1289,10.1289,10.1289,10.1289,10.1289,10.1289,10.1289,10.1289,10.1289,10.1289,10.1289,9.2539,9.2617,9.2617,9.2617,9.2617,9.2617,9.2617,9.2617,9.2617,9.2617,9.2617,9.2617,9.2617,9.2617,9.2617,9.2617,9.2617,9.2617,9.2617,9.2617,9.2617,9.2617,9.2617,9.2617,9.2617,9.2617,9.2617,9.2617,9.2617,9.2617,9.2617,9.2617,9.2617,9.2617,9.2617,9.2617,9.2617,9.2617,9.2617,9.2617,9.2617,9.2617,9.2617,9.2617,9.2617,9.2617,9.2617,9.2617,9.2617,9.2617,9.2617,9.2617,9.2617,9.2617,9.2617,9.2617,9.2617,9.2617,9.2617,9.2617,9.2617,9.2617,9.2617,9.2617,9.2617,9.2617,9.2617,9.2617,9.2617,9.2617,9.2617,9.2617,9.2617,9.2617,9.2617,9.2617,9.2617,9.2539,9.2422,9.2226,9.2092,9.1825,9.1518,9.1441,9.1364,9.121,9.1787,9.2749,9.4172,9.4711,9.5288,9.5903,9.6172,9.6288,9.6288,9.6288,9.6288,9.6288,9.6288,9.7057,9.8404,9.8673,9.9596,10.0981,10.1212,10.1289,10.1289,10.1289,10.1289,10.1289,10.1289,10.1289,10.1289,10.1289,10.1289,10.1289,9.2617,9.2617,9.2617,9.2617,9.2617,9.2617,9.2617,9.2617,9.2617,9.2617,9.2617,9.2617,9.2617,9.2617,9.2617,9.2617,9.2617,9.2617,9.2617,9.2617,9.2617,9.2617,9.2617,9.2617,9.2617,9.2617,9.2617,9.2617,9.2617,9.2617,9.2617,9.2617,9.2617,9.2617,9.2617,9.2617,9.2617,9.2617,9.2617,9.2617,9.2617,9.2617,9.2617,9.2617,9.2617,9.2617,9.2617,9.2617,9.2617,9.2617,9.2617,9.2617,9.2617,9.2617,9.2617,9.2617,9.2617,9.2617,9.2617,9.2617,9.2617,9.2617,9.2617,9.2617,9.2617,9.2617,9.2617,9.2617,9.2617,9.2617,9.2617,9.2617,9.2617,9.2617,9.2617,9.2617,9.2617,9.2617,9.2539,9.2383,9.2237,9.2096,9.178,9.1595,9.1556,9.171,9.2826,9.3941,9.4941,9.5326,9.5749,9.6288,9.6288,9.6288,9.6288,9.6288,9.6288,9.6288,9.6634,9.748,9.8788,9.9173,9.9981,10.1289,10.1289,10.1289,10.1289,10.1289,10.1289,10.1289,10.1289,10.1289,10.1289,10.1289,10.1289,10.1289,9.2617,9.2617,9.2617,9.2617,9.2617,9.2617,9.2617,9.2617,9.2617,9.2617,9.2617,9.2617,9.2617,9.2617,9.2617,9.2617,9.2617,9.2617,9.2617,9.2617,9.2617,9.2617,9.2617,9.2617,9.2617,9.2617,9.2617,9.2617,9.2617,9.2617,9.2617,9.2617,9.2617,9.2617,9.2617,9.2617,9.2617,9.2617,9.2617,9.2617,9.2617,9.2617,9.2617,9.2617,9.2617,9.2617,9.2617,9.2617,9.2617,9.2617,9.2617,9.2617,9.2617,9.2617,9.2617,9.2617,9.2617,9.2617,9.2617,9.2617,9.2617,9.2617,9.2617,9.2617,9.2617,9.2617,9.2617,9.2617,9.2617,9.2617,9.2617,9.2617,9.2617,9.2617,9.2617,9.2617,9.2617,9.2617,9.2617,9.2617,9.2383,9.2225,9.2179,9.1852,9.1941,9.271,9.4134,9.5018,9.5095,9.5865,9.6288,9.6288,9.6288,9.6288,9.6288,9.6288,9.6288,9.6326,9.7134,9.7942,9.8827,9.9712,10.0481,10.1289,10.1289,10.1289,10.1289,10.1289,10.1289,10.1289,10.1289,10.1289,10.1289,10.1289,10.1289,10.1289,9.2617,9.2617,9.2617,9.2617,9.2617,9.2617,9.2617,9.2617,9.2617,9.2617,9.2617,9.2617,9.2617,9.2617,9.2617,9.2617,9.2617,9.2617,9.2617,9.2617,9.2617,9.2617,9.2617,9.2617,9.2617,9.2617,9.2617,9.2617,9.2617,9.2617,9.2617,9.2617,9.2617,9.2617,9.2617,9.2617,9.2617,9.2617,9.2617,9.2617,9.2617,9.2617,9.2617,9.2617,9.2617,9.2617,9.2617,9.2617,9.2617,9.2617,9.2617,9.2617,9.2617,9.2617,9.2617,9.2617,9.2617,9.2617,9.2617,9.2617,9.2617,9.2617,9.2617,9.2617,9.2617,9.2617,9.2617,9.2617,9.2617,9.2617,9.2617,9.2617,9.2617,9.2617,9.2617,9.2617,9.2617,9.2617,9.2617,9.2617,9.2539,9.2416,9.2209,9.2392,9.3133,9.4634,9.4903,9.5288,9.598,9.6211,9.6288,9.6288,9.6288,9.6288,9.6288,9.6288,9.6288,9.6326,9.7134,9.7942,9.8827,9.9712,10.0481,10.1289,10.1289,10.1289,10.1289,10.1289,10.1289,10.1289,10.1289,10.1289,10.1289,10.1289,10.1289,10.1289,9.2617,9.2617,9.2617,9.2617,9.2617,9.2617,9.2617,9.2617,9.2617,9.2617,9.2617,9.2617,9.2617,9.2617,9.2617,9.2617,9.2617,9.2617,9.2617,9.2617,9.2617,9.2617,9.2617,9.2617,9.2617,9.2617,9.2617,9.2617,9.2617,9.2617,9.2617,9.2617,9.2617,9.2617,9.2617,9.2617,9.2617,9.2617,9.2617,9.2617,9.2617,9.2617,9.2617,9.2617,9.2617,9.2617,9.2617,9.2617,9.2617,9.2617,9.2617,9.2617,9.2617,9.2617,9.2617,9.2617,9.2617,9.2617,9.2617,9.2617,9.2617,9.2617,9.2617,9.2617,9.2617,9.2617,9.2617,9.2617,9.2617,9.2617,9.2617,9.2617,9.2617,9.2617,9.2617,9.2617,9.2617,9.2617,9.2617,9.2617,9.2617,9.2656,9.2812,9.3766,9.4661,9.5322,9.5634,9.5903,9.6288,9.6288,9.6288,9.6288,9.6288,9.6288,9.6288,9.6288,9.6288,9.6326,9.7557,9.8365,9.8827,10.0096,10.0904,10.1289,10.1289,10.1289,10.1289,10.1289,10.1289,10.1289,10.1289,10.1289,10.1289,10.1289,10.1289,10.1289,9.2617,9.2617,9.2617,9.2617,9.2617,9.2617,9.2617,9.2617,9.2617,9.2617,9.2617,9.2617,9.2617,9.2617,9.2617,9.2617,9.2617,9.2617,9.2617,9.2617,9.2617,9.2617,9.2617,9.2617,9.2617,9.2617,9.2617,9.2617,9.2617,9.2617,9.2617,9.2617,9.2617,9.2617,9.2617,9.2617,9.2617,9.2617,9.2617,9.2617,9.2617,9.2617,9.2617,9.2617,9.2617,9.2617,9.2617,9.2617,9.2617,9.2617,9.2617,9.2617,9.2617,9.2617,9.2617,9.2617,9.2617,9.2617,9.2617,9.2617,9.2617,9.2617,9.2617,9.2617,9.2617,9.2617,9.2617,9.2617,9.2617,9.2617,9.2617,9.2617,9.2617,9.2617,9.2617,9.2617,9.2617,9.2617,9.2617,9.2617,9.2734,9.3125,9.3945,9.5273,9.5963,9.5702,9.6243,9.6519,9.6326,9.6288,9.6288,9.6288,9.6288,9.6288,9.6288,9.6288,9.6365,9.6519,9.8057,9.8788,9.8865,10.0519,10.1289,10.1289,10.1289,10.1289,10.1289,10.1289,10.1289,10.1289,10.1289,10.1289,10.1289,10.1289,10.1289,10.1289,9.2617,9.2617,9.2617,9.2617,9.2617,9.2617,9.2617,9.2617,9.2617,9.2617,9.2617,9.2617,9.2617,9.2617,9.2617,9.2617,9.2617,9.2617,9.2617,9.2617,9.2617,9.2617,9.2617,9.2617,9.2617,9.2617,9.2617,9.2617,9.2617,9.2617,9.2617,9.2617,9.2617,9.2617,9.2617,9.2617,9.2617,9.2617,9.2617,9.2617,9.2617,9.2617,9.2617,9.2617,9.2617,9.2617,9.2617,9.2617,9.2617,9.2617,9.2617,9.2617,9.2617,9.2617,9.2617,9.2617,9.2617,9.2617,9.2617,9.2617,9.2617,9.2617,9.2617,9.2617,9.2617,9.2617,9.2617,9.2617,9.2617,9.2617,9.2617,9.2617,9.2617,9.2617,9.2617,9.2617,9.2617,9.2617,9.2617,9.2617,9.3281,9.4336,9.5937,9.6094,9.6289,9.676,9.6653,9.6519,9.6326,9.6288,9.6288,9.6288,9.6288,9.6288,9.6288,9.6288,9.6634,9.7365,9.8327,9.8788,9.8865,10.0519,10.1289,10.1289,10.1289,10.1289,10.1289,10.1289,10.1289,10.1289,10.1289,10.1289,10.1289,10.1289,10.1289,10.1289,9.2617,9.2617,9.2617,9.2617,9.2617,9.2617,9.2617,9.2617,9.2617,9.2617,9.2617,9.2617,9.2617,9.2617,9.2617,9.2617,9.2617,9.2617,9.2617,9.2617,9.2617,9.2617,9.2617,9.2617,9.2617,9.2617,9.2617,9.2617,9.2617,9.2617,9.2617,9.2617,9.2617,9.2617,9.2617,9.2617,9.2617,9.2617,9.2617,9.2617,9.2617,9.2617,9.2617,9.2617,9.2617,9.2617,9.2617,9.2617,9.2617,9.2617,9.2617,9.2617,9.2617,9.2617,9.2617,9.2617,9.2617,9.2617,9.2617,9.2617,9.2617,9.2617,9.2617,9.2617,9.2617,9.2617,9.2617,9.2617,9.2617,9.2617,9.2617,9.2617,9.2617,9.2617,9.2617,9.2617,9.2617,9.3008,9.3515,9.3984,9.4804,9.5664,9.6445,9.6797,9.7064,9.7199,9.6967,9.6711,9.648,9.6365,9.6288,9.6288,9.6288,9.6288,9.6288,9.6288,9.6711,9.7519,9.8365,9.9058,9.9558,10.0789,10.1289,10.1289,10.1289,10.1289,10.1289,10.1289,10.1289,10.1289,10.1289,10.1289,10.1289,10.1289,10.1289,10.1289]},{"header":{"parameterUnit":"m.s-1","parameterCategory":1,"la1":30.6,"la2":28.766,"lo1":-90.7593,"lo2":-88.6598,"dy":0.0162,"dx":0.0183,"nx":116,"ny":114,"refTime":"2023-04-13T12:00:00:Z","depth":0,"parameterNumber":3,"parameterNumberName":"V-component_of_WINDS"},"data":[0.0,0.0,0.0,0.0,0.0,0.0,0.0,0.0,0.0,0.0,0.0,0.0,0.0,0.0,0.0,0.0,0.0,0.0,0.0,0.0,0.0,0.0,0.0,0.0,0.0,0.0,0.0,0.0,0.0,0.0,0.0,0.0,0.0,0.0,0.0,0.0,0.0,0.0,0.0,0.0,0.0,0.0,0.0,0.0,0.0,0.0,0.0,0.0,0.0,0.0,0.0,0.0,0.0,0.0,0.0,0.0,0.0,0.0,0.0,0.0,0.0,0.0,0.0,0.0,0.0,0.0,0.0,0.0,0.0,0.0,0.0,0.0,0.0,0.0,0.0,0.0,0.0,0.0,0.0,0.0,0.0,0.0,0.0,0.0,0.0,0.0,0.0,0.0,0.0,0.0,0.0,0.0,0.0,0.0,0.0,0.0,0.0,0.0,0.0,0.0,0.0,0.0,0.0,0.0,0.0,0.0,0.0,0.0,0.0,0.0,0.0,0.0,0.0,0.0,0.0,0.0,0.0,0.0,0.0,0.0,0.0,0.0,0.0,0.0,0.0,0.0,0.0,0.0,0.0,0.0,0.0,0.0,0.0,0.0,0.0,0.0,0.0,0.0,0.0,0.0,0.0,0.0,0.0,0.0,0.0,0.0,0.0,0.0,0.0,0.0,0.0,0.0,0.0,0.0,0.0,0.0,0.0,0.0,0.0,0.0,0.0,0.0,0.0,0.0,0.0,0.0,0.0,0.0,0.0,0.0,0.0,0.0,0.0,0.0,0.0,0.0,0.0,0.0,0.0,0.0,0.0,0.0,0.0,0.0,0.0,0.0,0.0,0.0,0.0,0.0,0.0,0.0,0.0,0.0,0.0,0.0,0.0,0.0,0.0,0.0,0.0,0.0,0.0,0.0,0.0,0.0,0.0,0.0,0.0,0.0,0.0,0.0,0.0,0.0,0.0,0.0,0.0,0.0,0.0,0.0,0.0,0.0,0.0,0.0,0.0,0.0,0.0,0.0,0.0,0.0,0.0,0.0,0.0,0.0,0.0,0.0,0.0,0.0,0.0,0.0,0.0,0.0,0.0,0.0,0.0,0.0,0.0,0.0,0.0,0.0,0.0,0.0,0.0,0.0,0.0,0.0,0.0,0.0,0.0,0.0,0.0,0.0,0.0,0.0,0.0,0.0,0.0,0.0,0.0,0.0,0.0,0.0,0.0,0.0,0.0,0.0,0.0,0.0,0.0,0.0,0.0,0.0,0.0,0.0,0.0,0.0,0.0,0.0,0.0,0.0,0.0,0.0,0.0,0.0,0.0,0.0,0.0,0.0,0.0,0.0,0.0,0.0,0.0,0.0,0.0,0.0,0.0,0.0,0.0,0.0,0.0,0.0,0.0,0.0,0.0,0.0,0.0,0.0,0.0,0.0,0.0,0.0,0.0,0.0,0.0,0.0,0.0,0.0,0.0,0.0,0.0,0.0,0.0,0.0,0.0,0.0,0.0,0.0,0.0,0.0,0.0,0.0,0.0,0.0,0.0,0.0,0.0,0.0,0.0,0.0,0.0,0.0,0.0,0.0,0.0,0.0,0.0,0.0,0.0,0.0,0.0,0.0,0.0,0.0,0.0,0.0,0.0,0.0,0.0,0.0,0.0,0.0,0.0,0.0,0.0,0.0,0.0,0.0,0.0,0.0,0.0,0.0,0.0,0.0,0.0,0.0,0.0,0.0,0.0,0.0,0.0,0.0,0.0,0.0,0.0,0.0,0.0,0.0,0.0,0.0,0.0,0.0,0.0,0.0,0.0,0.0,0.0,0.0,0.0,0.0,0.0,0.0,0.0,0.0,0.0,0.0,0.0,0.0,0.0,0.0,0.0,0.0,0.0,0.0,0.0,0.0,0.0,0.0,0.0,0.0,0.0,0.0,0.0,0.0,0.0,0.0,0.0,0.0,0.0,0.0,0.0,0.0,0.0,0.0,0.0,0.0,0.0,0.0,0.0,0.0,0.0,0.0,0.0,0.0,0.0,0.0,0.0,0.0,0.0,0.0,0.0,0.0,0.0,0.0,0.0,0.0,0.0,0.0,0.0,0.0,0.0,0.0,0.0,0.0,0.0,0.0,0.0,0.0,0.0,0.0,0.0,0.0,0.0,0.0,0.0,0.0,0.0,0.0,0.0,0.0,0.0,0.0,0.0,0.0,0.0,0.0,0.0,0.0,0.0,0.0,0.0,0.0,0.0,0.0,0.0,0.0,0.0,0.0,0.0,0.0,0.0,0.0,0.0,0.0,0.0,0.0,0.0,0.0,0.0,0.0,0.0,0.0,0.0,0.0,0.0,0.0,0.0,0.0,0.0,0.0,0.0,0.0,0.0,0.0,0.0,0.0,0.0,0.0,0.0,0.0,0.0,0.0,0.0,0.0,0.0,0.0,0.0,0.0,0.0,0.0,0.0,0.0,0.0,0.0,0.0,0.0,0.0,0.0,0.0,0.0,0.0,0.0,0.0,0.0,0.0,0.0,0.0,0.0,0.0,0.0,0.0,0.0,0.0,0.0,0.0,0.0,0.0,0.0,0.0,0.0,0.0,0.0,0.0,0.0,0.0,0.0,0.0,0.0,0.0,0.0,0.0,0.0,0.0,0.0,0.0,0.0,0.0,0.0,0.0,0.0,0.0,0.0,0.0,0.0,0.0,0.0,0.0,0.0,0.0,0.0,0.0,0.0,0.0,0.0,0.0,0.0,0.0,0.0,0.0,0.0,0.0,0.0,0.0,0.0,0.0,0.0,0.0,0.0,0.0,0.0,0.0,0.0,0.0,0.0,0.0,0.0,0.0,0.0,0.0,0.0,0.0,0.0,0.0,0.0,0.0,0.0,0.0,0.0,0.0,0.0,0.0,0.0,0.0,0.0,0.0,0.0,0.0,0.0,0.0,0.0,0.0,0.0,0.0,0.0,0.0,0.0,0.0,0.0,0.0,0.0,0.0,0.0,0.0,0.0,0.0,0.0,0.0,0.0,0.0,0.0,0.0,0.0,0.0,0.0,0.0,0.0,0.0,0.0,0.0,0.0,0.0,0.0,0.0,0.0,0.0,0.0,0.0,0.0,0.0,0.0,0.0,0.0,0.0,0.0,0.0,0.0,0.0,0.0,0.0,0.0,0.0,0.0,0.0,0.0,0.0,0.0,0.0,0.0,0.0,0.0,0.0,0.0,0.0,0.0,0.0,0.0,0.0,0.0,0.0,0.0,0.0,0.0,0.0,0.0,0.0,0.0,0.0,0.0,0.0,0.0,0.0,0.0,0.0,0.0,0.0,0.0,0.0,0.0,0.0,0.0,0.0,0.0,0.0,0.0,0.0,0.0,0.0,0.0,0.0,0.0,0.0,0.0,0.0,0.0,0.0,0.0,0.0,0.0,0.0,0.0,0.0,0.0,0.0,0.0,0.0,0.0,0.0,0.0,0.0,0.0,0.0,0.0,0.0,0.0,0.0,0.0,0.0,0.0,0.0,0.0,0.0,0.0,0.0,0.0,0.0,0.0,0.0,0.0,0.0,0.0,0.0,0.0,0.0,0.0,0.0,0.0,0.0,0.0,0.0,0.0,0.0,0.0,0.0,0.0,0.0,0.0,0.0,0.0,0.0,0.0,0.0,0.0,0.0,0.0,0.0,0.0,0.0,0.0,0.0,0.0,0.0,0.0,0.0,0.0,0.0,0.0,0.0,0.0,0.0,0.0,0.0,0.0,0.0,0.0,0.0,0.0,0.0,0.0,0.0,0.0,0.0,0.0,0.0,0.0,0.0,0.0,0.0,0.0,0.0,0.0,0.0,0.0,0.0,0.0,0.0,0.0,0.0,0.0,0.0,0.0,0.0,0.0,0.0,0.0,0.0,0.0,0.0,0.0,0.0,0.0,0.0,0.0,0.0,0.0,0.0,0.0,0.0,0.0,0.0,0.0,0.0,0.0,0.0,0.0,0.0,0.0,0.0,0.0,0.0,0.0,0.0,0.0,0.0,0.0,0.0,0.0,0.0,0.0,0.0,0.0,0.0,0.0,0.0,0.0,0.0,0.0,0.0,0.0,0.0,0.0,0.0,0.0,0.0,0.0,0.0,0.0,0.0,0.0,0.0,0.0,0.0,0.0,0.0,0.0,0.0,0.0,0.0,0.0,0.0,0.0,0.0,0.0,0.0,0.0,0.0,0.0,0.0,0.0,0.0,0.0,0.0,0.0,0.0,0.0,0.0,0.0,0.0,0.0,0.0,0.0,0.0,0.0,0.0,0.0,0.0,0.0,0.0,0.0,0.0,0.0,0.0,0.0,0.0,0.0,0.0,0.0,0.0,0.0,0.0,0.0,0.0,0.0,0.0,0.0,0.0,0.0,0.0,0.0,0.0,0.0,0.0,0.0,0.0,0.0,0.0,0.0,0.0,0.0,0.0,0.0,0.0,0.0,0.0,0.0,0.0,0.0,0.0,0.0,0.0,0.0,0.0,0.0,0.0,0.0,0.0,0.0,0.0,0.0,0.0,0.0,0.0,0.0,0.0,0.0,0.0,0.0,0.0,0.0,0.0,0.0,0.0,0.0,0.0,0.0,0.0,0.0,0.0,0.0,0.0,0.0,0.0,0.0,0.0,0.0,0.0,0.0,0.0,0.0,0.0,0.0,0.0,0.0,0.0,0.0,0.0,0.0,0.0,0.0,0.0,0.0,0.0,0.0,0.0,0.0,0.0,0.0,0.0,0.0,0.0,0.0,0.0,0.0,0.0,0.0,0.0,0.0,0.0,0.0,0.0,0.0,0.0,0.0,0.0,0.0,0.0,0.0,0.0,0.0,0.0,0.0,0.0,0.0,0.0,0.0,0.0,0.0,0.0,0.0,0.0,0.0,0.0,0.0,0.0,0.0,0.0,0.0,0.0,0.0,0.0,0.0,0.0,0.0,0.0,0.0,0.0,0.0,0.0,0.0,0.0,0.0,0.0,0.0,0.0,0.0,0.0,0.0,0.0,0.0,0.0,0.0,0.0,0.0,0.0,0.0,0.0,0.0,0.0,0.0,0.0,0.0,0.0,0.0,0.0,0.0,0.0,0.0,0.0,0.0,0.0,0.0,0.0,0.0,0.0,0.0,0.0,0.0,0.0,0.0,0.0,0.0,0.0,0.0,0.0,0.0,0.0,0.0,0.0,0.0,0.0,0.0,0.0,0.0,0.0,0.0,0.0,0.0,0.0,0.0,0.0,0.0,0.0,0.0,0.0,0.0,0.0,0.0,0.0,0.0,0.0,0.0,0.0,0.0,0.0,0.0,0.0,0.0,0.0,0.0,0.0,0.0,0.0,0.0,0.0,0.0,0.0,0.0,0.0,0.0,0.0,0.0,0.0,0.0,0.0,0.0,0.0,0.0,0.0,0.0,0.0,0.0,0.0,0.0,0.0,0.0,0.0,0.0,0.0,0.0,0.0,0.0,0.0,0.0,0.0,0.0,0.0,0.0,0.0,0.0,0.0,0.0,0.0,0.0,0.0,0.0,0.0,0.0,0.0,0.0,0.0,0.0,0.0,0.0,0.0,0.0,0.0,0.0,0.0,0.0,0.0,0.0,0.0,0.0,0.0,0.0,0.0,0.0,0.0,0.0,0.0,0.0,0.0,0.0,0.0,0.0,0.0,0.0,0.0,0.0,0.0,0.0,0.0,0.0,0.0,0.0,0.0,0.0,0.0,0.0,0.0,0.0,0.0,0.0,0.0,0.0,0.0,0.0,0.0,0.0,0.0,0.0,0.0,0.0,0.0,0.0,0.0,0.0,0.0,0.0,0.0,0.0,0.0,0.0,0.0,0.0,0.0,0.0,0.0,0.0,0.0,0.0,0.0,0.0,0.0,0.0,0.0,0.0,0.0,0.0,0.0,0.0,0.0,0.0,0.0,0.0,0.0,0.0,0.0,0.0,0.0,0.0,0.0,0.0,0.0,0.0,0.0,0.0,0.0,0.0,0.0,0.0,0.0,0.0,0.0,0.0,0.0,0.0,0.0,0.0,0.0,0.0,0.0,0.0,0.0,0.0,0.0,0.0,0.0,0.0,0.0,0.0,0.0,0.0,0.0,0.0,0.0,0.0,0.0,0.0,0.0,0.0,-1.9125,0.0,0.0,0.0,0.0,0.0,0.0,0.0,0.0,0.0,0.0,0.0,0.0,0.0,0.0,0.0,0.0,0.0,0.0,0.0,0.0,0.0,0.0,0.0,0.0,0.0,0.0,0.0,0.0,0.0,0.0,0.0,0.0,0.0,0.0,0.0,0.0,0.0,0.0,0.0,0.0,0.0,0.0,0.0,0.0,0.0,0.0,0.0,0.0,0.0,0.0,0.0,0.0,0.0,0.0,0.0,0.0,0.0,0.0,0.0,0.0,0.0,0.0,0.0,0.0,0.0,0.0,0.0,0.0,0.0,0.0,0.0,0.0,0.0,0.0,0.0,0.0,0.0,0.0,0.0,0.0,0.0,0.0,0.0,0.0,0.0,0.0,0.0,0.0,0.0,0.0,0.0,0.0,0.0,0.0,0.0,0.0,0.0,0.0,0.0,0.0,0.0,0.0,0.0,0.0,0.0,0.0,0.0,0.0,0.0,0.0,0.0,0.0,0.0,0.0,0.0,0.0,-1.8905,0.0,0.0,0.0,0.0,0.0,0.0,0.0,0.0,0.0,0.0,0.0,0.0,0.0,0.0,0.0,0.0,0.0,0.0,0.0,0.0,0.0,0.0,0.0,0.0,0.0,0.0,0.0,0.0,0.0,0.0,0.0,0.0,0.0,0.0,0.0,0.0,0.0,0.0,0.0,0.0,0.0,0.0,0.0,0.0,0.0,0.0,0.0,0.0,0.0,0.0,0.0,0.0,0.0,0.0,0.0,0.0,0.0,0.0,0.0,0.0,0.0,0.0,0.0,0.0,0.0,0.0,0.0,0.0,0.0,0.0,0.0,0.0,0.0,0.0,0.0,0.0,0.0,0.0,0.0,0.0,0.0,0.0,0.0,0.0,0.0,0.0,0.0,0.0,0.0,0.0,0.0,0.0,0.0,0.0,0.0,0.0,0.0,0.0,0.0,0.0,0.0,0.0,0.0,0.0,0.0,0.0,0.0,0.0,-1.9372,-1.9399,-1.9439,-1.9439,-1.9466,-1.9519,-1.9519,-1.9466,-1.9372,0.0,0.0,0.0,0.0,0.0,0.0,0.0,0.0,0.0,0.0,0.0,0.0,0.0,0.0,0.0,0.0,0.0,0.0,0.0,0.0,0.0,0.0,0.0,0.0,0.0,0.0,0.0,0.0,0.0,0.0,0.0,0.0,0.0,0.0,0.0,0.0,0.0,0.0,0.0,0.0,0.0,0.0,0.0,0.0,0.0,0.0,0.0,0.0,0.0,0.0,0.0,0.0,0.0,0.0,0.0,0.0,0.0,0.0,0.0,0.0,0.0,0.0,0.0,0.0,0.0,0.0,0.0,0.0,0.0,0.0,0.0,0.0,0.0,0.0,0.0,0.0,0.0,0.0,0.0,0.0,0.0,0.0,0.0,0.0,0.0,0.0,0.0,-2.2241,-2.2485,0.0,0.0,0.0,0.0,0.0,0.0,0.0,0.0,0.0,0.0,0.0,0.0,0.0,0.0,-1.9305,-1.9345,-1.9372,-1.9372,-1.9372,-1.9506,-1.9746,-1.9746,-1.988,-2.012,-2.012,0.0,-1.9372,-1.9372,0.0,0.0,0.0,0.0,0.0,0.0,0.0,0.0,0.0,0.0,0.0,0.0,0.0,0.0,0.0,0.0,0.0,0.0,0.0,0.0,0.0,0.0,0.0,0.0,0.0,0.0,0.0,0.0,0.0,0.0,0.0,0.0,0.0,0.0,0.0,0.0,0.0,0.0,0.0,0.0,0.0,0.0,0.0,0.0,0.0,0.0,0.0,0.0,0.0,0.0,0.0,0.0,0.0,0.0,0.0,0.0,0.0,0.0,0.0,0.0,0.0,0.0,0.0,0.0,0.0,0.0,0.0,0.0,0.0,0.0,0.0,0.0,0.0,0.0,0.0,0.0,0.0,0.0,0.0,0.0,0.0,0.0,0.0,0.0,0.0,-2.1675,-2.2144,-2.1448,-2.1635,-2.2071,0.0,0.0,0.0,0.0,0.0,0.0,0.0,0.0,0.0,-2.0371,-1.9707,-1.9452,-1.9613,-1.9613,-1.9693,-1.9853,-1.9853,-1.992,-2.004,-2.004,-2.0107,-2.0227,-2.0227,-2.0094,-1.9853,-1.9853,-1.9853,-1.9853,0.0,0.0,0.0,0.0,-2.004,-2.0054,0.0,0.0,0.0,0.0,0.0,0.0,0.0,0.0,0.0,0.0,0.0,0.0,0.0,0.0,0.0,-1.5044,0.0,0.0,0.0,0.0,0.0,0.0,0.0,0.0,0.0,0.0,0.0,0.0,0.0,0.0,0.0,0.0,0.0,0.0,0.0,0.0,0.0,0.0,-1.7582,0.0,0.0,0.0,0.0,0.0,0.0,0.0,0.0,0.0,0.0,0.0,0.0,0.0,0.0,0.0,0.0,0.0,0.0,0.0,0.0,0.0,0.0,0.0,0.0,0.0,0.0,0.0,0.0,0.0,0.0,0.0,0.0,0.0,0.0,0.0,0.0,0.0,0.0,-2.1278,-2.1309,-2.0317,-2.0536,-2.1115,0.0,0.0,0.0,0.0,0.0,0.0,-1.9479,-1.9479,-1.9506,-1.9586,-1.9586,-1.9693,-1.9907,-1.9907,-2.0013,-2.0227,-2.0307,-2.0388,-2.0454,-2.0535,-2.0615,-2.0681,-2.0681,-2.0681,-2.0655,-2.0361,-2.0227,-2.0227,-2.0227,-2.0227,-2.0241,-2.0321,-2.0388,-2.0468,0.0,0.0,0.0,0.0,0.0,0.0,0.0,0.0,0.0,0.0,0.0,0.0,0.0,0.0,-1.475,-1.5324,-1.5391,-1.5511,0.0,0.0,0.0,0.0,0.0,0.0,0.0,0.0,0.0,0.0,0.0,0.0,0.0,0.0,0.0,0.0,0.0,0.0,0.0,0.0,0.0,-1.7582,0.0,0.0,0.0,0.0,0.0,0.0,0.0,0.0,0.0,0.0,0.0,0.0,0.0,0.0,0.0,0.0,0.0,0.0,0.0,0.0,0.0,0.0,0.0,0.0,0.0,0.0,0.0,0.0,0.0,0.0,0.0,0.0,0.0,0.0,0.0,0.0,0.0,0.0,0.0,-1.9394,-1.9448,0.0,0.0,0.0,0.0,-1.9475,-1.9488,-1.9492,-1.976,-1.9773,-1.9907,-2.0187,-2.0187,-2.0201,-2.0214,-2.0214,-2.0214,-2.0241,-2.0521,-2.0802,-2.1082,-2.1363,-2.1643,-2.1897,-2.1897,-2.1897,-2.1804,-2.0695,-2.0227,-2.0227,-2.0227,-2.0227,-2.0267,-2.0548,-2.0828,-2.1109,0.0,0.0,0.0,0.0,0.0,0.0,0.0,0.0,0.0,0.0,0.0,0.0,0.0,-1.4977,-1.5244,-1.5645,-1.5671,-1.5712,-1.5818,0.0,0.0,0.0,0.0,0.0,0.0,0.0,0.0,0.0,0.0,0.0,0.0,0.0,0.0,0.0,0.0,0.0,0.0,0.0,-1.817,-1.817,-1.817,-1.817,0.0,0.0,0.0,0.0,0.0,0.0,0.0,0.0,0.0,0.0,0.0,0.0,0.0,0.0,0.0,0.0,0.0,0.0,0.0,0.0,0.0,0.0,0.0,0.0,0.0,0.0,0.0,0.0,0.0,0.0,0.0,0.0,0.0,0.0,0.0,0.0,0.0,-1.9461,-1.9372,0.0,-1.9372,-1.9533,-1.9639,-1.9639,-1.9813,-1.9973,-2.0067,-2.008,-2.012,-2.0227,-2.0414,-2.0601,-2.0802,-2.0989,-2.1176,-2.1363,-2.147,-2.1577,-2.167,-2.1777,-2.1884,-2.1991,-2.1991,-2.1991,-2.1951,-2.1537,-2.1363,-2.1363,-2.1363,-2.1363,-2.1376,-2.1483,-2.159,-2.1697,0.0,0.0,0.0,0.0,0.0,0.0,0.0,0.0,0.0,0.0,0.0,-1.4629,-1.4937,-1.5217,-1.5511,-1.5805,-1.5832,-1.5872,-1.5979,0.0,0.0,0.0,0.0,0.0,0.0,0.0,0.0,0.0,0.0,0.0,0.0,0.0,0.0,0.0,0.0,0.0,0.0,0.0,-1.8677,-1.849,-1.849,-1.849,-1.849,0.0,0.0,0.0,0.0,0.0,0.0,0.0,0.0,0.0,0.0,0.0,0.0,0.0,0.0,0.0,0.0,0.0,0.0,0.0,0.0,0.0,0.0,0.0,0.0,0.0,0.0,0.0,0.0,0.0,0.0,0.0,0.0,0.0,0.0,0.0,-2.0472,-1.9475,-1.9452,-1.9506,-1.9506,-1.9773,-1.9947,-1.9947,-2.012,-2.0321,-2.0521,-2.0521,-2.0615,-2.0815,-2.1015,-2.1216,-2.1403,-2.1697,-2.1937,-2.2138,-2.2338,-2.2445,-2.2445,-2.2539,-2.2592,-2.2592,-2.2592,-2.2592,-2.2592,-2.2592,-2.2592,-2.2552,-2.2138,-2.1991,-2.1991,-2.1991,-2.2044,-2.2164,0.0,0.0,0.0,0.0,0.0,0.0,0.0,0.0,0.0,0.0,-1.4349,-1.4643,-1.4937,-1.5231,-1.5524,-1.5805,-1.5832,-1.5952,-1.6259,-1.6286,0.0,0.0,0.0,0.0,0.0,0.0,0.0,0.0,0.0,0.0,0.0,0.0,0.0,0.0,0.0,0.0,0.0,-1.9372,-1.9038,-1.8517,-1.8517,-1.8517,-1.8517,0.0,0.0,0.0,0.0,0.0,0.0,0.0,0.0,0.0,0.0,0.0,0.0,0.0,0.0,0.0,0.0,0.0,0.0,0.0,0.0,0.0,0.0,0.0,0.0,0.0,0.0,0.0,0.0,0.0,0.0,0.0,0.0,0.0,-1.9372,-1.9372,-1.9386,-1.9386,-1.9639,-1.9813,-1.9813,-2.008,-2.0254,-2.0254,-2.0281,-2.0535,-2.1109,-2.1136,-2.1403,-2.1977,-2.2004,-2.2017,-2.2031,-2.2311,-2.2458,-2.2472,-2.306,-2.334,-2.3354,-2.3634,-2.3768,-2.3768,-2.3781,-2.3781,-2.3768,-2.3781,-2.3781,-2.3661,-2.2498,-2.2044,-2.2044,-2.2044,-2.2218,-2.2552,0.0,0.0,0.0,0.0,0.0,0.0,0.0,0.0,0.0,0.0,-1.4522,-1.487,-1.495,-1.5404,-1.5738,-1.5818,-1.5832,-1.5952,-1.6259,0.0,0.0,0.0,0.0,0.0,0.0,0.0,0.0,0.0,0.0,0.0,0.0,0.0,0.0,0.0,0.0,0.0,-1.9372,-1.9372,-1.9279,-1.9132,-1.9132,-1.9132,-1.9132,0.0,0.0,0.0,0.0,0.0,0.0,0.0,0.0,0.0,0.0,0.0,0.0,0.0,0.0,0.0,0.0,0.0,0.0,0.0,0.0,0.0,0.0,0.0,0.0,0.0,0.0,0.0,0.0,0.0,0.0,0.0,0.0,-1.9613,-1.9399,-1.9546,-1.9679,-1.9679,-1.9933,-2.0107,-2.0107,-2.0575,-2.0869,-2.0869,-2.1269,-2.1577,-2.1737,-2.175,-2.1911,-2.2285,-2.2512,-2.2726,-2.2953,-2.3247,-2.3394,-2.3407,-2.3567,-2.3647,-2.3647,-2.3728,-2.3768,-2.3781,-2.3995,-2.3968,-2.3794,-2.3995,-2.3968,-2.3741,-2.3407,-2.3273,-2.3273,-2.3273,-2.3327,-2.342,0.0,0.0,0.0,0.0,0.0,0.0,0.0,0.0,0.0,0.0,-1.4669,-1.5017,-1.5137,-1.5551,-1.5832,-1.5832,-1.5939,-1.6139,-1.6433,0.0,0.0,0.0,0.0,0.0,0.0,0.0,0.0,0.0,0.0,0.0,0.0,0.0,0.0,0.0,0.0,-1.9372,-1.9372,-1.9372,-1.9372,-1.9372,-1.9372,-1.9372,-1.9372,-1.9372,-1.9265,-1.9105,-1.9105,-1.8998,-1.8865,-1.8865,0.0,0.0,0.0,0.0,0.0,0.0,0.0,0.0,0.0,0.0,0.0,0.0,0.0,0.0,0.0,0.0,0.0,0.0,0.0,0.0,0.0,0.0,0.0,0.0,-1.9987,-1.992,-1.976,-1.988,-2.0027,-2.016,-2.0428,-2.0655,-2.0775,-2.1203,-2.1483,-2.1483,-2.1911,-2.2218,-2.2352,-2.2472,-2.2686,-2.2979,-2.3153,-2.3394,-2.3688,-2.3981,-2.4195,-2.4315,-2.4449,-2.4502,-2.4502,-2.4502,-2.4502,0.0,-2.4676,-2.4649,-2.4516,-2.469,-2.4649,0.0,0.0,0.0,0.0,0.0,-2.3768,-2.3794,0.0,0.0,0.0,0.0,0.0,0.0,0.0,0.0,0.0,0.0,0.0,-1.507,-1.5364,-1.5658,-1.5832,-1.5832,-1.6099,-1.6406,0.0,0.0,0.0,0.0,0.0,0.0,0.0,0.0,0.0,0.0,0.0,0.0,0.0,0.0,0.0,0.0,-1.9372,-1.9372,-1.9372,-1.9372,-1.9372,-1.9372,-1.9372,-1.9372,-1.9372,-1.9372,-1.9372,-1.9372,-1.9372,-1.9372,-1.9372,-1.9372,0.0,0.0,0.0,0.0,0.0,0.0,0.0,0.0,0.0,0.0,0.0,0.0,0.0,0.0,0.0,0.0,0.0,0.0,0.0,0.0,0.0,0.0,0.0,0.0,-2.0307,-2.0347,-2.0374,-2.0414,-2.0508,-2.0695,-2.1015,-2.1323,-2.1617,-2.1911,-2.2098,-2.2138,-2.2405,-2.2686,-2.2953,0.0,0.0,0.0,0.0,-2.4022,-2.4342,-2.4609,-2.4863,-2.513,-2.5384,-2.5518,-2.5518,-2.5518,-2.5518,-2.5518,-2.5545,-2.5545,-2.5518,-2.5545,-2.5545,-2.5411,-2.4369,-2.3968,-2.3968,-2.3968,-2.3968,-2.4008,0.0,0.0,0.0,0.0,0.0,0.0,0.0,0.0,0.0,-1.4482,-1.4776,-1.507,-1.5364,-1.5658,-1.5832,-1.5832,-1.6099,-1.65,0.0,0.0,0.0,0.0,0.0,0.0,0.0,0.0,0.0,0.0,0.0,0.0,0.0,0.0,-1.9372,-1.9372,-1.9372,-1.9372,-1.9372,-1.9372,-1.9372,-1.9372,-1.9372,-1.9372,-1.9372,-1.9372,-1.9372,-1.9372,-1.9372,-1.9372,-1.9372,-1.9372,-1.9372,-1.9372,-1.9372,0.0,0.0,0.0,0.0,0.0,0.0,0.0,0.0,0.0,0.0,0.0,0.0,0.0,0.0,0.0,0.0,0.0,0.0,0.0,0.0,-2.0548,-2.0788,-2.1029,-2.1269,-2.1496,-2.1496,-2.1069,-2.1496,-2.1924,-2.2218,-2.2512,-2.2792,-2.3046,-2.334,-2.3541,-2.3594,-2.3661,0.0,-2.4449,-2.4476,-2.4716,-2.5251,-2.5317,-2.5371,-2.5424,0.0,0.0,-2.5518,-2.5518,-2.5518,-2.5531,-2.5772,-2.5732,-2.5531,-2.5772,-2.5732,-2.5491,-2.5264,-2.517,-2.517,-2.517,-2.517,-2.5184,0.0,0.0,0.0,0.0,0.0,0.0,0.0,0.0,0.0,0.0,-1.487,-1.5124,-1.5565,-1.5738,-1.5832,-1.5832,-1.6233,0.0,0.0,0.0,0.0,0.0,0.0,0.0,0.0,0.0,0.0,0.0,0.0,0.0,0.0,-1.9372,-1.9372,-1.9372,-1.9519,-1.9586,-1.9586,-1.9586,-1.9586,-1.9573,-1.9426,-1.9372,-1.9372,-1.9372,-1.9372,-1.9372,-1.9372,-1.9372,-1.9372,-1.9372,-1.9372,-1.9372,-1.9372,-1.9372,-1.9372,0.0,0.0,0.0,0.0,0.0,0.0,0.0,0.0,0.0,0.0,0.0,0.0,0.0,0.0,-2.0107,0.0,0.0,-2.0601,-2.1042,-2.1243,-2.143,-2.1724,-2.2151,-2.2311,-2.2017,-2.2245,-2.2605,-2.3046,-2.3233,-2.338,-2.3541,-2.3955,-2.4209,-2.4209,-2.4476,-2.477,-2.5064,-2.5077,-2.5291,-2.5732,-2.5732,-2.5812,-2.5945,-2.5945,-2.5945,-2.5945,-2.5945,-2.5945,-2.5959,-2.6106,-2.6092,-2.5959,-2.6106,-2.6079,-2.5945,-2.5945,-2.5772,-2.5518,-2.5518,-2.5518,-2.5518,0.0,0.0,0.0,0.0,0.0,0.0,0.0,0.0,0.0,0.0,-1.4963,-1.5177,-1.5765,-1.5832,-1.5872,0.0,0.0,0.0,0.0,0.0,0.0,0.0,0.0,0.0,0.0,0.0,0.0,0.0,0.0,-1.9372,-1.9372,-1.9372,-1.9399,-1.9466,-1.9693,-1.9826,-1.988,-1.988,-1.9853,-1.9773,-1.9546,-1.9412,-1.9372,-1.9372,-1.9372,-1.9372,-1.9372,-1.9372,-1.9372,-1.9372,-1.9372,-1.9372,-1.9372,-1.9372,-1.9372,-1.9372,-1.9372,0.0,0.0,0.0,0.0,0.0,0.0,0.0,0.0,0.0,-1.996,-2.0254,-2.0321,-2.0428,-2.0775,-2.0842,-2.1015,-2.155,-2.1737,-2.1897,-2.2124,-2.2659,-2.306,-2.3113,-2.3073,-2.326,-2.3808,-2.3901,-2.3968,-2.4022,-2.4516,-2.481,-2.481,-2.5251,-2.5545,-2.5598,-2.5598,-2.5745,-2.6039,-2.6039,-2.6159,-2.6386,-2.6386,-2.6386,-2.6386,-2.6386,-2.6386,-2.6386,-2.6386,-2.6386,-2.6386,-2.6386,-2.6386,-2.6386,-2.6386,-2.6106,-2.5678,-2.5678,-2.5678,-2.5678,0.0,0.0,0.0,0.0,0.0,0.0,0.0,0.0,0.0,0.0,0.0,0.0,0.0,0.0,0.0,0.0,0.0,0.0,0.0,0.0,0.0,0.0,0.0,0.0,0.0,-1.9038,-1.9332,-1.9372,-1.9372,-1.9372,-1.9372,-1.9372,-1.9506,-1.976,-1.9786,-1.9947,-2.0187,-2.0187,-2.004,-1.98,-1.976,-1.9599,-1.9372,-1.9372,-1.9372,-1.9372,-1.9372,-1.9372,-1.9372,-1.9372,-1.9372,-1.9372,-1.9372,-1.9372,-1.9372,-1.9372,0.0,-1.9372,-1.9372,-1.9559,-1.9813,-2.0067,-2.0134,-2.0147,0.0,0.0,-2.0267,-2.0561,-2.0628,-2.0802,-2.1349,-2.1456,-2.1563,-2.1884,-2.2378,-2.2726,-2.2766,-2.3287,-2.3768,-2.4022,-2.3821,-2.3794,-2.4128,-2.4382,-2.4649,-2.4917,-2.5237,-2.5411,-2.5411,-2.5478,-2.5638,-2.5892,-2.5905,-2.6052,-2.6333,-2.6346,-2.636,-2.6386,-2.6386,-2.6386,-2.6386,-2.6386,-2.6386,-2.6386,-2.6386,-2.6386,-2.6386,-2.6386,-2.6386,-2.6386,-2.6386,-2.6346,-2.6293,-2.6293,-2.6293,-2.6293,0.0,0.0,0.0,0.0,0.0,0.0,0.0,0.0,0.0,0.0,0.0,0.0,0.0,0.0,0.0,0.0,0.0,0.0,0.0,0.0,0.0,-1.7849,-1.8263,-1.8571,-1.8744,-1.9158,-1.9372,-1.9372,-1.9372,-1.9372,-1.9372,-1.9372,-1.9439,-1.9559,-1.972,-1.9867,-1.9987,-1.9987,-1.9907,-1.9786,-1.9613,-1.9479,-1.9372,-1.9372,-1.9372,-1.9372,-1.9372,-1.9372,0.0,0.0,-1.9372,-1.9372,-1.9372,-1.9372,-1.9399,-1.9573,-1.9626,0.0,-1.9826,-1.996,0.0,0.0,-2.0227,-2.0281,-2.0454,-2.0494,-2.0628,-2.1082,-2.1189,-2.1309,-2.1724,-2.1804,-2.1964,0.0,-2.2699,-2.2979,-2.334,-2.3754,-2.4128,-2.4422,-2.4502,-2.4583,-2.4703,-2.497,-2.5197,-2.5317,-2.5598,-2.5772,-2.5772,-2.5932,-2.6079,-2.6199,-2.6213,-2.6266,-2.6386,-2.6386,-2.648,-2.664,-2.664,-2.6734,-2.6894,-2.6894,-2.6894,-2.6894,-2.6894,-2.6894,-2.6894,-2.6894,-2.6894,-2.6894,-2.6894,-2.6894,-2.6854,-2.652,-2.6386,-2.6386,0.0,0.0,0.0,0.0,0.0,0.0,0.0,0.0,0.0,0.0,0.0,0.0,0.0,0.0,0.0,0.0,0.0,0.0,0.0,-1.7582,-1.7716,-1.8036,-1.833,0.0,-1.8918,-1.9212,-1.9372,-1.9372,-1.9372,-1.9372,-1.9372,-1.9372,-1.9412,-1.9492,-1.9706,-1.984,-1.992,-1.992,-1.9867,-1.9786,-1.9573,-1.9439,-1.9372,-1.9372,-1.9412,-1.9479,-1.9399,-1.9372,0.0,0.0,-1.9492,-1.9506,-1.9586,-1.9599,-1.9653,-1.9853,-1.992,-1.9987,-2.0281,0.0,0.0,-2.0454,-2.0468,-2.0548,-2.0855,-2.0922,-2.1069,-2.1563,-2.167,-2.1764,-2.2044,-2.2178,-2.2392,-2.2913,-2.3126,-2.342,-2.3941,-2.4262,-2.4556,-2.485,-2.5144,-2.5317,-2.5317,-2.5518,-2.5638,-2.5638,-2.5905,-2.6079,-2.6079,-2.6279,-2.6386,-2.6386,-2.6466,-2.6507,-2.6507,-2.6587,-2.6734,-2.6947,-2.6947,-2.7054,-2.7268,-2.7268,-2.7268,-2.7268,-2.7268,-2.7268,-2.7268,-2.7268,-2.7268,-2.7268,-2.7268,-2.7268,-2.7215,-2.6787,-2.6627,-2.6627,0.0,0.0,0.0,0.0,0.0,0.0,0.0,0.0,0.0,0.0,0.0,0.0,0.0,0.0,0.0,0.0,0.0,0.0,0.0,-1.7582,-1.7716,-1.8036,-1.833,-1.8624,-1.8918,-1.9212,-1.9372,-1.9372,-1.9372,-1.9372,-1.9372,-1.9372,-1.9519,-1.9786,-1.98,-1.996,-2.0214,-2.0214,-2.0054,-1.98,-1.9786,-1.9626,-1.9372,-1.9372,-1.9546,-1.9746,-1.9466,0.0,0.0,0.0,-1.9786,-1.984,-2.012,-2.0214,0.0,-2.0214,-2.0214,0.0,0.0,0.0,-2.0735,-2.1015,-2.1082,-2.1162,-2.1456,-2.1523,-2.1617,-2.1911,-2.1977,-2.2058,-2.2352,-2.2645,-2.2939,-2.326,-2.3794,-2.4262,-2.4569,-2.4863,-2.5157,-2.5451,-2.5745,-2.5932,0.0,-2.5932,-2.5945,-2.5945,-2.6213,-2.6373,-2.6373,-2.6386,-2.6386,-2.6386,-2.6667,-2.6814,-2.6814,-2.7094,-2.7241,-2.7255,-2.7255,-2.7255,-2.7268,-2.7268,-2.7268,-2.7268,-2.7268,-2.7268,-2.7268,-2.7268,-2.7268,-2.7268,-2.7268,-2.7268,-2.7268,-2.7241,-2.7241,-2.7241,0.0,0.0,0.0,0.0,0.0,0.0,0.0,0.0,0.0,0.0,0.0,0.0,0.0,0.0,0.0,0.0,0.0,0.0,0.0,-1.7582,-1.7809,-1.8317,-1.8437,-1.8718,-1.9212,-1.9319,-1.9372,-1.9372,-1.9372,-1.9372,-1.9372,-1.9372,-1.9412,-1.9506,-1.9506,-1.9559,-1.9653,-1.9653,-1.9599,-1.9506,-1.9506,-1.9452,-1.9386,-1.9586,-1.972,-1.9813,0.0,0.0,0.0,0.0,0.0,0.0,-2.0201,0.0,0.0,-2.0468,0.0,-2.0842,0.0,0.0,-2.1029,-2.1336,-2.1403,-2.1483,-2.1777,-2.1844,-2.1924,-2.2218,-2.2271,-2.2432,-2.2926,-2.31,-2.334,-2.3834,-2.4235,-2.4596,-2.489,-2.5184,-2.5478,-2.5772,-2.5892,0.0,0.0,0.0,0.0,-2.6239,-2.6333,-2.6386,-2.6386,-2.6573,-2.668,-2.668,-2.6961,-2.7121,-2.7121,-2.7215,-2.7362,-2.7549,-2.7749,-2.7843,-2.7843,-2.7843,-2.7963,-2.815,-2.815,-2.827,-2.8444,-2.8444,-2.8444,-2.8444,-2.8444,-2.8444,-2.8444,-2.8444,-2.8444,-2.8323,0.0,0.0,0.0,0.0,0.0,0.0,0.0,0.0,0.0,0.0,0.0,0.0,0.0,0.0,0.0,0.0,0.0,0.0,0.0,0.0,-1.7849,-1.8464,-1.849,-1.8771,-1.9359,-1.9372,-1.9372,-1.9372,-1.9372,-1.9372,-1.9372,-1.9372,-1.9372,-1.9372,-1.9372,-1.9372,-1.9372,-1.9372,-1.9372,-1.9372,-1.9372,-1.9426,-1.9546,-1.9733,-1.9933,0.0,0.0,0.0,0.0,0.0,0.0,0.0,0.0,0.0,0.0,0.0,-2.0962,-2.1136,-2.1243,-2.1269,-2.1336,-2.163,-2.171,-2.1777,-2.2071,-2.2138,-2.2231,-2.2512,-2.2672,-2.2859,-2.326,-2.35,-2.3794,-2.4275,-2.4596,-2.493,-2.5331,-2.5558,-2.5785,-2.6079,-2.6106,-2.6186,0.0,0.0,0.0,-2.64,-2.6493,-2.6547,-2.6547,-2.6827,-2.6987,-2.6987,-2.7268,-2.7415,-2.7415,-2.7642,-2.7896,-2.8177,-2.8377,-2.8457,-2.8457,-2.8457,-2.8577,-2.8764,-2.8764,-2.8871,-2.9045,-2.9045,-2.9045,-2.9045,-2.9045,-2.9045,-2.9045,-2.9045,-2.9045,-2.8938,0.0,0.0,0.0,0.0,0.0,0.0,0.0,0.0,0.0,0.0,0.0,0.0,0.0,0.0,0.0,0.0,0.0,0.0,0.0,0.0,0.0,-1.8464,-1.849,-1.8771,-1.9359,-1.9372,-1.9372,-1.9372,-1.9372,-1.9372,-1.9372,-1.9372,-1.9372,-1.9372,-1.9372,-1.9372,-1.9372,-1.9372,-1.9372,-1.9372,-1.9372,-1.9533,-1.9786,-1.9813,0.0,0.0,0.0,0.0,0.0,0.0,0.0,0.0,0.0,0.0,0.0,0.0,0.0,-2.1203,-2.1496,-2.1577,-2.1643,-2.1951,-2.2031,-2.2111,-2.2418,-2.2485,-2.2565,-2.2846,-2.314,-2.3354,0.0,0.0,-2.4302,-2.4609,-2.4903,-2.5304,-2.5879,-2.5972,-2.6079,0.0,0.0,0.0,0.0,0.0,0.0,-2.6453,0.0,-2.6841,-2.6841,-2.7121,-2.7281,-2.7281,-2.7589,-2.7749,-2.7749,-2.8337,-2.8764,-2.9045,-2.9045,-2.9045,-2.9045,-2.9045,-2.9045,-2.9058,-2.9058,-2.9072,-2.9085,-2.9085,-2.9085,-2.9085,-2.9085,-2.9085,-2.9085,-2.9085,-2.9085,-2.9085,0.0,0.0,0.0,0.0,0.0,0.0,0.0,0.0,0.0,0.0,0.0,0.0,0.0,0.0,0.0,0.0,0.0,0.0,0.0,0.0,0.0,0.0,0.0,0.0,0.0,0.0,0.0,0.0,0.0,-1.9372,-1.9372,-1.9372,-1.9372,-1.9372,-1.9372,-1.9372,-1.9372,-1.9372,-1.9372,-1.9372,0.0,-1.9412,-1.9533,0.0,0.0,0.0,0.0,0.0,0.0,0.0,0.0,0.0,0.0,0.0,-2.1149,0.0,0.0,-2.151,-2.1804,-2.1871,-2.2004,-2.2512,-2.2645,-2.2779,-2.33,-2.342,-2.3447,-2.3527,-2.3607,-2.3728,0.0,0.0,0.0,-2.489,-2.5211,0.0,-2.5905,-2.6146,0.0,0.0,0.0,-2.648,-2.6694,-2.6774,0.0,0.0,-2.7108,-2.7148,-2.7148,-2.7428,-2.7589,-2.7589,-2.8096,-2.8377,-2.8377,-2.8738,-2.8965,-2.9045,-2.9045,-2.9045,-2.9045,-2.9045,-2.9165,-2.9366,-2.9366,-2.9486,-2.97,-2.97,-2.97,-2.97,-2.97,-2.97,-2.97,-2.97,-2.97,-2.97,0.0,0.0,0.0,0.0,0.0,0.0,0.0,0.0,0.0,0.0,0.0,0.0,0.0,0.0,0.0,0.0,0.0,0.0,0.0,0.0,0.0,0.0,0.0,0.0,0.0,0.0,0.0,0.0,0.0,0.0,0.0,-1.9372,-1.9372,-1.9372,-1.9372,-1.9372,-1.9372,-1.9372,0.0,0.0,0.0,0.0,0.0,0.0,0.0,0.0,0.0,0.0,0.0,0.0,0.0,-2.1109,-2.1109,-2.1203,-2.1336,-2.151,0.0,-2.183,-2.2258,-2.2365,-2.2512,-2.3113,-2.326,-2.3354,-2.3688,-2.3768,-2.3768,-2.3768,-2.3875,0.0,0.0,0.0,0.0,0.0,0.0,0.0,-2.6106,-2.6293,-2.644,0.0,-2.6587,0.0,-2.6987,-2.7134,-2.7281,0.0,-2.7455,-2.7455,-2.7455,-2.7869,-2.8096,-2.8096,-2.8551,-2.8858,-2.8991,-2.9152,-2.9299,-2.9419,-2.9419,-2.9419,-2.9419,-2.9419,-2.9513,-2.9673,0.0,-2.9833,-3.0114,-3.0114,-3.0181,-3.0301,-3.0301,-3.0301,-3.0301,-3.0301,-3.0301,-3.0301,0.0,0.0,0.0,0.0,0.0,0.0,0.0,0.0,0.0,0.0,0.0,0.0,0.0,0.0,0.0,0.0,0.0,0.0,0.0,0.0,0.0,0.0,0.0,0.0,0.0,0.0,0.0,0.0,0.0,0.0,0.0,0.0,0.0,0.0,0.0,0.0,0.0,0.0,0.0,0.0,0.0,0.0,0.0,0.0,0.0,0.0,0.0,0.0,0.0,0.0,-2.1109,-2.1122,-2.1162,-2.1349,-2.1563,-2.1643,-2.1844,-2.2164,-2.2766,-2.2926,-2.3073,-2.3674,-2.3834,-2.3834,-2.3875,-2.3888,-2.3888,-2.3888,0.0,-2.4275,-2.4315,-2.4743,-2.5184,-2.5518,0.0,-2.6052,-2.6346,-2.6426,-2.6547,-2.6787,-2.6854,-2.7001,-2.7295,-2.7589,-2.7776,-2.7816,-2.7856,-2.7856,-2.7816,-2.835,-2.8684,-2.8724,-2.8965,-2.9245,-2.9539,-2.9539,-2.9686,-2.998,-2.998,-2.9993,-3.0034,-3.0034,-3.0034,-3.0034,0.0,0.0,-3.0421,-3.0421,-3.0568,-3.0795,-3.0795,-3.0795,-3.0795,-3.0795,-3.0795,-3.0795,0.0,0.0,0.0,0.0,0.0,0.0,0.0,0.0,0.0,0.0,-1.5618,-1.5832,0.0,0.0,0.0,0.0,0.0,0.0,0.0,0.0,0.0,0.0,0.0,0.0,0.0,0.0,0.0,0.0,0.0,0.0,0.0,0.0,0.0,0.0,0.0,0.0,0.0,0.0,0.0,0.0,0.0,0.0,0.0,0.0,0.0,0.0,0.0,0.0,0.0,0.0,-2.1109,-2.1149,-2.1403,-2.151,-2.1643,-2.2124,-2.2298,-2.2472,-2.3086,-2.3247,-2.3394,-2.3981,-2.4128,-2.4195,-2.4436,-2.4489,0.0,0.0,-2.4529,-2.4636,-2.4877,-2.501,0.0,-2.5785,0.0,0.0,0.0,0.0,-2.676,0.0,0.0,0.0,0.0,0.0,0.0,0.0,0.0,-2.8698,-2.8457,-2.8778,-2.9085,-2.9325,-2.9379,-2.9553,-2.9833,-2.9847,-2.9993,-3.0287,-3.0287,-3.0408,-3.0635,-3.0635,-3.0635,-3.0635,-3.0635,0.0,-3.0715,-3.0715,-3.0742,-3.0795,-3.0795,-3.0795,-3.0795,-3.0795,-3.0795,-3.0795,0.0,0.0,0.0,0.0,0.0,0.0,0.0,-1.4776,-1.507,-1.5351,-1.5645,-1.5832,-1.5832,-1.5832,-1.5832,0.0,0.0,0.0,0.0,0.0,0.0,0.0,0.0,0.0,0.0,0.0,0.0,0.0,0.0,0.0,0.0,0.0,0.0,0.0,0.0,0.0,0.0,0.0,0.0,0.0,0.0,0.0,0.0,0.0,0.0,0.0,0.0,0.0,0.0,0.0,-2.1216,-2.1363,-2.151,-2.1657,-2.1857,-2.2298,-2.2645,-2.2993,-2.3434,-2.3674,-2.3888,-2.4315,-2.4422,-2.4462,-2.4609,0.0,0.0,0.0,-2.4756,-2.4917,-2.505,0.0,0.0,0.0,0.0,0.0,0.0,0.0,0.0,0.0,0.0,0.0,0.0,0.0,0.0,0.0,0.0,-2.9138,-2.8845,-2.9112,-2.9406,-2.97,-2.986,-3.0007,-3.014,-3.0301,-3.0448,-3.0581,-3.0581,-3.0662,-3.0795,-3.0795,-3.0795,-3.0795,-3.0795,0.0,-3.1022,-3.1022,-3.1102,-3.1249,-3.1249,-3.1249,-3.1249,-3.1249,-3.1249,-3.1249,0.0,0.0,0.0,0.0,0.0,0.0,0.0,-1.487,-1.5164,-1.5444,-1.5685,-1.5832,-1.5832,-1.5832,-1.5832,0.0,0.0,0.0,0.0,0.0,0.0,0.0,0.0,0.0,0.0,0.0,0.0,0.0,0.0,0.0,0.0,0.0,0.0,0.0,0.0,0.0,0.0,0.0,0.0,0.0,0.0,0.0,0.0,0.0,0.0,0.0,0.0,0.0,0.0,0.0,-2.1309,-2.1563,-2.163,-2.1844,-2.2138,-2.2432,-2.2846,-2.3313,-2.3674,-2.3941,-2.4195,-2.4556,-2.4636,-2.4636,-2.4636,-2.4636,0.0,0.0,-2.4917,-2.5117,-2.5251,0.0,0.0,0.0,0.0,0.0,0.0,0.0,0.0,0.0,0.0,0.0,0.0,0.0,0.0,0.0,0.0,0.0,-2.9245,-2.9513,-2.978,-3.0007,-3.0301,-3.0448,-3.0448,-3.0675,-3.0822,-3.0889,-3.0889,-3.0915,-3.0982,-3.0982,-3.0982,-3.0982,-3.0982,0.0,0.0,-3.1316,-3.1463,-3.1664,-3.1664,-3.1284,-3.089,-3.1474,-3.1284,-3.089,0.0,0.0,0.0,0.0,0.0,0.0,0.0,-1.5164,-1.5458,-1.5752,-1.5805,-1.5832,-1.5832,-1.5832,-1.5832,0.0,0.0,0.0,0.0,0.0,0.0,0.0,0.0,0.0,0.0,0.0,0.0,0.0,0.0,0.0,0.0,0.0,0.0,0.0,0.0,0.0,0.0,0.0,0.0,0.0,0.0,0.0,0.0,0.0,0.0,0.0,0.0,0.0,0.0,0.0,0.0,-2.1603,-2.1857,-2.2151,-2.2432,-2.2739,0.0,0.0,-2.3621,-2.3794,-2.3941,-2.4502,-2.4636,-2.4636,-2.4636,0.0,0.0,-2.4983,-2.5064,-2.5251,-2.5772,0.0,0.0,0.0,0.0,-2.6386,0.0,0.0,0.0,0.0,0.0,0.0,0.0,0.0,0.0,0.0,0.0,0.0,-2.9847,-3.0114,-3.0287,-3.0314,-3.0595,-3.0755,-3.0755,-3.0782,-3.0929,-3.1183,-3.1183,-3.133,-3.1583,-3.1583,-3.1583,-3.1583,-3.1583,0.0,0.0,-3.1623,-3.1637,-3.1664,-3.1664,-3.0306,-2.8368,-3.089,-3.0115,-2.856,0.0,0.0,0.0,0.0,0.0,0.0,-1.4923,-1.5204,-1.5498,-1.5792,-1.5832,-1.5832,-1.5832,-1.5832,-1.5832,-1.5832,0.0,0.0,0.0,0.0,0.0,0.0,0.0,0.0,0.0,0.0,0.0,0.0,0.0,0.0,0.0,0.0,0.0,0.0,0.0,0.0,0.0,0.0,0.0,0.0,0.0,0.0,0.0,0.0,0.0,0.0,0.0,0.0,0.0,0.0,0.0,0.0,-2.1951,-2.2311,0.0,0.0,-2.2993,-2.3233,-2.3661,-2.3901,-2.4128,-2.4529,-2.4636,-2.4636,-2.4636,0.0,-2.4716,-2.5024,-2.5224,-2.5464,-2.5879,-2.6106,0.0,0.0,0.0,0.0,-2.6627,0.0,0.0,0.0,0.0,0.0,0.0,0.0,0.0,0.0,0.0,0.0,-3.0448,-3.0555,-3.0621,-3.0621,-3.0902,-3.1049,-3.1049,-3.1236,-3.1383,-3.149,-3.149,-3.1557,-3.1664,-3.1664,-3.1664,-3.1664,-3.0115,0.0,0.0,-2.9338,-2.9338,-2.9529,-3.108,-3.0115,-2.8164,-3.07,-3.0115,-2.8164,0.0,0.0,0.0,0.0,0.0,-1.475,-1.5044,-1.5337,-1.5605,-1.5805,-1.5832,-1.5832,-1.5832,-1.5832,-1.5832,-1.5832,-1.6366,0.0,0.0,0.0,0.0,0.0,0.0,0.0,0.0,0.0,-1.8945,-1.9239,-1.9319,0.0,0.0,0.0,0.0,0.0,0.0,0.0,0.0,0.0,0.0,0.0,0.0,0.0,0.0,0.0,0.0,0.0,0.0,0.0,0.0,0.0,0.0,0.0,0.0,0.0,0.0,0.0,-2.302,-2.3273,-2.3661,-2.3915,-2.4168,-2.4543,-2.4636,-2.4636,0.0,0.0,-2.485,-2.5144,-2.5438,-2.5732,-2.6026,-2.6253,-2.6386,-2.6386,-2.6386,-2.6493,-2.6787,-2.7081,0.0,0.0,0.0,0.0,0.0,0.0,0.0,0.0,0.0,0.0,0.0,-3.1009,-3.1009,-3.0929,-3.1209,-3.1356,-3.1356,-3.157,-3.1664,-3.1664,-3.089,-3.0496,-3.0496,-2.9721,-2.9326,-2.9326,0.0,0.0,0.0,-2.6613,-2.6613,-2.6999,-2.9529,-2.8548,-2.5829,-2.9326,-2.8943,-2.6999,0.0,0.0,0.0,0.0,0.0,0.0,-1.5351,-1.5631,-1.5832,-1.5832,-1.5832,-1.5832,-1.5832,-1.5832,-1.5832,-1.5832,-1.6366,0.0,0.0,0.0,0.0,0.0,0.0,0.0,0.0,0.0,-1.8637,-1.8931,-1.9225,-1.9372,-1.9372,0.0,0.0,0.0,0.0,0.0,0.0,0.0,0.0,0.0,0.0,0.0,-1.9399,0.0,0.0,0.0,0.0,0.0,0.0,0.0,0.0,0.0,0.0,0.0,0.0,0.0,-2.2859,-2.3006,-2.3607,-2.3768,-2.3915,-2.4489,-2.4636,-2.4636,0.0,0.0,-2.5157,-2.5451,-2.5745,-2.6039,-2.6333,-2.6386,-2.6386,-2.6386,-2.6386,-2.6493,-2.6787,-2.7081,0.0,0.0,0.0,0.0,0.0,0.0,0.0,0.0,0.0,0.0,0.0,-3.1503,-3.153,-3.1236,-3.1517,-3.1664,-3.1664,-3.1664,-3.1664,-3.1664,-2.9135,-2.778,-2.778,-2.5238,-2.4074,0.0,0.0,0.0,0.0,-2.388,-2.388,-2.4269,-2.6806,-2.4657,-2.0755,-2.5829,-2.6216,-2.4269,0.0,0.0,0.0,0.0,0.0,0.0,0.0,-1.5645,-1.5832,-1.5832,-1.5832,-1.5832,-1.5832,-1.5832,-1.5912,-1.6112,-1.6486,0.0,0.0,0.0,0.0,0.0,0.0,0.0,0.0,0.0,-1.8424,-1.8918,-1.9025,-1.9172,-1.9372,-1.9372,-1.9372,0.0,0.0,0.0,0.0,0.0,0.0,0.0,0.0,-1.9372,-1.9283,0.0,0.0,0.0,0.0,0.0,0.0,0.0,0.0,0.0,0.0,0.0,0.0,0.0,0.0,0.0,-2.3901,-2.4062,-2.4155,-2.4543,-2.4636,-2.4232,-2.3054,0.0,0.0,0.0,-2.2694,-2.332,-2.2133,-2.4442,-2.5898,-2.4442,-2.5409,-2.656,-2.7054,0.0,0.0,0.0,0.0,0.0,0.0,0.0,0.0,0.0,0.0,0.0,0.0,-2.8894,-2.9874,-3.153,-3.1623,-3.089,-2.9135,-2.8943,-2.8164,-2.6398,-2.5432,-2.5045,-2.5045,-2.4269,0.0,0.0,0.0,0.0,0.0,-2.1147,-2.1147,-2.1539,-2.4074,-2.3092,-2.0363,-2.388,-2.4657,-2.4074,0.0,0.0,0.0,0.0,0.0,0.0,0.0,-1.5712,-1.5832,-1.5832,-1.5832,-1.5832,-1.5832,-1.5832,-1.5952,-1.6246,-1.654,0.0,0.0,0.0,0.0,0.0,0.0,0.0,0.0,-1.7983,-1.8277,-1.8758,-1.8865,-1.9078,-1.9372,-1.9372,-1.9372,-1.9372,-1.9372,0.0,0.0,0.0,0.0,0.0,-1.9372,-1.9372,-1.9269,0.0,0.0,0.0,0.0,0.0,0.0,0.0,0.0,0.0,0.0,0.0,0.0,0.0,-2.0876,-2.1554,0.0,-2.3006,-2.2923,-2.2447,-2.3042,0.0,0.0,0.0,0.0,0.0,0.0,0.0,-2.0048,-2.2178,-2.3472,-2.2166,-2.298,-2.4134,-2.4668,0.0,0.0,0.0,0.0,0.0,0.0,0.0,0.0,0.0,0.0,0.0,0.0,-2.6409,-2.6999,-2.8739,-2.8739,-2.796,-2.6409,-2.6409,-2.5443,-2.388,-2.2906,-2.2516,-2.2321,-2.1352,0.0,0.0,0.0,0.0,0.0,-1.8616,-1.8616,-1.8813,-2.1343,-2.0755,-1.8813,-2.1539,-2.2516,-2.2516,0.0,0.0,0.0,0.0,0.0,0.0,0.0,-1.5832,-1.5832,-1.5832,-1.5832,-1.5832,-1.5832,-1.5832,-1.5952,-1.6273,0.0,0.0,0.0,0.0,0.0,0.0,0.0,0.0,-1.7582,-1.7862,-1.8156,-1.8464,-1.8744,-1.9052,-1.9332,-1.9359,-1.9372,-1.9372,-1.9372,-1.9372,0.0,0.0,0.0,0.0,-1.9372,-1.9372,0.0,0.0,0.0,0.0,0.0,0.0,0.0,0.0,0.0,0.0,0.0,0.0,0.0,0.0,0.0,0.0,0.0,-2.0943,-2.0706,-1.9145,0.0,0.0,0.0,0.0,0.0,0.0,0.0,0.0,-1.942,-1.9745,-1.9907,-1.9745,-1.9755,-2.0079,-2.0493,0.0,0.0,0.0,0.0,0.0,0.0,0.0,0.0,0.0,0.0,0.0,0.0,-2.3676,-2.3676,-2.3676,-2.3491,-2.3481,-2.3676,-2.3676,-2.3491,-2.3296,-2.0951,-1.9782,-1.9585,-1.7253,0.0,0.0,0.0,0.0,0.0,-1.6083,-1.6083,-1.6275,-1.8813,-1.8228,-1.6474,-1.8813,-1.9782,-1.9978,0.0,0.0,0.0,0.0,0.0,0.0,0.0,0.0,0.0,0.0,-1.5832,-1.5832,-1.5832,-1.5832,-1.6032,0.0,0.0,0.0,0.0,0.0,0.0,0.0,0.0,0.0,-1.7582,-1.7649,-1.7836,-1.8156,-1.845,-1.8744,-1.9038,-1.9265,-1.9372,-1.9372,-1.9372,-1.9372,0.0,0.0,0.0,0.0,-1.9372,-1.9372,0.0,0.0,0.0,0.0,-1.7887,-1.7145,0.0,0.0,0.0,0.0,0.0,0.0,0.0,0.0,-1.7175,-1.7693,-1.703,0.0,-1.9457,-2.0765,-2.0255,-1.8997,0.0,0.0,0.0,0.0,0.0,0.0,0.0,-1.7638,-1.942,-1.7629,-1.8894,-2.024,-2.0513,0.0,0.0,0.0,0.0,0.0,0.0,0.0,0.0,0.0,0.0,0.0,0.0,-2.0951,-2.0951,-2.0951,-1.901,-1.8813,-2.0951,-2.0951,-1.9978,-1.784,-1.7253,-1.7055,-1.7062,-1.6474,0.0,0.0,0.0,0.0,-1.6083,-1.6083,-1.6083,-1.6083,-1.6864,-1.6665,-1.6083,-1.6864,-1.8228,-1.9807,0.0,0.0,0.0,0.0,0.0,0.0,0.0,0.0,0.0,0.0,0.0,-1.5832,-1.5832,-1.5952,0.0,0.0,0.0,0.0,0.0,0.0,0.0,0.0,0.0,-1.7582,-1.7582,-1.7582,-1.7729,-1.805,-1.8343,-1.8637,-1.8931,-1.9225,-1.9372,-1.9372,-1.9372,-1.9372,0.0,0.0,0.0,-1.9372,-1.9372,0.0,0.0,0.0,0.0,0.0,-1.8592,-1.6954,0.0,-1.8637,-1.727,-1.442,0.0,0.0,0.0,0.0,-1.5138,-1.5214,-1.5438,-1.6294,-1.7255,-1.7624,-1.7592,-1.7123,0.0,0.0,0.0,0.0,0.0,0.0,0.0,0.0,0.0,-1.535,-1.6319,-1.7221,0.0,0.0,0.0,0.0,0.0,0.0,0.0,0.0,0.0,0.0,0.0,0.0,0.0,-1.8228,-1.8228,-1.8228,-1.6864,-1.6864,-1.8228,-1.8228,-1.7452,-1.6083,-1.6083,-1.6083,-1.6083,-1.6083,-1.6083,0.0,0.0,0.0,-1.6083,-1.6083,-1.6083,-1.6083,-1.6083,-1.6123,-1.6185,-1.6185,-1.7214,-1.8274,0.0,0.0,0.0,0.0,0.0,0.0,0.0,0.0,0.0,0.0,0.0,0.0,0.0,0.0,0.0,0.0,0.0,0.0,0.0,0.0,0.0,0.0,0.0,-1.7582,-1.7582,-1.7582,-1.7716,-1.7969,-1.8317,-1.8624,-1.8865,-1.9212,-1.9372,-1.9372,-1.9372,-1.9372,0.0,0.0,0.0,-1.9372,-1.9372,0.0,0.0,0.0,0.0,0.0,0.0,0.0,0.0,-1.6797,-1.5025,-1.1848,-1.51,0.0,0.0,0.0,0.0,0.0,-1.4533,-1.5081,-1.4676,-1.349,-1.4426,-1.5209,0.0,0.0,0.0,0.0,0.0,0.0,0.0,0.0,0.0,0.0,0.0,0.0,0.0,0.0,0.0,0.0,0.0,0.0,0.0,0.0,0.0,0.0,0.0,0.0,0.0,-1.6083,-1.6083,-1.6083,-1.6083,-1.6083,-1.6083,-1.6083,-1.6083,-1.6083,-1.6083,-1.6083,-1.6083,-1.6083,-1.6083,0.0,0.0,0.0,-1.6083,-1.6083,-1.6096,-1.6117,-1.6117,-1.6205,-1.6341,-1.6341,-1.6415,-1.6524,0.0,0.0,0.0,0.0,0.0,0.0,0.0,0.0,0.0,0.0,0.0,0.0,0.0,0.0,0.0,0.0,0.0,0.0,0.0,0.0,0.0,-1.7582,-1.7582,-1.7582,-1.7582,-1.7582,-1.7609,-1.7649,-1.821,-1.8517,-1.8571,-1.9118,-1.9372,-1.9372,-1.9372,-1.9372,-1.9372,0.0,0.0,-1.9372,-1.9372,0.0,0.0,0.0,0.0,0.0,0.0,0.0,0.0,-1.5,-1.3961,-1.1572,-1.3601,0.0,0.0,0.0,0.0,0.0,-1.2874,-1.2958,-1.3332,-1.5027,-1.451,-1.3507,0.0,0.0,0.0,0.0,0.0,0.0,0.0,0.0,0.0,0.0,0.0,0.0,0.0,0.0,0.0,0.0,0.0,0.0,0.0,0.0,0.0,0.0,0.0,0.0,0.0,-1.6083,-1.6083,-1.6083,-1.6083,-1.6083,-1.6083,-1.6083,-1.6083,-1.6083,-1.6083,-1.6083,-1.6083,-1.6083,-1.6083,0.0,0.0,-1.6083,-1.6083,-1.6083,-1.6157,-1.6273,-1.6273,-1.6361,-1.649,-1.649,-1.6503,-1.6537,0.0,0.0,0.0,0.0,0.0,0.0,0.0,0.0,0.0,0.0,0.0,0.0,0.0,0.0,0.0,0.0,0.0,0.0,0.0,0.0,-1.7582,-1.7582,-1.7582,-1.7582,-1.7582,-1.7582,-1.7582,-1.7582,-1.8196,-1.849,-1.8504,-1.9092,-1.9372,-1.9372,-1.9372,-1.9372,-1.9372,-1.9372,-1.9372,-1.9372,0.0,0.0,0.0,0.0,0.0,0.0,0.0,0.0,0.0,0.0,-1.3043,-1.1296,-1.2116,0.0,0.0,0.0,0.0,0.0,-1.242,-1.2562,-1.2828,-1.4154,-1.3749,-1.3037,0.0,0.0,0.0,0.0,0.0,0.0,0.0,0.0,0.0,0.0,0.0,0.0,0.0,0.0,0.0,0.0,0.0,0.0,0.0,0.0,0.0,0.0,0.0,0.0,0.0,0.0,-1.6083,-1.6083,-1.6083,-1.6083,-1.6083,-1.6083,-1.6083,-1.6083,-1.6083,-1.6083,-1.6083,-1.6083,-1.6083,-1.609,0.0,-1.6205,-1.6212,-1.6286,-1.6361,-1.6422,-1.6422,-1.6517,-1.6653,-1.6741,-1.6768,-1.6781,0.0,0.0,0.0,0.0,0.0,0.0,0.0,0.0,0.0,0.0,0.0,0.0,0.0,0.0,0.0,0.0,0.0,0.0,0.0,0.0,-1.7582,-1.7582,-1.7582,-1.7582,-1.7582,-1.7582,-1.7622,-1.7689,-1.8223,-1.8557,-1.8704,-1.9158,-1.9372,-1.9372,-1.9372,-1.9372,-1.9372,-1.9372,-1.9372,-1.9372,0.0,0.0,0.0,0.0,0.0,0.0,0.0,0.0,0.0,0.0,0.0,0.0,0.0,0.0,0.0,-1.1972,-1.206,-1.2128,-1.242,-1.2617,-1.2766,-1.2922,0.0,0.0,0.0,0.0,0.0,0.0,0.0,0.0,0.0,0.0,0.0,0.0,0.0,0.0,0.0,0.0,0.0,0.0,0.0,0.0,0.0,0.0,0.0,0.0,0.0,0.0,0.0,0.0,-1.6083,-1.6083,-1.6083,-1.6083,-1.6083,-1.6083,-1.6083,-1.6083,-1.6083,-1.6083,-1.6083,-1.6117,-1.6137,-1.6144,-1.6293,-1.6361,-1.6368,-1.6476,-1.6544,-1.6571,-1.6571,-1.6666,-1.6822,-1.6937,-1.6978,-1.6978,0.0,0.0,0.0,0.0,0.0,0.0,0.0,0.0,0.0,0.0,0.0,0.0,0.0,0.0,0.0,0.0,0.0,0.0,0.0,0.0,-1.7582,-1.7582,-1.7582,-1.7582,-1.7582,-1.7582,-1.7729,-1.8009,-1.833,-1.8771,-1.9305,-1.9345,-1.9372,-1.9372,-1.9372,-1.9372,-1.9372,-1.9372,-1.9372,-1.9372,-1.9372,0.0,0.0,0.0,0.0,0.0,0.0,0.0,0.0,0.0,0.0,0.0,0.0,0.0,-1.1681,-1.1972,-1.206,-1.2128,-1.242,-1.2617,0.0,0.0,0.0,0.0,0.0,0.0,0.0,0.0,0.0,0.0,0.0,0.0,0.0,0.0,0.0,0.0,0.0,0.0,0.0,0.0,0.0,0.0,0.0,0.0,0.0,0.0,0.0,0.0,0.0,0.0,0.0,-1.6083,-1.6083,-1.6083,-1.6083,-1.6083,-1.6083,-1.6083,-1.6083,-1.6083,-1.609,-1.6232,-1.6293,-1.63,-1.6442,-1.6503,-1.651,-1.6517,-1.6605,-1.6734,-1.6734,-1.6829,-1.6965,-1.6978,-1.6978,-1.6978,0.0,0.0,0.0,0.0,0.0,0.0,0.0,0.0,0.0,0.0,0.0,0.0,0.0,0.0,0.0,0.0,0.0,0.0,0.0,-1.7582,-1.7582,-1.7582,-1.7582,-1.7675,-1.7862,-1.7876,-1.7929,-1.805,-1.8531,-1.8971,-1.9372,-1.9372,-1.9372,-1.9372,-1.9372,-1.9372,-1.9372,-1.9372,-1.9372,-1.9372,-1.9372,-1.8765,0.0,0.0,0.0,0.0,0.0,0.0,0.0,0.0,-1.0914,-1.1165,-1.1165,-1.1375,-1.1681,-1.1972,-1.206,-1.2128,-1.242,-1.2684,0.0,0.0,0.0,0.0,0.0,0.0,0.0,0.0,0.0,0.0,0.0,0.0,0.0,0.0,0.0,0.0,0.0,0.0,0.0,0.0,0.0,0.0,0.0,0.0,0.0,0.0,0.0,0.0,0.0,0.0,0.0,-1.6083,-1.6083,-1.6083,-1.6083,-1.6178,-1.6225,-1.6225,-1.6225,-1.6225,-1.6232,-1.6374,-1.6442,-1.6449,-1.6598,-1.6666,-1.6673,-1.6768,-1.6842,-1.6897,-1.6897,-1.6931,-1.6978,-1.6978,-1.6978,-1.6978,0.0,0.0,0.0,0.0,0.0,0.0,0.0,0.0,0.0,0.0,0.0,0.0,0.0,0.0,0.0,0.0,0.0,0.0,-1.7582,-1.7582,-1.7582,-1.7582,-1.7675,-1.7822,-1.805,-1.8223,-1.833,-1.833,-1.8824,-1.9172,-1.9372,-1.9372,-1.9372,-1.9372,-1.9372,-1.9372,-1.9372,-1.9372,-1.9127,-1.8648,-1.8648,-1.7689,0.0,0.0,0.0,0.0,0.0,0.0,0.0,0.0,-1.0914,-1.1165,-1.1165,-1.1375,-1.1681,-1.1972,-1.206,-1.2128,-1.242,-1.2725,0.0,0.0,0.0,0.0,0.0,0.0,0.0,0.0,0.0,0.0,0.0,0.0,0.0,0.0,0.0,0.0,0.0,0.0,0.0,0.0,0.0,0.0,0.0,0.0,0.0,0.0,0.0,0.0,0.0,0.0,0.0,0.0,-1.6083,-1.6103,-1.6151,-1.6259,-1.6334,-1.6374,-1.6429,-1.6422,-1.6381,-1.6524,-1.6592,-1.6605,-1.6754,-1.6822,-1.6829,-1.6937,-1.6978,-1.6978,-1.6978,-1.6978,-1.6978,-1.6978,-1.6978,-1.6978,0.0,0.0,0.0,0.0,0.0,0.0,0.0,0.0,0.0,0.0,0.0,0.0,0.0,0.0,0.0,0.0,0.0,0.0,-1.7582,-1.7582,-1.7582,-1.7582,-1.7876,-1.805,-1.805,-1.8624,-1.8931,-1.8931,-1.9225,-1.9372,-1.9372,-1.9372,-1.9372,-1.9372,-1.9372,-1.9372,-1.9372,-1.9372,-1.8519,-1.6962,-1.6962,-1.602,-1.4361,0.0,0.0,0.0,0.0,0.0,0.0,0.0,-1.0914,-1.1165,-1.1165,-1.1375,-1.1681,-1.1972,-1.206,-1.2128,-1.2427,-1.2725,0.0,0.0,0.0,0.0,0.0,0.0,0.0,0.0,0.0,0.0,0.0,0.0,0.0,0.0,0.0,0.0,0.0,0.0,0.0,0.0,0.0,0.0,0.0,0.0,0.0,0.0,0.0,0.0,0.0,0.0,0.0,0.0,-1.6083,-1.6157,-1.6307,-1.6313,-1.6381,-1.6524,-1.668,-1.6673,-1.653,-1.668,-1.6754,-1.6761,-1.6917,-1.6978,-1.6978,-1.6978,-1.6978,-1.6978,-1.6978,-1.6978,-1.6978,-1.6978,-1.6978,-1.6978,0.0,0.0,0.0,0.0,0.0,0.0,0.0,0.0,0.0,0.0,0.0,0.0,0.0,0.0,0.0,0.0,0.0,0.0,-1.6062,-1.7041,-1.7675,-1.7903,-1.7996,-1.8237,-1.8651,-1.9038,-1.9239,-1.9239,-1.9319,-1.9372,-1.9372,-1.9372,-1.9372,-1.9372,-1.9372,-1.8765,-1.7806,-1.8881,-1.8519,-1.6962,-1.6962,-1.602,-1.4361,0.0,0.0,0.0,0.0,0.0,0.0,0.0,0.0,0.0,-1.1165,-1.1443,-1.1809,-1.2006,-1.2135,-1.2284,-1.2583,0.0,0.0,0.0,0.0,0.0,0.0,0.0,0.0,0.0,0.0,0.0,0.0,0.0,0.0,0.0,0.0,0.0,0.0,0.0,0.0,0.0,0.0,0.0,0.0,0.0,0.0,0.0,0.0,0.0,0.0,0.0,0.0,0.0,-1.6185,-1.6266,-1.6307,-1.6517,-1.6639,-1.668,-1.6836,-1.6829,-1.6686,-1.6842,-1.691,-1.6917,-1.6958,-1.6978,-1.6978,-1.6978,-1.6978,-1.6978,-1.6978,-1.6978,-1.6978,-1.6978,-1.6978,-1.6978,0.0,0.0,0.0,0.0,0.0,0.0,0.0,0.0,0.0,0.0,0.0,0.0,0.0,0.0,0.0,0.0,0.0,0.0,0.0,-1.7222,-1.7567,-1.7308,-1.7987,-1.8611,-1.9092,-1.9279,-1.9372,-1.9372,-1.9372,-1.9372,-1.9372,-1.9372,-1.9372,-1.9372,-1.9372,-1.8881,-1.804,-1.8997,-1.8519,-1.6962,-1.6256,-1.5074,-1.3536,0.0,0.0,0.0,0.0,0.0,0.0,0.0,0.0,0.0,-1.1233,-1.1518,-1.1864,-1.2013,-1.2169,-1.2352,-1.2651,0.0,0.0,0.0,0.0,0.0,0.0,0.0,0.0,0.0,0.0,0.0,0.0,0.0,0.0,0.0,0.0,0.0,0.0,0.0,0.0,0.0,0.0,0.0,0.0,0.0,0.0,0.0,0.0,0.0,0.0,0.0,0.0,0.0,-1.6259,-1.6368,-1.6483,-1.6659,-1.6781,-1.6842,-1.6937,-1.6931,-1.6842,-1.6937,-1.6978,-1.6978,-1.6978,-1.6978,-1.6978,-1.6978,-1.6978,-1.6978,-1.6978,-1.6978,-1.6978,-1.6978,-1.6978,-1.6978,0.0,0.0,0.0,0.0,0.0,0.0,0.0,0.0,0.0,0.0,0.0,0.0,0.0,0.0,0.0,0.0,0.0,0.0,0.0,0.0,-1.7321,-1.6222,-1.7755,-1.8849,-1.9127,-1.9359,-1.9372,-1.9372,-1.9372,-1.9372,-1.9372,-1.9372,-1.9372,-1.9372,-1.9372,-1.9359,-1.9127,-1.9127,-1.8286,-1.6609,-1.5074,-1.3536,-1.2018,-1.0609,0.0,0.0,0.0,0.0,0.0,0.0,0.0,0.0,-1.1341,-1.1599,-1.1877,-1.202,-1.2182,-1.2372,0.0,0.0,0.0,0.0,0.0,0.0,0.0,0.0,0.0,0.0,0.0,0.0,0.0,0.0,0.0,0.0,0.0,0.0,0.0,0.0,0.0,0.0,0.0,0.0,0.0,0.0,0.0,0.0,0.0,0.0,0.0,0.0,0.0,-1.6307,-1.6334,-1.6476,-1.6748,-1.6761,-1.6842,0.0,-1.6978,-1.6978,-1.6978,-1.6978,-1.6978,-1.6978,-1.6978,-1.6978,-1.6978,-1.6978,-1.6978,-1.6978,-1.6978,-1.6978,-1.6978,-1.6978,-1.6978,-1.6978,0.0,0.0,0.0,0.0,0.0,0.0,0.0,0.0,0.0,0.0,0.0,0.0,0.0,0.0,0.0,0.0,0.0,0.0,0.0,0.0,-1.6458,-1.6366,-1.7098,-1.7382,-1.756,-1.8765,-1.9372,-1.9372,-1.9372,-1.9372,-1.9372,-1.9372,-1.9372,-1.9372,-1.9372,-1.8648,-1.756,-1.756,-1.6609,-1.4955,-1.3407,-1.2544,-1.22,-1.0652,-1.0195,0.0,0.0,0.0,0.0,0.0,0.0,0.0,-1.1341,-1.1674,-1.202,-1.2054,-1.225,-1.2522,0.0,0.0,0.0,0.0,0.0,0.0,0.0,0.0,0.0,0.0,0.0,0.0,0.0,0.0,0.0,0.0,0.0,0.0,0.0,0.0,0.0,0.0,0.0,0.0,0.0,0.0,0.0,0.0,0.0,0.0,0.0,0.0,0.0,-1.6307,-1.6537,-1.6686,-1.6748,-1.687,-1.6944,0.0,-1.6978,-1.6978,-1.6978,-1.6978,-1.6978,-1.6978,-1.6978,-1.6978,-1.6978,-1.6978,-1.6978,-1.6978,-1.6978,-1.6978,-1.6978,-1.6978,-1.6978,-1.6978,0.0,0.0,0.0,0.0,0.0,0.0,0.0,0.0,0.0,0.0,0.0,0.0,0.0,0.0,0.0,0.0,0.0,0.0,0.0,0.0,-1.568,-1.6634,-1.6188,-1.6256,-1.6962,-1.8532,-1.901,-1.8286,-1.901,-1.9372,-1.9359,-1.8648,-1.8648,-1.9372,-1.8648,-1.7806,-1.6962,-1.6962,-1.6087,-1.451,-1.295,-1.2339,-1.2391,-1.0854,-1.0358,-1.05,-1.0575,0.0,0.0,0.0,0.0,0.0,0.0,0.0,-1.206,-1.206,-1.2271,-1.2569,0.0,0.0,0.0,0.0,0.0,0.0,0.0,0.0,0.0,0.0,0.0,0.0,0.0,0.0,0.0,0.0,0.0,0.0,0.0,0.0,0.0,0.0,0.0,0.0,0.0,0.0,0.0,0.0,0.0,0.0,0.0,-1.6225,-1.6341,-1.6408,-1.6632,-1.6788,-1.6863,-1.6937,-1.6978,-1.6978,-1.6978,-1.6978,-1.6978,-1.6978,-1.6978,-1.6978,-1.6978,-1.6978,-1.6978,-1.6978,-1.6978,-1.6978,-1.6978,-1.6978,-1.6978,-1.6978,-1.6978,-1.6978,0.0,0.0,0.0,0.0,0.0,0.0,0.0,0.0,0.0,0.0,0.0,0.0,0.0,0.0,0.0,0.0,0.0,0.0,0.0,0.0,0.0,-1.6127,-1.5192,-1.5192,-1.6609,-1.8402,-1.8648,-1.6962,-1.8286,0.0,0.0,0.0,-1.7806,-1.8532,-1.7443,-1.6844,-1.6621,-1.6301,-1.547,-1.4192,-1.2653,-1.2158,-1.2202,-1.0955,-1.0507,-1.0555,-1.0704,-1.0839,-1.0975,-1.1145,0.0,0.0,0.0,0.0,-1.2067,-1.2094,-1.2311,-1.2603,0.0,0.0,0.0,0.0,0.0,0.0,0.0,0.0,0.0,0.0,0.0,0.0,0.0,0.0,0.0,0.0,0.0,0.0,0.0,0.0,0.0,0.0,0.0,0.0,0.0,0.0,0.0,0.0,0.0,0.0,-1.6123,-1.6266,-1.6415,-1.6558,-1.6707,-1.6849,-1.6978,-1.6978,-1.6978,-1.6978,-1.6978,-1.6978,-1.6978,-1.6978,-1.6978,-1.6978,-1.6978,-1.6978,-1.6978,-1.6978,-1.6978,-1.6978,-1.6978,-1.6978,-1.6978,-1.6978,-1.6978,-1.6978,0.0,0.0,0.0,0.0,0.0,0.0,0.0,0.0,0.0,0.0,0.0,0.0,0.0,0.0,0.0,0.0,0.0,0.0,0.0,0.0,0.0,-1.2808,-1.4004,-1.4718,-1.4955,-1.7818,-1.8648,-1.6962,0.0,0.0,0.0,0.0,0.0,-1.5311,-1.6492,-1.6256,-1.4857,-1.3602,-1.2961,-1.2636,-1.1188,-1.0714,-1.0718,-1.0616,-1.0575,-1.0711,-1.086,-1.0928,-1.0989,-1.1267,-1.1375,0.0,0.0,0.0,-1.2088,-1.2223,-1.2467,0.0,0.0,0.0,0.0,0.0,0.0,0.0,0.0,0.0,0.0,0.0,0.0,0.0,0.0,0.0,0.0,0.0,0.0,0.0,0.0,0.0,0.0,0.0,0.0,0.0,0.0,0.0,0.0,0.0,0.0,0.0,-1.6273,-1.6415,-1.6564,-1.6714,-1.687,-1.6958,-1.6978,-1.6978,-1.6978,-1.6978,-1.6978,-1.6978,-1.6978,-1.6978,-1.6978,-1.6978,-1.6978,-1.6978,-1.6978,-1.6978,-1.6978,-1.6978,-1.6978,-1.6978,-1.6978,-1.6978,-1.6978,-1.6978,0.0,0.0,0.0,0.0,0.0,0.0,0.0,0.0,0.0,0.0,0.0,0.0,0.0,0.0,0.0,0.0,0.0,0.0,0.0,0.0,0.0,-1.2217,-1.2928,-1.3287,-1.3287,-1.6374,-1.6856,-1.4351,0.0,0.0,0.0,-1.6267,-1.6385,0.0,0.0,0.0,-1.335,-1.2707,-1.2001,-1.1307,-1.0628,-1.0487,-1.0622,-1.0622,-1.0717,-1.086,-1.0921,-1.1056,-1.1212,-1.1348,-1.145,-1.1558,-1.1769,0.0,0.0,0.0,0.0,0.0,0.0,0.0,0.0,0.0,0.0,0.0,0.0,0.0,0.0,0.0,0.0,0.0,0.0,0.0,0.0,0.0,0.0,0.0,0.0,0.0,0.0,0.0,0.0,0.0,0.0,0.0,0.0,0.0,0.0,-1.6151,-1.63,-1.6442,-1.6592,-1.6748,-1.6904,-1.6978,-1.6978,-1.6978,-1.6978,-1.6978,-1.6978,-1.6978,-1.6978,-1.6978,-1.6978,-1.6978,-1.6978,-1.6978,-1.6978,-1.6978,-1.6978,-1.6978,-1.6978,-1.6978,-1.6978,-1.6978,-1.6978,-1.6992,0.0,0.0,0.0,0.0,0.0,0.0,0.0,0.0,0.0,0.0,0.0,0.0,0.0,0.0,0.0,0.0,0.0,0.0,0.0,0.0,0.0,-1.2097,-1.2217,-1.2217,-1.2217,-1.4945,-1.5063,0.0,0.0,0.0,-1.2808,-1.3222,-1.4321,0.0,-1.3361,0.0,0.0,0.0,0.0,-1.0493,-1.0534,-1.0643,-1.0778,-1.0778,-1.0873,-1.1009,-1.105,-1.1206,-1.1396,-1.1436,-1.1552,-1.1701,-1.1843,-1.1993,0.0,0.0,0.0,0.0,0.0,0.0,0.0,0.0,0.0,0.0,0.0,0.0,0.0,0.0,0.0,0.0,0.0,0.0,0.0,0.0,0.0,0.0,0.0,0.0,0.0,0.0,0.0,0.0,0.0,0.0,0.0,0.0,0.0,-1.6164,-1.6354,-1.6463,-1.6612,-1.6802,-1.6917,-1.6978,-1.6978,-1.6978,-1.6978,-1.6978,-1.6978,-1.6978,-1.6978,-1.6978,-1.6978,-1.6978,-1.6978,-1.6978,-1.6978,-1.6978,-1.6978,-1.6978,-1.6978,-1.6978,-1.6978,-1.6978,-1.7005,-1.7053,0.0,0.0,0.0,0.0,0.0,0.0,0.0,0.0,0.0,0.0,0.0,0.0,0.0,0.0,-0.9652,-0.9795,0.0,0.0,0.0,0.0,0.0,-1.2097,-1.2217,0.0,-1.2217,-1.3885,0.0,0.0,0.0,0.0,-1.4371,-1.1547,-1.114,-1.2602,-1.2479,-1.1604,-1.0404,0.0,0.0,0.0,-1.0649,-1.0799,-1.0934,-1.0934,-1.1023,-1.1172,-1.1314,0.0,-1.1416,-1.1558,-1.1701,-1.1843,0.0,0.0,0.0,0.0,0.0,0.0,0.0,0.0,0.0,0.0,0.0,0.0,0.0,0.0,0.0,0.0,0.0,0.0,0.0,0.0,0.0,0.0,0.0,0.0,0.0,0.0,0.0,0.0,0.0,0.0,0.0,0.0,0.0,0.0,-1.6083,-1.6205,-1.6497,-1.6517,-1.6659,-1.6958,-1.6978,-1.6978,-1.6978,-1.6978,-1.6978,-1.6978,-1.6978,-1.6978,-1.6978,-1.6978,-1.6978,-1.6978,-1.6978,-1.6978,-1.6978,-1.6978,-1.6978,-1.6978,-1.6978,-1.6978,-1.6978,-1.6978,-1.7066,-1.7182,0.0,0.0,0.0,0.0,0.0,0.0,0.0,0.0,0.0,0.0,0.0,0.0,0.0,-0.9747,-0.9768,-0.9815,-0.9822,0.0,0.0,0.0,0.0,-1.0657,-1.0664,-1.0664,-1.0664,-1.2217,0.0,0.0,0.0,-1.2034,-1.167,-1.0514,-1.0399,-1.1209,-1.1114,-1.0777,-1.0419,-1.0473,0.0,0.0,-1.0806,-1.09,-1.0962,-1.105,0.0,0.0,0.0,0.0,0.0,0.0,0.0,0.0,0.0,0.0,0.0,0.0,0.0,0.0,0.0,0.0,0.0,0.0,0.0,0.0,0.0,0.0,0.0,0.0,0.0,0.0,0.0,0.0,0.0,0.0,0.0,0.0,0.0,0.0,0.0,0.0,0.0,0.0,0.0,0.0,0.0,0.0,0.0,-1.6212,-1.6503,-1.6524,-1.6659,-1.6971,-1.6978,-1.6978,-1.6978,-1.6978,-1.6978,-1.6978,-1.6978,-1.6978,-1.6978,-1.6978,-1.6978,-1.6978,-1.6978,-1.6978,-1.6978,-1.6978,-1.6978,-1.6978,-1.6978,-1.6978,-1.6992,-1.708,-1.7148,-1.7222,0.0,0.0,0.0,0.0,0.0,0.0,0.0,0.0,0.0,0.0,0.0,0.0,0.0,0.0,-0.9822,-0.9822,-0.9822,-0.9822,-0.9822,-0.9822,-0.9822,-0.9822,-0.9822,-0.9822,-0.9822,-1.0899,0.0,0.0,0.0,0.0,0.0,-1.0154,-1.0304,-1.0487,-1.0446,-1.048,0.0,0.0,0.0,-1.0812,0.0,-1.105,-1.1111,0.0,0.0,0.0,0.0,0.0,0.0,0.0,0.0,0.0,0.0,0.0,0.0,0.0,0.0,0.0,0.0,0.0,0.0,0.0,0.0,0.0,0.0,0.0,0.0,0.0,0.0,0.0,0.0,0.0,0.0,0.0,0.0,0.0,0.0,0.0,0.0,0.0,0.0,0.0,0.0,0.0,0.0,0.0,0.0,0.0,-1.6503,-1.6524,-1.6659,-1.6971,-1.6978,-1.6978,-1.6978,-1.6978,-1.6978,-1.6978,-1.6978,-1.6978,-1.6978,-1.6978,-1.6978,-1.6978,-1.6978,-1.6978,-1.6978,-1.6978,-1.6978,-1.6978,-1.6978,-1.7012,-1.7066,-1.7154,-1.7256,-1.7372,0.0,0.0,0.0,0.0,0.0,0.0,0.0,0.0,0.0,0.0,0.0,0.0,0.0,0.0,0.0,-0.9822,-0.9822,-0.9822,-0.9822,-0.9822,-0.9822,-0.9822,-0.9822,-0.9822,-0.9829,-0.9829,0.0,0.0,0.0,0.0,0.0,0.0,-1.0493,-1.0507,-1.0656,-1.0724,-1.0738,0.0,-1.0948,-1.0968,0.0,-1.126,-1.1389,0.0,0.0,0.0,-1.1626,-1.1714,0.0,0.0,0.0,0.0,0.0,0.0,0.0,0.0,0.0,0.0,0.0,0.0,0.0,0.0,0.0,0.0,0.0,0.0,0.0,0.0,0.0,0.0,0.0,0.0,0.0,0.0,0.0,0.0,0.0,0.0,0.0,0.0,0.0,0.0,0.0,0.0,0.0,0.0,-1.6083,-1.6212,-1.6503,-1.653,-1.6673,-1.6971,-1.6978,-1.6978,-1.6978,-1.6978,-1.6978,-1.6978,-1.6978,-1.6978,-1.6978,-1.6978,-1.6978,-1.6978,-1.6978,-1.6978,-1.6978,-1.6978,-1.6978,-1.6978,-1.6978,-1.7066,-1.7195,-1.7195,-1.7392,-1.765,0.0,0.0,0.0,0.0,0.0,0.0,-0.9741,0.0,0.0,0.0,0.0,0.0,0.0,0.0,-0.9822,-0.9822,-0.9822,-0.9822,-0.9822,-0.9822,-0.9822,-0.9822,-0.9822,-0.9876,-0.9985,-0.9985,-1.0039,0.0,0.0,-1.027,-1.0371,-1.0453,0.0,0.0,-1.0819,-1.0887,-1.0887,-1.0928,0.0,0.0,-1.1267,-1.1355,0.0,0.0,0.0,0.0,0.0,-1.187,0.0,0.0,-1.2128,-1.2311,0.0,0.0,0.0,0.0,0.0,0.0,-1.3356,0.0,0.0,0.0,0.0,0.0,0.0,0.0,0.0,0.0,0.0,0.0,0.0,0.0,0.0,0.0,0.0,0.0,0.0,0.0,0.0,0.0,0.0,0.0,0.0,0.0,0.0,0.0,-1.6083,-1.6212,-1.6503,-1.6734,-1.689,-1.6978,-1.6978,-1.6978,-1.6978,-1.6978,-1.6978,-1.6978,-1.6978,-1.6978,-1.6978,-1.6978,-1.6978,-1.6978,-1.6978,-1.6978,-1.6978,-1.6978,-1.6978,-1.6978,-1.6978,-1.7066,-1.7209,-1.7317,-1.748,-1.7663,0.0,0.0,0.0,0.0,0.0,-0.9727,-0.9808,-0.9822,-0.9822,0.0,0.0,0.0,0.0,0.0,-0.9917,-0.9917,-0.9971,-1.0012,-1.0012,-1.0012,-1.0012,-1.0012,-1.0012,-1.0053,-1.0141,-1.0148,-1.0188,-1.0283,-1.0337,-1.0412,-1.0493,-1.0622,-1.0731,0.0,0.0,0.0,0.0,0.0,0.0,0.0,-1.1423,0.0,0.0,-1.1653,-1.1755,0.0,0.0,0.0,-1.2155,-1.2155,-1.2257,0.0,0.0,0.0,0.0,0.0,0.0,0.0,0.0,0.0,0.0,0.0,0.0,0.0,-1.3403,-1.3587,0.0,0.0,0.0,0.0,0.0,0.0,0.0,0.0,0.0,0.0,0.0,0.0,0.0,0.0,0.0,0.0,0.0,-1.6083,-1.6083,-1.6083,-1.6083,-1.6212,-1.6503,-1.6815,-1.6978,-1.6978,-1.6978,-1.6978,-1.6978,-1.6978,-1.6978,-1.6978,-1.6978,-1.6978,-1.6978,-1.6978,-1.6978,-1.6978,-1.6978,-1.6978,-1.6978,-1.6978,-1.6978,-1.6985,-1.7046,-1.7161,-1.7304,-1.746,-1.7609,-1.7758,0.0,0.0,-0.9673,-0.9802,-0.9822,-0.9822,-0.9822,-0.9822,-0.9822,0.0,0.0,0.0,0.0,0.0,0.0,-1.0073,-1.0202,-1.0283,-1.0283,-1.0283,-1.0283,-1.0283,-1.0283,-1.029,-1.0304,-1.0304,-1.031,-1.0331,-1.0453,-1.0527,-1.0548,-1.0819,-1.0955,-1.0982,0.0,0.0,0.0,0.0,0.0,-1.145,-1.1586,-1.164,0.0,0.0,-1.1864,0.0,-1.2054,-1.221,-1.2338,-1.2359,-1.2447,0.0,0.0,0.0,0.0,0.0,-1.3281,0.0,0.0,0.0,0.0,0.0,0.0,0.0,-1.3403,-1.3532,-1.3688,0.0,0.0,0.0,0.0,0.0,0.0,0.0,0.0,0.0,0.0,0.0,0.0,0.0,0.0,0.0,-1.6083,-1.6083,-1.6083,-1.6083,-1.6096,-1.6225,-1.651,-1.6795,-1.6965,-1.6978,-1.6978,-1.6978,-1.6978,-1.6978,-1.6978,-1.6978,-1.6978,-1.6978,-1.6978,-1.6978,-1.6978,-1.6978,-1.6978,-1.6978,-1.6978,-1.6978,-1.6978,-1.6992,-1.7141,-1.7283,-1.7439,-1.7595,-1.7738,-1.786,0.0,0.0,-0.9788,-0.9815,-0.9822,-0.9822,-0.9822,-0.9822,-0.9822,0.0,0.0,0.0,0.0,0.0,0.0,-1.0236,-1.0263,-1.0283,-1.0283,-1.0283,-1.0283,-1.0283,-1.0283,-1.0331,-1.0446,-1.0453,-1.0514,-1.0636,-1.0663,-1.0738,-1.086,-1.0921,-1.1009,-1.1124,0.0,0.0,0.0,0.0,0.0,-1.1748,-1.1775,0.0,-1.1809,-1.1959,-1.2094,-1.2216,-1.2366,-1.2515,-1.2664,0.0,-1.2847,-1.2874,0.0,0.0,0.0,0.0,0.0,0.0,0.0,0.0,0.0,0.0,0.0,0.0,-1.3403,-1.3607,-1.3804,0.0,0.0,0.0,0.0,0.0,0.0,0.0,0.0,0.0,0.0,0.0,0.0,0.0,0.0,0.0,-1.6083,-1.6083,-1.6083,-1.6083,-1.6198,-1.6341,-1.651,-1.6693,-1.6849,-1.6978,-1.6978,-1.6978,-1.6978,-1.6978,-1.6978,-1.6978,-1.6978,-1.6978,-1.6978,-1.6978,-1.6978,-1.6978,-1.6978,-1.6978,-1.6978,-1.6978,-1.6978,-1.6992,-1.7141,-1.7283,-1.7439,-1.7595,-1.7738,-1.786,-0.9822,0.0,-0.9822,-0.9822,-0.9822,-0.9822,-0.9822,-0.9883,-0.9937,0.0,0.0,0.0,0.0,0.0,0.0,0.0,-1.046,-1.05,-1.05,-1.05,-1.05,-1.05,-1.05,-1.0534,-1.0602,-1.0609,-1.0683,-1.0833,-1.0833,-1.0907,-1.1056,-1.1131,-1.1206,-1.1287,0.0,0.0,0.0,0.0,-1.1877,-1.1945,-1.1945,0.0,-1.1972,-1.2196,-1.2332,-1.2427,-1.2651,-1.2779,-1.2861,-1.2935,-1.2963,0.0,0.0,-1.3119,-1.3186,0.0,-1.3342,-1.3403,0.0,0.0,0.0,-1.3403,0.0,0.0,0.0,-1.3573,-1.3756,-1.3824,-1.4027,-1.4251,-1.4468,0.0,0.0,0.0,0.0,0.0,0.0,0.0,0.0,0.0,0.0,0.0,-1.6083,-1.6083,-1.6083,-1.6083,-1.6225,-1.6374,-1.6517,-1.6666,-1.6822,-1.6978,-1.6978,-1.6978,-1.6978,-1.6978,-1.6978,-1.6978,-1.6978,-1.6978,-1.6978,-1.6978,-1.6978,-1.6978,-1.6978,-1.6978,-1.6978,-1.6978,-1.6978,-1.7005,-1.7222,-1.7351,-1.7446,-1.767,-1.7806,-1.786,0.0,0.0,0.0,-0.9822,-0.9842,-0.9863,-0.9863,-0.9998,0.0,0.0,0.0,0.0,0.0,0.0,0.0,0.0,0.0,-1.0778,0.0,0.0,-1.0806,-1.0806,-1.0806,-1.0806,-1.0806,-1.0806,-1.0867,-1.0989,-1.0989,-1.1063,-1.1212,-1.1335,-1.1423,0.0,0.0,0.0,0.0,0.0,0.0,-1.2108,0.0,-1.2176,-1.2176,-1.244,-1.2562,-1.263,-1.2901,-1.3024,-1.3044,-1.3044,0.0,-1.3064,-1.318,-1.3214,0.0,0.0,0.0,0.0,0.0,0.0,0.0,0.0,0.0,-1.3403,0.0,0.0,0.0,-1.381,-1.3966,0.0,0.0,0.0,0.0,0.0,0.0,0.0,0.0,-1.5581,0.0,-1.6015,0.0,0.0,-1.6083,-1.6083,-1.6083,-1.6083,-1.6198,-1.6327,-1.6476,-1.6625,-1.6775,-1.6931,-1.6965,-1.6978,-1.6978,-1.6978,-1.6978,-1.6978,-1.6978,-1.6978,-1.6978,-1.6978,-1.6978,-1.6978,-1.6978,-1.6978,-1.6978,-1.6978,-1.6998,-1.7046,-1.7317,-1.7419,-1.7453,-1.7758,-1.786,-1.786,-0.9822,-0.9822,0.0,0.0,-0.993,-1.0025,-1.0025,-1.0154,0.0,0.0,0.0,0.0,0.0,0.0,0.0,0.0,0.0,0.0,-1.1104,0.0,0.0,-1.1111,-1.1111,-1.1111,-1.1111,-1.1111,-1.1118,-1.1138,-1.1138,-1.1219,-1.1362,-1.1382,-1.1531,0.0,-1.1796,0.0,0.0,0.0,-1.225,0.0,-1.2549,-1.2576,0.0,-1.2637,-1.2786,-1.2929,-1.3091,-1.3234,-1.3349,0.0,-1.3349,-1.3356,0.0,-1.3376,0.0,0.0,0.0,0.0,0.0,0.0,0.0,0.0,-1.3403,0.0,0.0,0.0,-1.3668,-1.381,0.0,0.0,0.0,0.0,0.0,0.0,0.0,0.0,-1.5018,-1.5276,-1.5567,-1.5845,-1.6001,0.0,0.0,-1.6083,-1.6083,-1.6083,-1.6096,-1.6171,-1.6327,-1.6469,-1.6619,-1.6768,-1.691,-1.6978,-1.6978,-1.6978,-1.6978,-1.6978,-1.6978,-1.6978,-1.6978,-1.6978,-1.6978,-1.6978,-1.6978,-1.6978,-1.6978,-1.6978,-1.7053,-1.7182,-1.7351,-1.7419,-1.7453,-1.7758,-1.786,-1.786,-0.9856,0.0,0.0,0.0,-1.008,-1.0181,-1.0181,-1.031,-1.0487,0.0,0.0,0.0,0.0,0.0,0.0,0.0,0.0,-1.1097,0.0,0.0,0.0,-1.1165,-1.1165,-1.1165,-1.1165,-1.1165,-1.1206,-1.1294,-1.1294,-1.1416,-1.1647,-1.1647,-1.1762,0.0,-1.1965,0.0,-1.2196,0.0,0.0,0.0,0.0,0.0,0.0,-1.2963,-1.3085,-1.322,-1.3281,-1.3349,-1.3403,0.0,-1.3403,0.0,0.0,0.0,0.0,0.0,0.0,0.0,0.0,0.0,0.0,0.0,0.0,0.0,-1.3403,0.0,-1.3668,0.0,0.0,0.0,0.0,0.0,0.0,0.0,-1.4733,0.0,0.0,0.0,-1.552,0.0,0.0,0.0,0.0,0.0,0.0,0.0,-1.6083,-1.6151,-1.63,-1.6442,-1.6592,-1.6748,-1.6904,-1.6978,-1.6978,-1.6978,-1.6978,-1.6978,-1.6978,-1.6978,-1.6978,-1.6978,-1.6978,-1.6978,-1.6978,-1.6978,-1.6978,-1.6978,-1.7066,-1.7209,-1.7358,-1.7473,-1.7582,-1.7792,-1.786,-1.786,-0.9992,0.0,0.0,0.0,0.0,-1.0365,-1.0453,-1.0555,0.0,0.0,0.0,0.0,-1.1151,-1.1165,0.0,0.0,0.0,-1.1246,0.0,0.0,-1.1287,0.0,0.0,0.0,0.0,-1.1287,-1.1362,-1.1511,-1.1511,-1.164,-1.1898,-1.1898,-1.1979,-1.2128,0.0,-1.223,-1.2413,0.0,0.0,-1.28,-1.2834,-1.3003,-1.3234,-1.3234,-1.3302,-1.3403,-1.3403,-1.3403,-1.3403,-1.3403,-1.3403,0.0,-1.3403,0.0,0.0,0.0,0.0,0.0,-1.3403,0.0,0.0,0.0,0.0,0.0,0.0,0.0,0.0,0.0,0.0,0.0,0.0,0.0,0.0,0.0,0.0,-1.4848,0.0,-1.5099,0.0,0.0,0.0,0.0,0.0,0.0,0.0,0.0,0.0,-1.613,-1.6239,-1.6381,-1.653,-1.668,-1.6836,-1.6937,-1.6978,-1.6978,-1.6978,-1.6978,-1.6978,-1.6978,-1.6978,-1.6978,-1.6978,-1.6978,-1.6978,-1.6978,-1.6978,-1.6978,-1.7087,-1.7263,-1.7378,-1.7541,-1.7717,-1.7826,-1.786,-1.786,-1.027,-1.027,0.0,0.0,0.0,0.0,0.0,0.0,0.0,0.0,0.0,0.0,0.0,0.0,0.0,0.0,0.0,-1.145,-1.1592,0.0,-1.1606,0.0,0.0,-1.1606,0.0,-1.1606,-1.1674,-1.1816,-1.1816,-1.1898,-1.2054,-1.2054,-1.2135,-1.2284,0.0,-1.244,-1.2718,-1.2718,-1.2807,-1.2969,-1.3105,-1.3254,-1.3397,0.0,-1.3397,-1.3403,-1.3403,0.0,0.0,-1.3403,-1.3403,0.0,0.0,0.0,0.0,0.0,0.0,0.0,0.0,0.0,0.0,-1.3403,0.0,0.0,0.0,0.0,-1.3715,0.0,0.0,0.0,0.0,0.0,0.0,0.0,0.0,0.0,0.0,0.0,0.0,0.0,0.0,0.0,0.0,-1.5995,-1.6083,0.0,-1.6083,0.0,-1.609,-1.6232,-1.6381,-1.6524,-1.668,-1.6829,-1.6978,-1.6978,-1.6978,-1.6978,-1.6978,-1.6978,-1.6978,-1.6978,-1.6978,-1.6978,-1.6978,-1.6978,-1.6978,-1.6978,-1.7154,-1.7412,-1.7419,-1.7602,-1.786,-1.786,-1.786,-1.786,0.0,0.0,0.0,0.0,0.0,0.0,0.0,-1.109,0.0,0.0,0.0,0.0,0.0,0.0,-1.1789,0.0,0.0,-1.1857,-1.1911,-1.1911,0.0,0.0,0.0,-1.1911,0.0,0.0,-1.1938,-1.1986,-1.1986,-1.206,-1.221,-1.221,-1.2291,-1.2433,0.0,-1.2637,0.0,0.0,0.0,0.0,0.0,-1.3356,-1.3403,0.0,0.0,-1.3403,-1.3403,-1.3403,0.0,-1.3519,-1.3553,-1.3566,-1.3661,-1.3688,-1.3688,-1.3688,-1.3688,0.0,0.0,0.0,-1.3688,-1.3688,0.0,0.0,0.0,0.0,0.0,0.0,0.0,0.0,0.0,0.0,0.0,0.0,0.0,0.0,0.0,0.0,0.0,0.0,0.0,0.0,0.0,0.0,0.0,0.0,-1.6083,0.0,-1.6083,-1.6225,-1.6374,-1.6517,-1.6673,-1.6822,-1.6978,-1.6978,-1.6978,-1.6978,-1.6978,-1.6978,-1.6978,-1.6978,-1.6978,-1.6978,-1.6978,-1.6978,-1.6985,-1.708,-1.7243,-1.7433,-1.7534,-1.7684,-1.786,-1.786,-1.786,-1.786,-1.088,0.0,0.0,0.0,0.0,0.0,0.0,0.0,0.0,0.0,-1.1516,0.0,-1.1729,0.0,-1.0492,0.0,-1.225,-1.223,-1.2216,-1.2169,0.0,-1.2142,-1.2094,0.0,0.0,0.0,-1.2088,-1.2142,-1.2142,-1.2223,-1.2366,-1.2366,-1.244,-1.2589,0.0,0.0,0.0,0.0,-1.3119,0.0,0.0,-1.3437,0.0,0.0,-1.3485,-1.3492,0.0,-1.3559,-1.3573,-1.3675,-1.3702,-1.3722,-1.381,-1.3838,-1.3838,-1.3838,-1.3838,-1.3838,-1.3838,-1.3838,0.0,-1.3838,-1.3838,0.0,-1.3912,0.0,0.0,0.0,0.0,0.0,0.0,0.0,0.0,0.0,0.0,0.0,0.0,-1.4889,0.0,0.0,0.0,0.0,0.0,0.0,-1.5967,-1.6076,-1.6029,-1.6022,0.0,0.0,-1.6293,-1.6442,-1.6592,-1.6741,-1.6897,-1.6951,-1.6978,-1.6978,-1.6978,-1.6978,-1.6978,-1.6978,-1.6978,-1.6978,-1.6978,-1.6978,-1.6992,-1.7134,-1.7283,-1.7439,-1.7589,-1.7738,-1.786,-1.786,-1.786,-1.786,0.0,0.0,0.0,0.0,-1.109,0.0,0.0,0.0,-1.1409,0.0,-1.1488,-1.1463,-1.2053,-0.8329,-0.7581,-1.1772,-1.2414,0.0,-1.2528,-1.24,0.0,0.0,-1.2182,-1.2108,-1.2108,0.0,0.0,0.0,-1.2325,-1.2393,-1.2522,-1.2522,-1.2603,-1.2745,-1.2752,0.0,-1.3173,-1.318,-1.3275,-1.341,-1.341,-1.3505,-1.3641,-1.3648,-1.3648,-1.3668,-1.3797,-1.3838,-1.3844,-1.3851,-1.3851,-1.3851,-1.3865,-1.3865,-1.3865,-1.3865,-1.3865,-1.3865,-1.3865,-1.3865,-1.3865,-1.3865,0.0,0.0,0.0,0.0,-1.4143,0.0,0.0,0.0,0.0,0.0,0.0,0.0,0.0,0.0,0.0,0.0,0.0,0.0,0.0,0.0,-1.5615,-1.5642,-1.5764,-1.6049,-1.594,-1.5927,0.0,0.0,-1.6151,-1.6307,-1.6449,-1.6592,-1.6748,-1.6904,-1.6978,-1.6978,-1.6978,-1.6978,-1.6978,-1.6978,-1.6978,-1.6978,-1.6978,-1.6985,-1.7005,-1.7148,-1.7297,-1.7446,-1.7602,-1.7738,-1.786,-1.786,-1.786,-1.786,-1.1226,-1.1294,-1.1409,0.0,-1.1457,-1.1416,0.0,0.0,0.0,0.0,-0.9218,-0.8402,-1.1439,-0.845,-0.6716,-0.8025,-1.1101,0.0,0.0,0.0,0.0,-1.2786,-1.2752,-1.2732,-1.2732,-1.2732,0.0,-1.2786,-1.2786,-1.2807,-1.284,-1.284,-1.2861,-1.2908,0.0,0.0,-1.318,-1.3295,-1.3431,-1.3573,-1.3573,-1.3654,0.0,0.0,-1.396,-1.3946,-1.3871,-1.3838,-1.3858,-1.3973,-1.4014,-1.4034,-1.415,-1.4183,-1.4183,-1.4183,-1.4183,-1.4183,-1.4183,-1.4183,-1.4183,-1.4183,-1.4258,-1.4346,0.0,0.0,0.0,0.0,0.0,0.0,0.0,0.0,0.0,0.0,0.0,0.0,0.0,0.0,0.0,-1.5167,0.0,0.0,-1.5452,-1.5669,-1.5832,-1.5906,-1.5981,-1.6042,-1.6083,0.0,0.0,-1.6307,-1.6449,-1.6592,-1.6748,-1.6904,-1.6978,-1.6978,-1.6978,-1.6978,-1.6978,-1.6978,-1.6978,-1.6978,-1.6978,-1.7039,-1.7148,-1.7297,-1.7453,-1.7602,-1.7758,-1.7826,-1.786,-1.786,-1.786,-1.786,-0.8902,0.0,0.0,-1.1643,0.0,0.0,-1.1777,0.0,0.0,-1.1811,-0.6744,0.0,-0.6327,-0.4727,-0.36,-0.3779,-0.9559,0.0,0.0,0.0,0.0,-1.3051,-1.2996,-1.2963,-1.2963,-1.2963,0.0,-1.2963,0.0,0.0,-1.2963,-1.2963,-1.2996,-1.3057,0.0,-1.3207,0.0,-1.3437,-1.3553,-1.3634,-1.3695,0.0,0.0,-1.4041,-1.415,-1.4251,-1.4163,-1.4095,-1.4055,-1.4143,-1.4211,-1.4278,-1.4367,-1.4441,-1.4489,-1.4489,-1.4489,-1.4489,-1.4489,-1.4489,-1.4489,-1.4489,-1.455,-1.4611,-1.4611,-1.4679,-1.474,0.0,0.0,0.0,0.0,0.0,0.0,0.0,0.0,0.0,0.0,0.0,0.0,0.0,-1.5181,0.0,-1.5303,-1.5466,-1.5615,-1.575,-1.5839,-1.5913,-1.5981,0.0,0.0,-1.6205,-1.6415,-1.6564,-1.6653,-1.687,-1.6978,-1.6978,-1.6978,-1.6978,-1.6978,-1.6978,-1.6978,-1.6978,-1.6978,-1.706,-1.7202,-1.7358,-1.7507,-1.7663,-1.7812,-1.786,-1.786,-1.786,-1.786,-1.786,0.0,0.0,0.0,0.0,0.0,0.0,0.0,-1.2026,0.0,-1.1748,0.0,0.0,0.0,0.0,0.0,0.0,0.0,-1.2804,-1.3284,-1.3295,-1.32,-1.32,-1.3085,-1.3017,-1.3017,-1.3017,0.0,0.0,0.0,0.0,-1.3017,-1.3017,-1.3085,0.0,0.0,0.0,0.0,-1.3573,-1.3654,-1.3695,-1.3824,-1.3973,-1.4129,-1.4129,-1.4299,-1.4543,-1.4543,-1.4462,-1.436,-1.436,-1.4441,-1.4543,-1.4543,-1.4631,-1.474,-1.474,-1.474,-1.474,-1.474,-1.474,-1.474,-1.474,-1.4753,-1.4767,-1.4767,-1.4787,-1.4801,-1.4801,-1.4801,-1.4841,0.0,0.0,0.0,0.0,0.0,0.0,0.0,0.0,0.0,0.0,0.0,0.0,0.0,-1.5201,-1.5323,-1.5588,-1.5628,-1.5703,-1.5845,0.0,0.0,-1.6083,-1.6347,-1.6503,-1.6524,0.0,-1.6958,-1.6978,-1.6978,-1.6978,-1.6978,-1.6978,-1.6978,-1.6985,-1.6998,-1.7087,-1.7236,-1.7385,-1.7541,-1.7684,-1.7812,-1.786,-1.786,-1.786,-1.786,-1.786,0.0,0.0,0.0,0.0,0.0,-0.815,-1.1899,-1.1937,-1.1786,-1.2319,-0.5095,0.0,0.0,0.0,0.0,0.0,-0.486,0.0,0.0,0.0,0.0,-1.3363,-1.3336,-1.3322,-1.3322,-1.3322,-1.3322,0.0,0.0,0.0,-1.3322,-1.3322,-1.3336,0.0,0.0,0.0,-1.3593,-1.362,0.0,-1.3994,-1.4021,-1.419,-1.4434,-1.4434,-1.4543,-1.4699,-1.4699,-1.4685,-1.4665,-1.4665,-1.4679,-1.4699,-1.4699,-1.4719,-1.474,-1.474,-1.474,-1.474,-1.474,-1.474,-1.474,-1.474,-1.4835,-1.493,-1.493,-1.5025,-1.5106,-1.5106,-1.5106,-1.5113,-1.514,0.0,0.0,0.0,0.0,0.0,0.0,0.0,0.0,0.0,0.0,-1.5181,0.0,0.0,-1.5391,-1.5445,-1.5567,-1.5703,0.0,0.0,0.0,0.0,-1.6252,0.0,0.0,0.0,-1.6856,-1.6978,-1.6978,-1.6978,-1.6978,-1.6978,-1.6978,-1.6985,-1.7107,-1.7243,-1.7392,-1.7548,-1.7704,-1.7826,-1.7846,-1.786,-1.786,-1.786,-1.786,-1.786,0.0,0.0,0.0,0.0,0.0,0.0,0.0,-1.2293,0.0,-0.6615,-0.2496,0.0,0.0,0.0,0.0,0.0,-0.2041,-0.6139,-1.2866,-1.3363,-1.3472,-1.3378,-1.3378,0.0,-1.3403,-1.3403,-1.3403,-1.3403,0.0,0.0,-1.3403,-1.3403,0.0,-1.3403,0.0,-1.36,0.0,0.0,0.0,-1.4197,-1.4272,-1.4434,-1.4631,-1.4631,-1.4726,-1.4862,-1.4862,-1.4909,-1.4943,-1.4794,-1.4794,-1.4862,-1.4862,-1.4909,-1.497,-1.497,-1.497,-1.497,-1.497,-1.497,-1.497,-1.497,-1.5025,-1.5079,-1.5079,-1.5194,-1.5303,-1.5303,-1.5364,-1.5398,-1.5316,-1.5303,0.0,0.0,0.0,0.0,0.0,0.0,0.0,0.0,0.0,0.0,0.0,0.0,0.0,0.0,0.0,0.0,0.0,0.0,0.0,0.0,0.0,0.0,0.0,0.0,0.0,-1.6978,-1.6978,-1.6978,-1.6978,-1.6978,-1.6978,-1.6985,-1.7127,-1.7277,-1.7439,-1.767,-1.7806,-1.786,-1.786,-1.786,-1.786,-1.786,-1.786,-1.786,0.0,0.0,0.0,0.0,-1.1172,0.0,-1.0044,-0.9893,-0.7527,-0.0834,0.0,0.0,0.0,0.0,0.0,0.0,0.0,-0.2946,-1.0101,-1.1491,-1.1956,-1.2003,-1.2866,-1.3492,-1.3505,-1.3505,-1.3498,0.0,0.0,0.0,0.0,-1.3478,0.0,0.0,0.0,0.0,0.0,0.0,-1.4204,-1.436,-1.4502,-1.4652,-1.4787,-1.4787,-1.4882,-1.5018,-1.5018,-1.5086,-1.5153,-1.495,-1.4943,-1.5018,-1.5018,-1.5092,-1.5181,-1.5181,-1.5181,-1.5181,-1.5181,-1.5181,-1.5187,-1.5221,-1.5228,-1.5242,-1.5269,-1.5371,-1.5459,-1.5459,-1.5554,-1.5601,-1.5479,-1.5459,0.0,0.0,0.0,0.0,0.0,0.0,0.0,0.0,0.0,0.0,-1.5276,0.0,0.0,0.0,0.0,0.0,-1.5791,0.0,0.0,0.0,0.0,-1.6347,-1.6517,0.0,-1.6795,-1.6978,-1.6978,-1.6978,-1.6978,-1.6978,-1.6978,-1.6992,-1.7168,-1.7344,-1.7534,-1.7772,-1.786,-1.786,-1.786,-1.786,-1.786,-1.786,-1.786,-1.786,0.0,0.0,0.0,0.0,0.0,0.0,0.0,-0.1195,-0.0854,-0.0171,0.0,0.0,0.0,0.0,0.0,0.0,0.0,-0.0347,-0.1213,-0.5021,-0.7274,-0.7263,-1.1285,-1.3555,-1.3673,-1.3673,-1.366,0.0,0.0,0.0,0.0,0.0,0.0,0.0,0.0,0.0,0.0,-1.4211,-1.436,-1.4502,-1.4658,-1.4814,-1.495,-1.495,-1.5038,-1.516,-1.516,-1.5174,-1.5201,-1.5309,-1.5262,-1.516,-1.516,-1.5174,-1.5181,-1.5181,-1.5181,-1.5181,-1.5181,-1.5181,-1.5215,-1.5357,-1.5391,-1.5425,-1.5567,-1.5608,-1.5615,-1.5615,-1.5628,-1.5635,-1.5622,-1.5615,-1.5615,0.0,0.0,0.0,0.0,0.0,-1.5594,-1.5594,0.0,0.0,0.0,-1.5099,0.0,0.0,-1.5493,0.0,0.0,0.0,0.0,-1.6076,0.0,-1.6239,-1.6517,-1.6537,-1.6693,-1.6978,-1.6978,-1.6978,-1.6978,-1.6978,-1.6978,-1.6998,-1.7277,-1.7561,-1.7826,-1.7846,-1.786,-1.786,-1.786,-1.786,-1.786,-1.786,-1.786,-1.786,0.0,0.0,0.0,0.0,0.0,0.0,0.0,0.0,0.0,0.0,0.0,0.0,0.0,0.0,0.0,0.0,0.0,0.0,0.0,-0.1769,-0.2644,-0.2623,-0.4374,-0.6628,-0.9357,-1.2318,-1.3885,0.0,0.0,0.0,0.0,0.0,0.0,0.0,0.0,-1.4197,-1.4346,-1.4496,-1.4652,-1.4794,-1.4855,-1.497,-1.5099,-1.5099,-1.5187,-1.5316,-1.5316,-1.5377,-1.5466,-1.5527,-1.5445,-1.5337,-1.5425,-1.5459,-1.5459,-1.5459,-1.5459,-1.5459,-1.5459,-1.5459,-1.5472,-1.5533,-1.5547,-1.556,-1.5628,-1.5703,-1.5771,-1.5771,-1.5839,-1.5879,-1.5784,-1.5771,-1.5737,0.0,0.0,0.0,0.0,0.0,0.0,-1.5642,0.0,-1.5404,0.0,0.0,0.0,0.0,0.0,0.0,0.0,0.0,0.0,-1.6076,0.0,-1.6225,-1.6517,-1.6524,-1.6673,-1.6978,-1.6978,-1.6978,-1.6978,-1.6978,-1.708,-1.7249,-1.7372,-1.7589,-1.786,-1.786,-1.786,-1.786,-1.786,-1.786,-1.786,-1.786,-1.786,-1.786,0.0,0.0,0.0,0.0,0.0,0.0,0.0,0.0,0.0,0.0,0.0,0.0,0.0,0.0,0.0,0.0,0.0,0.0,0.0,0.0,0.0,0.0,0.0,0.0,-0.4589,-1.0936,-1.4116,-1.4095,-1.4027,0.0,0.0,0.0,0.0,0.0,-1.438,-1.4482,-1.459,-1.474,-1.4869,-1.4977,-1.5018,-1.512,-1.5248,-1.5248,-1.5343,-1.5479,-1.5479,-1.5547,-1.5649,-1.5689,-1.5628,-1.5554,-1.5622,-1.5642,-1.5642,-1.5642,-1.5642,-1.5642,-1.5642,-1.5642,-1.5649,-1.5689,-1.5703,-1.5716,-1.5757,-1.5845,-1.592,-1.592,-1.6008,-1.6049,-1.594,-1.592,-1.5886,-1.5784,0.0,0.0,0.0,0.0,0.0,0.0,-1.5527,-1.5472,-1.5628,-1.5235,0.0,0.0,0.0,0.0,0.0,0.0,0.0,0.0,0.0,0.0,0.0,-1.6524,-1.6673,-1.6978,-1.6978,-1.6978,-1.6978,-1.6978,-1.7141,-1.7419,-1.7419,-1.7589,-1.786,-1.786,-1.786,-1.786,-1.786,-1.786,-1.786,-1.786,-1.786,-1.786,0.0,0.0,0.0,0.0,0.0,0.0,0.0,0.0,0.0,0.0,0.0,0.0,0.0,0.0,0.0,0.0,0.0,0.0,0.0,0.0,0.0,0.0,0.0,-0.0,-0.0,-0.9351,-1.4269,-1.4383,0.0,0.0,-1.4075,0.0,-1.4448,-1.4733,-1.4733,-1.4733,-1.4746,-1.4903,-1.497,-1.4984,-1.5126,-1.5269,-1.5404,-1.5404,-1.5506,-1.5635,-1.5635,-1.5635,-1.5662,-1.5805,-1.5852,-1.5825,-1.5683,-1.5642,-1.5642,-1.5642,-1.5642,-1.5642,-1.5642,-1.5642,-1.5676,-1.5818,-1.5852,-1.5893,-1.6042,-1.6076,-1.6076,-1.6076,-1.6083,-1.6083,-1.6083,-1.6076,-1.6076,-1.6076,0.0,0.0,0.0,0.0,0.0,-1.5866,-1.5588,-1.5472,-1.5628,-1.5235,0.0,0.0,0.0,0.0,0.0,0.0,0.0,-1.6076,-1.6083,0.0,-1.6517,-1.6524,-1.6673,-1.6978,-1.6978,-1.6978,-1.6978,-1.6978,-1.7141,-1.7419,-1.7419,-1.7589,-1.786,-1.786,-1.786,-1.786,-1.786,-1.786,-1.786,-1.786,-1.786,-1.786,0.0,0.0,0.0,0.0,0.0,0.0,0.0,0.0,0.0,0.0,0.0,0.0,0.0,0.0,0.0,0.0,0.0,0.0,0.0,0.0,0.0,0.0,0.0,0.0,0.0,-0.2947,-0.7731,-1.4434,0.0,0.0,0.0,-1.4577,-1.4652,-1.4746,-1.4848,-1.4896,-1.4909,-1.5052,-1.5174,-1.5276,-1.5316,-1.5432,-1.5567,-1.5567,-1.5655,-1.5784,-1.5784,-1.5852,-1.5947,-1.5995,-1.6008,-1.6001,-1.5954,-1.594,-1.594,-1.594,-1.594,-1.594,-1.594,-1.594,-1.5954,-1.5995,-1.6008,-1.6022,-1.6069,-1.6083,-1.6083,-1.6083,-1.6083,-1.6083,-1.6083,-1.6083,-1.6083,-1.6083,-1.6083,0.0,0.0,0.0,-1.6062,-1.6015,-1.5832,-1.5771,-1.5927,-1.5533,0.0,0.0,0.0,0.0,0.0,0.0,0.0,0.0,-1.6083,0.0,-1.6517,-1.6524,-1.6673,-1.6978,-1.6978,-1.6978,-1.6978,-1.6978,-1.7141,-1.7419,-1.7419,-1.7589,-1.786,-1.786,-1.786,-1.786,-1.786,-1.786,-1.786,-1.786,-1.786,-1.786,0.0,0.0,0.0,0.0,0.0,0.0,0.0,0.0,0.0,0.0,0.0,0.0,0.0,0.0,0.0,0.0,0.0,0.0,0.0,0.0,0.0,0.0,0.0,0.0,0.0,0.0,0.0,-0.9132,-1.2788,-1.4808,-1.4841,-1.4835,-1.4855,-1.4909,-1.5004,-1.5079,-1.514,-1.5228,-1.5357,-1.5499,-1.5499,-1.5588,-1.5716,-1.5716,-1.5811,-1.594,-1.594,-1.6001,-1.6083,-1.6083,-1.6083,-1.6083,-1.6096,-1.6103,-1.6096,-1.6083,-1.609,-1.6103,-1.6103,-1.6103,-1.6103,-1.6103,-1.609,-1.6083,-1.6083,-1.6083,-1.6083,-1.6083,-1.6083,-1.6083,-1.6083,-1.6083,-1.6083,-1.6083,-1.6083,-1.6083,-1.6083,0.0,-1.6062,0.0,0.0,0.0,0.0,-1.571,-1.5655,0.0,0.0,0.0,0.0,0.0,0.0,-1.6076,-1.6083,0.0,-1.6517,-1.6524,-1.6673,-1.6978,-1.6978,-1.6978,-1.6978,-1.6978,-1.7141,-1.7419,-1.7419,-1.7589,-1.786,-1.786,-1.786,-1.786,-1.786,-1.786,-1.786,-1.786,-1.786,-1.786,0.0,0.0,0.0,0.0,0.0,0.0,0.0,0.0,0.0,0.0,0.0,0.0,0.0,0.0,0.0,0.0,0.0,0.0,0.0,0.0,0.0,0.0,0.0,0.0,0.0,0.0,0.0,-0.0,-0.9279,-1.4152,-1.4865,-1.5018,-1.5079,-1.5215,-1.5215,-1.5296,-1.5425,-1.5425,-1.5513,-1.5655,-1.5655,-1.5744,-1.5866,-1.5866,-1.5954,-1.6083,-1.6083,-1.6083,-1.6083,-1.6083,-1.6083,-1.609,-1.6123,-1.5924,-1.5518,-1.5897,-1.611,-1.5937,-1.5724,-1.5525,-1.5724,-1.5937,-1.6117,-1.609,-1.609,-1.609,-1.6083,-1.6083,-1.6083,-1.6083,-1.6083,-1.6083,-1.6083,-1.6083,-1.6083,-1.6083,-1.6083,0.0,-1.6029,0.0,0.0,0.0,0.0,-1.5791,-1.5866,0.0,0.0,0.0,0.0,0.0,-1.5934,-1.6076,-1.6083,-1.6225,-1.6517,-1.6524,-1.6673,-1.6978,-1.6978,-1.6978,-1.6978,-1.6978,-1.7141,-1.7419,-1.7419,-1.7589,-1.786,-1.786,-1.786,-1.786,-1.786,-1.786,-1.786,-1.786,-1.786,-1.786,0.0,0.0,0.0,0.0,0.0,0.0,0.0,0.0,0.0,0.0,0.0,0.0,0.0,0.0,0.0,0.0,0.0,0.0,0.0,0.0,0.0,0.0,0.0,0.0,0.0,0.0,0.0,-0.0,-0.2454,-0.7578,-1.5357,-1.535,-1.5411,-1.5533,-1.5533,-1.5554,-1.5588,-1.5588,-1.5669,-1.5805,-1.5805,-1.5893,-1.6029,-1.6029,-1.6049,-1.6083,-1.6083,-1.6083,-1.6083,-1.6083,-1.6096,-1.6123,-1.613,-1.3284,-1.0663,-1.4938,-1.6178,-1.5157,-1.1068,-0.9853,-1.0868,-1.5157,-1.6178,-1.6171,-1.6171,-1.6144,-1.6123,-1.6123,-1.6103,-1.6083,-1.6083,-1.6083,-1.6083,-1.6083,-1.6083,-1.6083,-1.6083,-1.6083,-1.6069,0.0,-1.6029,-1.6015,-1.5981,-1.6008,-1.5981,0.0,0.0,0.0,0.0,-1.5981,-1.6042,-1.6083,-1.6083,-1.6225,-1.6517,-1.6524,-1.6673,-1.6978,-1.6978,-1.6978,-1.6978,-1.6978,-1.7141,-1.7419,-1.7419,-1.7589,-1.786,-1.786,-1.786,-1.786,-1.786,-1.786,-1.786,-1.786,-1.786,-1.786,0.0,0.0,0.0,0.0,0.0,0.0,0.0,0.0,0.0,0.0,0.0,0.0,0.0,0.0,0.0,0.0,0.0,0.0,0.0,0.0,0.0,0.0,0.0,0.0,0.0,0.0,0.0,0.0,0.0,-0.2894,-0.8532,-1.3234,-1.5635,-1.5689,-1.5676,-1.5703,-1.5764,-1.5744,-1.5825,-1.5961,-1.5974,-1.6022,-1.6083,-1.6096,-1.6096,-1.6083,-1.6096,-1.6103,-1.611,-1.613,-1.6151,-1.6164,-1.6185,-1.4149,-1.1713,-1.2341,-1.4178,-1.5402,-1.2526,-0.8052,-0.5628,-1.1082,-1.2305,-1.2305,-1.2305,-1.2489,-1.309,-1.5551,-1.613,-1.6103,-1.6103,-1.609,-1.6083,-1.6083,-1.6083,-1.6083,-1.6083,-1.6083,0.0,-1.6083,-1.6083,-1.6083,-1.6083,-1.6083,-1.6049,-1.5961,-1.6035,0.0,-1.5961,-1.6035,-1.6083,-1.6083,-1.6151,-1.6293,-1.6517,-1.6659,-1.6815,-1.6978,-1.6978,-1.6978,-1.6985,-1.7046,-1.7202,-1.7426,-1.7494,-1.765,-1.786,-1.786,-1.786,-1.786,-1.786,-1.786,-1.786,-1.786,-1.786,-1.786,0.0,0.0,0.0,0.0,0.0,0.0,0.0,0.0,0.0,0.0,0.0,0.0,0.0,0.0,0.0,0.0,0.0,0.0,0.0,0.0,0.0,0.0,0.0,0.0,0.0,0.0,0.0,0.0,0.0,0.0,-0.0196,-0.9036,-1.3608,-1.4422,-1.458,-1.5035,-1.5763,-1.5913,-1.5974,-1.6103,-1.6123,-1.5704,-1.4875,-1.5718,-1.6117,-1.6103,-1.6123,-1.5525,-1.4919,-1.495,-1.5383,-1.6011,-1.6045,-1.6058,-1.4831,-0.8705,-1.0121,-1.3587,-1.3587,-0.7059,-0.1006,-0.563,-0.6838,-0.6838,-0.6838,-0.6835,-0.8045,-1.2716,-1.4325,-1.5119,-1.5937,-1.6117,-1.6096,-1.609,-1.609,-1.609,-1.6083,0.0,-1.6083,-1.6083,-1.6083,-1.6083,-1.6083,-1.6083,-1.6083,-1.6083,-1.6083,-1.6083,-1.6083,-1.6083,-1.6083,-1.6083,-1.6232,-1.6388,-1.6558,-1.6836,-1.6978,-1.6978,-1.6978,-1.6978,-1.6985,-1.7127,-1.7277,-1.7433,-1.7582,-1.7738,-1.786,-1.786,-1.786,-1.786,-1.786,-1.786,-1.786,-1.786,-1.786,-1.786,0.0,0.0,0.0,0.0,0.0,0.0,0.0,0.0,0.0,0.0,0.0,0.0,0.0,0.0,0.0,0.0,0.0,0.0,0.0,0.0,0.0,0.0,0.0,0.0,0.0,0.0,0.0,0.0,0.0,0.0,-0.0,-0.1584,-0.477,-0.9213,-0.9209,-1.1843,-1.5951,-1.611,-1.6123,-1.6178,-1.6144,-1.3284,-0.9849,-1.4301,-1.6151,-1.6178,-1.6144,-1.3084,-0.9248,-0.9252,-1.2315,-1.6045,-1.6051,-1.6078,-1.4042,-0.4245,-0.1818,-0.2423,-0.2423,-0.1211,-0.0202,-0.1009,-0.1211,-0.1211,-0.1211,-0.1209,-0.1407,-0.2413,-0.6029,-1.0667,-1.5163,-1.6185,-1.6171,-1.613,-1.6123,-1.6117,-1.6083,0.0,-1.6083,-1.6083,-1.6083,-1.6083,-1.6083,-1.6083,-1.6083,-1.6083,-1.6083,-1.6083,-1.6083,-1.6083,-1.6083,-1.6083,-1.6232,-1.6442,-1.6714,-1.689,-1.6978,-1.6978,-1.6978,-1.6978,-1.6985,-1.7127,-1.7277,-1.7433,-1.7582,-1.7738,-1.786,-1.786,-1.786,-1.786,-1.786,-1.786,-1.786,-1.786,-1.786,-1.786,0.0,0.0,0.0,0.0,0.0,0.0,0.0,0.0,0.0,0.0,0.0,0.0,0.0,0.0,0.0,0.0,0.0,0.0,0.0,0.0,0.0,0.0,0.0,0.0,0.0,0.0,0.0,0.0,0.0,0.0,0.0,0.0,-0.1405,-0.3625,-0.3619,-0.5026,-0.765,-1.0462,-1.3513,-1.5998,-1.6198,-1.2912,-0.8038,-0.7634,-1.1077,-1.5998,-1.6198,-1.4562,-1.1507,-0.5642,-0.5446,-0.7478,-0.7478,-0.7484,-0.6474,-0.1414,0.0,0.0,0.0,0.0,0.0,0.0,0.0,0.0,0.0,0.0,0.0,0.0,-0.2013,-0.4421,-0.7041,-0.987,-1.1688,-1.1673,-1.4119,0.0,0.0,-1.611,-1.6103,-1.6083,-1.6083,-1.6083,-1.6083,-1.6083,-1.6083,-1.6083,-1.6083,-1.6083,-1.6083,-1.6083,-1.6123,-1.6205,-1.6347,-1.6571,-1.687,-1.6944,-1.6978,-1.6978,-1.6978,-1.6978,-1.6985,-1.7216,-1.7351,-1.7433,-1.767,-1.7806,-1.786,-1.786,-1.786,-1.786,-1.786,-1.786,-1.786,-1.786,-1.786,-1.786,0.0,0.0,0.0,0.0,0.0,0.0,0.0,0.0,0.0,0.0,0.0,0.0,0.0,0.0,0.0,0.0,0.0,0.0,0.0,0.0,0.0,0.0,0.0,0.0,0.0,0.0,0.0,0.0,0.0,0.0,0.0,0.0,0.0,0.0,0.0,0.0,-0.0201,-0.4421,-0.8457,-1.2532,-1.5013,-1.213,-0.563,-0.1609,-0.5231,-1.2732,-1.5214,-1.4403,-1.1129,-0.2827,0.0,0.0,0.0,0.0,0.0,0.0,0.0,0.0,0.0,0.0,0.0,0.0,0.0,0.0,0.0,0.0,0.0,0.0,0.0,0.0,0.0,-0.342,-0.6233,-0.623,0.0,0.0,0.0,-1.5318,-1.6123,-1.6096,-1.609,-1.6083,-1.6083,-1.6083,-1.6083,-1.6083,-1.6083,-1.6083,-1.6083,-1.6083,-1.6171,-1.6354,-1.6497,-1.6707,-1.6978,-1.6978,-1.6978,-1.6978,-1.6978,-1.6978,-1.6992,-1.729,-1.7419,-1.7439,-1.7738,-1.786,-1.786,-1.786,-1.786,-1.786,-1.786,-1.786,-1.786,-1.786,-1.786,-1.786,0.0,0.0,0.0,0.0,0.0,0.0,0.0,0.0,0.0,0.0,0.0,0.0,0.0,0.0,0.0,0.0,0.0,0.0,0.0,0.0,0.0,0.0,0.0,0.0,0.0,0.0,0.0,0.0,0.0,0.0,0.0,0.0,0.0,0.0,0.0,0.0,-0.0,-0.0403,-0.0805,-0.2019,-1.215,-0.9907,-0.0606,-0.0201,-0.0403,-0.2422,-1.2558,-0.9706,-0.101,-0.0202,0.0,0.0,0.0,0.0,0.0,0.0,0.0,0.0,0.0,0.0,0.0,0.0,0.0,0.0,0.0,0.0,0.0,0.0,0.0,0.0,0.0,-0.0404,-0.0605,-0.0604,0.0,0.0,-0.7838,-1.2884,-1.613,-1.613,-1.6103,-1.6083,-1.6083,-1.6083,-1.6083,-1.6083,-1.6083,-1.6083,-1.6083,-1.6083,-1.6212,-1.6497,-1.6653,-1.6815,-1.6978,-1.6978,-1.6978,-1.6978,-1.6978,-1.6978,-1.6992,-1.729,-1.7419,-1.7439,-1.7738,-1.786,-1.786,-1.786,-1.786,-1.786,-1.786,-1.786,-1.786,-1.786,-1.786,-1.786,0.0,0.0,0.0,0.0,0.0,0.0,0.0,0.0,0.0,0.0,0.0,0.0,0.0,0.0,0.0,0.0,0.0,0.0,0.0,0.0,0.0,0.0,0.0,0.0,0.0,0.0,0.0,0.0,0.0,0.0,0.0,0.0,0.0,0.0,0.0,0.0,0.0,0.0,0.0,-0.0404,-0.4444,-0.3635,0.0,0.0,0.0,-0.0606,-0.4643,-0.3433,0.0,0.0,0.0,0.0,0.0,0.0,0.0,0.0,0.0,0.0,0.0,0.0,0.0,0.0,0.0,0.0,0.0,0.0,0.0,0.0,0.0,0.0,0.0,0.0,0.0,0.0,0.0,-0.0806,-0.2814,-0.4821,-0.8639,-1.5318,-1.6123,-1.6103,-1.6083,-1.6083,-1.6083,-1.6083,-1.6083,-1.6083,-1.6083,-1.6252,-1.6449,-1.6659,-1.6815,-1.6924,-1.6978,-1.6978,-1.6978,-1.6978,-1.6978,-1.7026,-1.7121,-1.7324,-1.7473,-1.7575,-1.7772,-1.786,-1.786,-1.786,-1.786,-1.786,-1.786,-1.786,-1.786,-1.786,-1.786,-1.786,0.0,0.0,0.0,0.0,0.0,0.0,0.0,0.0,0.0,0.0,0.0,0.0,0.0,0.0,0.0,0.0,0.0,0.0,0.0,0.0,0.0,0.0,0.0,0.0,0.0,0.0,0.0,0.0,0.0,0.0,0.0,0.0,0.0,0.0,0.0,0.0,0.0,0.0,0.0,0.0,0.0,0.0,0.0,0.0,0.0,0.0,0.0,0.0,0.0,0.0,0.0,0.0,0.0,0.0,0.0,0.0,0.0,0.0,0.0,0.0,0.0,0.0,0.0,0.0,0.0,0.0,0.0,0.0,0.0,0.0,0.0,0.0,0.0,0.0,0.0,0.0,0.0,0.0,-0.2813,-1.0249,-1.4095,-1.6123,-1.6103,-1.609,-1.6083,-1.6083,-1.6083,-1.6103,-1.6151,-1.6435,-1.6639,-1.6748,-1.6904,-1.6978,-1.6978,-1.6978,-1.6978,-1.6978,-1.6978,-1.7053,-1.7195,-1.7351,-1.7507,-1.765,-1.7806,-1.786,-1.786,-1.786,-1.786,-1.786,-1.786,-1.786,-1.786,-1.786,-1.786,-1.786,0.0,0.0,0.0,0.0,0.0,0.0,0.0,0.0,0.0,0.0,0.0,0.0,0.0,0.0,0.0,0.0,0.0,0.0,0.0,0.0,0.0,0.0,0.0,0.0,0.0,0.0,0.0,0.0,0.0,0.0,0.0,0.0,0.0,0.0,0.0,0.0,0.0,0.0,0.0,0.0,0.0,0.0,0.0,0.0,0.0,0.0,0.0,0.0,0.0,0.0,0.0,0.0,0.0,0.0,0.0,0.0,0.0,0.0,0.0,0.0,0.0,0.0,0.0,0.0,0.0,0.0,0.0,0.0,0.0,0.0,0.0,0.0,0.0,0.0,0.0,0.0,0.0,0.0,0.0,0.0,-0.9444,-1.613,-1.613,-1.6103,-1.6083,-1.6083,-1.6083,-1.6151,-1.6307,-1.6592,-1.6748,-1.6754,-1.6904,-1.6978,-1.6978,-1.6978,-1.6978,-1.6978,-1.6978,-1.7053,-1.7202,-1.7351,-1.7507,-1.7663,-1.7806,-1.786,-1.786,-1.786,-1.786,-1.786,-1.786,-1.786,-1.786,-1.786,-1.786,-1.786,0.0,0.0,0.0,0.0,0.0,0.0,0.0,0.0,0.0,0.0,0.0,0.0,0.0,0.0,0.0,0.0,0.0,0.0,0.0,0.0,0.0,0.0,0.0,0.0,0.0,0.0,0.0,0.0,0.0,0.0,0.0,0.0,0.0,0.0,0.0,0.0,0.0,0.0,0.0,0.0,0.0,0.0,0.0,0.0,0.0,0.0,0.0,0.0,0.0,0.0,0.0,0.0,0.0,0.0,0.0,0.0,0.0,0.0,0.0,0.0,0.0,0.0,0.0,0.0,0.0,0.0,0.0,0.0,0.0,0.0,0.0,0.0,0.0,0.0,0.0,0.0,0.0,0.0,0.0,0.0,-0.9476,-1.6191,-1.6137,-1.6123,-1.611,-1.6083,-1.6185,-1.6354,-1.6605,-1.67,-1.6802,-1.691,-1.6958,-1.6978,-1.6978,-1.6978,-1.6978,-1.6978,-1.6978,-1.7114,-1.7351,-1.7399,-1.7561,-1.7806,-1.7846,-1.786,-1.786,-1.786,-1.786,-1.786,-1.786,-1.786,-1.786,-1.786,-1.786,-1.786,0.0,0.0,0.0,0.0,0.0,0.0,0.0,0.0,0.0,0.0,0.0,0.0,0.0,0.0,0.0,0.0,0.0,0.0,0.0,0.0,0.0,0.0,0.0,0.0,0.0,0.0,0.0,0.0,0.0,0.0,0.0,0.0,0.0,0.0,0.0,0.0,0.0,0.0,0.0,0.0,0.0,0.0,0.0,0.0,0.0,0.0,0.0,0.0,0.0,0.0,0.0,0.0,0.0,0.0,0.0,0.0,0.0,0.0,0.0,0.0,0.0,0.0,0.0,0.0,0.0,0.0,0.0,0.0,0.0,0.0,0.0,0.0,0.0,0.0,0.0,0.0,0.0,0.0,0.0,0.0,-0.5843,-1.1512,-1.5771,-1.6151,-1.6144,-1.6171,-1.6368,-1.6564,-1.6741,-1.6809,-1.6883,-1.6978,-1.6978,-1.6978,-1.6978,-1.6978,-1.6978,-1.6978,-1.7039,-1.7188,-1.7419,-1.7487,-1.7629,-1.786,-1.786,-1.786,-1.786,-1.786,-1.786,-1.786,-1.786,-1.786,-1.786,-1.786,-1.786,-1.786,0.0,0.0,0.0,0.0,0.0,0.0,0.0,0.0,0.0,0.0,0.0,0.0,0.0,0.0,0.0,0.0,0.0,0.0,0.0,0.0,0.0,0.0,0.0,0.0,0.0,0.0,0.0,0.0,0.0,0.0,0.0,0.0,0.0,0.0,0.0,0.0,0.0,0.0,0.0,0.0,0.0,0.0,0.0,0.0,0.0,0.0,0.0,0.0,0.0,0.0,0.0,0.0,0.0,0.0,0.0,0.0,0.0,0.0,0.0,0.0,0.0,0.0,0.0,0.0,0.0,0.0,0.0,0.0,0.0,0.0,0.0,0.0,0.0,0.0,0.0,0.0,0.0,0.0,0.0,0.0,0.0,-0.3825,-1.3776,-1.5577,-1.6212,-1.6347,-1.6598,-1.6754,-1.6768,-1.6904,-1.6978,-1.6978,-1.6978,-1.6978,-1.6978,-1.6978,-1.6978,-1.6985,-1.7127,-1.727,-1.7426,-1.7582,-1.7717,-1.786,-1.786,-1.786,-1.786,-1.786,-1.786,-1.786,-1.786,-1.786,-1.786,-1.786,-1.786,-1.786,0.0,0.0,0.0,0.0,0.0,0.0,0.0,0.0,0.0,0.0,0.0,0.0,0.0,0.0,0.0,0.0,0.0,0.0,0.0,0.0,0.0,0.0,0.0,0.0,0.0,0.0,0.0,0.0,0.0,0.0,0.0,0.0,0.0,0.0,0.0,0.0,0.0,0.0,0.0,0.0,0.0,0.0,0.0,0.0,0.0,0.0,0.0,0.0,0.0,0.0,0.0,0.0,0.0,0.0,0.0,0.0,0.0,0.0,0.0,0.0,0.0,0.0,0.0,0.0,0.0,0.0,0.0,0.0,0.0,0.0,0.0,0.0,0.0,0.0,0.0,0.0,0.0,0.0,0.0,0.0,0.0,-0.1008,-0.322,-1.1344,-1.6422,-1.6686,-1.6734,-1.6802,-1.6924,-1.6965,-1.6978,-1.6978,-1.6978,-1.6978,-1.6978,-1.6978,-1.6978,-1.6985,-1.7127,-1.727,-1.7426,-1.7582,-1.7717,-1.786,-1.786,-1.786,-1.786,-1.786,-1.786,-1.786,-1.786,-1.786,-1.786,-1.786,-1.786,-1.786,0.0,0.0,0.0,0.0,0.0,0.0,0.0,0.0,0.0,0.0,0.0,0.0,0.0,0.0,0.0,0.0,0.0,0.0,0.0,0.0,0.0,0.0,0.0,0.0,0.0,0.0,0.0,0.0,0.0,0.0,0.0,0.0,0.0,0.0,0.0,0.0,0.0,0.0,0.0,0.0,0.0,0.0,0.0,0.0,0.0,0.0,0.0,0.0,0.0,0.0,0.0,0.0,0.0,0.0,0.0,0.0,0.0,0.0,0.0,0.0,0.0,0.0,0.0,0.0,0.0,0.0,0.0,0.0,0.0,0.0,0.0,0.0,0.0,0.0,0.0,0.0,0.0,0.0,0.0,0.0,0.0,0.0,0.0,-0.5119,-1.0785,-1.6379,-1.6863,-1.691,-1.6978,-1.6978,-1.6978,-1.6978,-1.6978,-1.6978,-1.6978,-1.6978,-1.6978,-1.6985,-1.7202,-1.7344,-1.7426,-1.765,-1.7792,-1.786,-1.786,-1.786,-1.786,-1.786,-1.786,-1.786,-1.786,-1.786,-1.786,-1.786,-1.786,-1.786,0.0,0.0,0.0,0.0,0.0,0.0,0.0,0.0,0.0,0.0,0.0,0.0,0.0,0.0,0.0,0.0,0.0,0.0,0.0,0.0,0.0,0.0,0.0,0.0,0.0,0.0,0.0,0.0,0.0,0.0,0.0,0.0,0.0,0.0,0.0,0.0,0.0,0.0,0.0,0.0,0.0,0.0,0.0,0.0,0.0,0.0,0.0,0.0,0.0,0.0,0.0,0.0,0.0,0.0,0.0,0.0,0.0,0.0,0.0,0.0,0.0,0.0,0.0,0.0,0.0,0.0,0.0,0.0,0.0,0.0,0.0,0.0,0.0,0.0,0.0,0.0,0.0,0.0,0.0,0.0,0.0,0.0,0.0,0.0,-0.419,-1.4516,-1.6321,-1.7019,-1.6985,-1.6978,-1.6978,-1.6978,-1.6978,-1.6978,-1.6978,-1.6978,-1.6992,-1.7019,-1.729,-1.7419,-1.7433,-1.7724,-1.786,-1.786,-1.786,-1.786,-1.786,-1.786,-1.786,-1.786,-1.786,-1.786,-1.786,-1.786,-1.786,-1.786,0.0,0.0,0.0,0.0,0.0,0.0,0.0,0.0,0.0,0.0,0.0,0.0,0.0,0.0,0.0,0.0,0.0,0.0,0.0,0.0,0.0,0.0,0.0,0.0,0.0,0.0,0.0,0.0,0.0,0.0,0.0,0.0,0.0,0.0,0.0,0.0,0.0,0.0,0.0,0.0,0.0,0.0,0.0,0.0,0.0,0.0,0.0,0.0,0.0,0.0,0.0,0.0,0.0,0.0,0.0,0.0,0.0,0.0,0.0,0.0,0.0,0.0,0.0,0.0,0.0,0.0,0.0,0.0,0.0,0.0,0.0,0.0,0.0,0.0,0.0,0.0,0.0,0.0,0.0,0.0,0.0,0.0,0.0,0.0,-0.2732,-0.9104,-1.4229,-1.7019,-1.6985,-1.6978,-1.6978,-1.6978,-1.6978,-1.6978,-1.6978,-1.6978,-1.7039,-1.7168,-1.7338,-1.7419,-1.7433,-1.7724,-1.786,-1.786,-1.786,-1.786,-1.786,-1.786,-1.786,-1.786,-1.786,-1.786,-1.786,-1.786,-1.786,-1.786,0.0,0.0,0.0,0.0,0.0,0.0,0.0,0.0,0.0,0.0,0.0,0.0,0.0,0.0,0.0,0.0,0.0,0.0,0.0,0.0,0.0,0.0,0.0,0.0,0.0,0.0,0.0,0.0,0.0,0.0,0.0,0.0,0.0,0.0,0.0,0.0,0.0,0.0,0.0,0.0,0.0,0.0,0.0,0.0,0.0,0.0,0.0,0.0,0.0,0.0,0.0,0.0,0.0,0.0,0.0,0.0,0.0,0.0,0.0,0.0,0.0,0.0,0.0,0.0,0.0,0.0,0.0,0.0,0.0,0.0,0.0,0.0,0.0,0.0,0.0,0.0,0.0,0.0,0.0,0.0,0.0,0.0,0.0,0.0,-0.1059,-0.3607,-1.1906,-1.7053,-1.7012,-1.6992,-1.6978,-1.6978,-1.6978,-1.6978,-1.6978,-1.6978,-1.7053,-1.7195,-1.7344,-1.7467,-1.7555,-1.7772,-1.786,-1.786,-1.786,-1.786,-1.786,-1.786,-1.786,-1.786,-1.786,-1.786,-1.786,-1.786,-1.786,-1.786]}]]